<?xml version='1.0' encoding='UTF-8'?><gpx version="1.1" creator="JPX - https://github.com/jenetics/jpx" xmlns="http://www.topografix.com/GPX/1/1"><trk><trkseg><trkpt lat="43.4562784" lon="11.8085749"><ele>246.0</ele><time>2026-04-12T07:05:15.029Z</time></trkpt><trkpt lat="43.4562467" lon="11.8084905"><ele>246.00000000000003</ele><time>2026-04-12T07:05:23.03Z</time></trkpt><trkpt lat="43.4561664" lon="11.8084223"><ele>246.00000000000003</ele><time>2026-04-12T07:11:01.029Z</time></trkpt><trkpt lat="43.4561669" lon="11.8083261"><ele>246.0</ele><time>2026-04-12T07:11:03.035Z</time></trkpt><trkpt lat="43.4563098" lon="11.8084128"><ele>246.0</ele><time>2026-04-12T07:11:05.032Z</time></trkpt><trkpt lat="43.4564377" lon="11.8084678"><ele>246.0</ele><time>2026-04-12T07:11:07.025Z</time></trkpt><trkpt lat="43.4565295" lon="11.8085257"><ele>246.0</ele><time>2026-04-12T07:11:08.033Z</time></trkpt><trkpt lat="43.4566104" lon="11.8086063"><ele>246.0</ele><time>2026-04-12T07:11:09.024Z</time></trkpt><trkpt lat="43.4567039" lon="11.8087169"><ele>246.0</ele><time>2026-04-12T07:11:10.023Z</time></trkpt><trkpt lat="43.4568043" lon="11.8088454"><ele>246.0</ele><time>2026-04-12T07:11:11.033Z</time></trkpt><trkpt lat="43.4569138" lon="11.808973"><ele>246.0</ele><time>2026-04-12T07:11:12.029Z</time></trkpt><trkpt lat="43.4570344" lon="11.8091104"><ele>246.0</ele><time>2026-04-12T07:11:13.023Z</time></trkpt><trkpt lat="43.4571597" lon="11.8092547"><ele>246.0</ele><time>2026-04-12T07:11:14.032Z</time></trkpt><trkpt lat="43.4572749" lon="11.8093947"><ele>246.0</ele><time>2026-04-12T07:11:15.027Z</time></trkpt><trkpt lat="43.4573804" lon="11.8095265"><ele>246.0</ele><time>2026-04-12T07:11:16.033Z</time></trkpt><trkpt lat="43.4574704" lon="11.8096548"><ele>246.0</ele><time>2026-04-12T07:11:17.029Z</time></trkpt><trkpt lat="43.4575529" lon="11.8097756"><ele>246.0</ele><time>2026-04-12T07:11:18.034Z</time></trkpt><trkpt lat="43.4576287" lon="11.8098844"><ele>246.00000000000003</ele><time>2026-04-12T07:11:19.027Z</time></trkpt><trkpt lat="43.4576918" lon="11.8099795"><ele>246.00000000000003</ele><time>2026-04-12T07:11:20.027Z</time></trkpt><trkpt lat="43.4577383" lon="11.810045"><ele>246.0</ele><time>2026-04-12T07:11:21.026Z</time></trkpt><trkpt lat="43.4578095" lon="11.8101338"><ele>246.0</ele><time>2026-04-12T07:11:23.031Z</time></trkpt><trkpt lat="43.4579013" lon="11.8101618"><ele>246.20000000000002</ele><time>2026-04-12T07:11:25.03Z</time></trkpt><trkpt lat="43.4579729" lon="11.8101252"><ele>246.40000000000003</ele><time>2026-04-12T07:11:26.029Z</time></trkpt><trkpt lat="43.4580551" lon="11.810059"><ele>246.6</ele><time>2026-04-12T07:11:27.031Z</time></trkpt><trkpt lat="43.4581572" lon="11.8099673"><ele>246.8</ele><time>2026-04-12T07:11:28.034Z</time></trkpt><trkpt lat="43.4582689" lon="11.8098615"><ele>247.0</ele><time>2026-04-12T07:11:29.029Z</time></trkpt><trkpt lat="43.4583736" lon="11.8097326"><ele>247.0</ele><time>2026-04-12T07:11:30.035Z</time></trkpt><trkpt lat="43.458472" lon="11.8095854"><ele>247.0</ele><time>2026-04-12T07:11:31.035Z</time></trkpt><trkpt lat="43.4585574" lon="11.8094462"><ele>247.0</ele><time>2026-04-12T07:11:32.027Z</time></trkpt><trkpt lat="43.458631" lon="11.8093024"><ele>247.0</ele><time>2026-04-12T07:11:33.032Z</time></trkpt><trkpt lat="43.4586958" lon="11.8091396"><ele>247.66666666666666</ele><time>2026-04-12T07:11:34.027Z</time></trkpt><trkpt lat="43.458743" lon="11.8089534"><ele>248.33333333333331</ele><time>2026-04-12T07:11:35.027Z</time></trkpt><trkpt lat="43.4587806" lon="11.8087411"><ele>249.0</ele><time>2026-04-12T07:11:36.026Z</time></trkpt><trkpt lat="43.4588204" lon="11.8085284"><ele>251.0</ele><time>2026-04-12T07:11:37.026Z</time></trkpt><trkpt lat="43.45884" lon="11.8083149"><ele>253.0</ele><time>2026-04-12T07:11:38.023Z</time></trkpt><trkpt lat="43.458834" lon="11.8080879"><ele>255.0</ele><time>2026-04-12T07:11:39.035Z</time></trkpt><trkpt lat="43.4588475" lon="11.8078736"><ele>255.0</ele><time>2026-04-12T07:11:40.036Z</time></trkpt><trkpt lat="43.4588531" lon="11.8076656"><ele>255.0</ele><time>2026-04-12T07:11:41.023Z</time></trkpt><trkpt lat="43.4588471" lon="11.8074621"><ele>255.0</ele><time>2026-04-12T07:11:42.026Z</time></trkpt><trkpt lat="43.4588292" lon="11.8072458"><ele>256.3333333333333</ele><time>2026-04-12T07:11:43.031Z</time></trkpt><trkpt lat="43.4588106" lon="11.8070293"><ele>257.66666666666663</ele><time>2026-04-12T07:11:44.023Z</time></trkpt><trkpt lat="43.4587826" lon="11.8068095"><ele>259.0</ele><time>2026-04-12T07:11:45.035Z</time></trkpt><trkpt lat="43.4587374" lon="11.8065867"><ele>260.66666666666663</ele><time>2026-04-12T07:11:46.023Z</time></trkpt><trkpt lat="43.4587003" lon="11.8063669"><ele>262.3333333333333</ele><time>2026-04-12T07:11:47.03Z</time></trkpt><trkpt lat="43.4586818" lon="11.8061649"><ele>264.0</ele><time>2026-04-12T07:11:48.034Z</time></trkpt><trkpt lat="43.4586764" lon="11.8059598"><ele>265.3333333333333</ele><time>2026-04-12T07:11:49.022Z</time></trkpt><trkpt lat="43.4586799" lon="11.8057488"><ele>266.66666666666663</ele><time>2026-04-12T07:11:50.025Z</time></trkpt><trkpt lat="43.4586937" lon="11.8055289"><ele>268.0</ele><time>2026-04-12T07:11:51.025Z</time></trkpt><trkpt lat="43.4587045" lon="11.8053138"><ele>269.75</ele><time>2026-04-12T07:11:52.023Z</time></trkpt><trkpt lat="43.4587173" lon="11.8051191"><ele>271.5</ele><time>2026-04-12T07:11:53.025Z</time></trkpt><trkpt lat="43.4587316" lon="11.8049427"><ele>273.25</ele><time>2026-04-12T07:11:54.022Z</time></trkpt><trkpt lat="43.4587384" lon="11.8047812"><ele>275.0</ele><time>2026-04-12T07:11:55.032Z</time></trkpt><trkpt lat="43.4587478" lon="11.8046392"><ele>275.0</ele><time>2026-04-12T07:11:56.024Z</time></trkpt><trkpt lat="43.4587573" lon="11.8044891"><ele>275.0</ele><time>2026-04-12T07:11:57.029Z</time></trkpt><trkpt lat="43.458764" lon="11.8043212"><ele>275.0</ele><time>2026-04-12T07:11:58.023Z</time></trkpt><trkpt lat="43.4587686" lon="11.8041685"><ele>275.0</ele><time>2026-04-12T07:11:59.032Z</time></trkpt><trkpt lat="43.4587648" lon="11.8040317"><ele>275.0</ele><time>2026-04-12T07:12:00.036Z</time></trkpt><trkpt lat="43.4587549" lon="11.8038849"><ele>276.5</ele><time>2026-04-12T07:12:01.023Z</time></trkpt><trkpt lat="43.4587319" lon="11.8037395"><ele>278.0</ele><time>2026-04-12T07:12:02.033Z</time></trkpt><trkpt lat="43.4587058" lon="11.8035904"><ele>279.5</ele><time>2026-04-12T07:12:03.025Z</time></trkpt><trkpt lat="43.4586848" lon="11.8034332"><ele>281.0</ele><time>2026-04-12T07:12:04.027Z</time></trkpt><trkpt lat="43.4586672" lon="11.8032673"><ele>281.0</ele><time>2026-04-12T07:12:05.033Z</time></trkpt><trkpt lat="43.4586418" lon="11.8031035"><ele>281.0</ele><time>2026-04-12T07:12:06.033Z</time></trkpt><trkpt lat="43.458604" lon="11.8029485"><ele>281.0</ele><time>2026-04-12T07:12:07.033Z</time></trkpt><trkpt lat="43.4585723" lon="11.8028212"><ele>281.0</ele><time>2026-04-12T07:12:08.033Z</time></trkpt><trkpt lat="43.4585529" lon="11.8027168"><ele>281.0</ele><time>2026-04-12T07:12:09.033Z</time></trkpt><trkpt lat="43.4585567" lon="11.8026181"><ele>279.8</ele><time>2026-04-12T07:12:10.033Z</time></trkpt><trkpt lat="43.4585905" lon="11.8025281"><ele>278.6</ele><time>2026-04-12T07:12:11.033Z</time></trkpt><trkpt lat="43.4586524" lon="11.8024434"><ele>277.4</ele><time>2026-04-12T07:12:12.033Z</time></trkpt><trkpt lat="43.4587166" lon="11.8023384"><ele>276.2</ele><time>2026-04-12T07:12:13.033Z</time></trkpt><trkpt lat="43.4587598" lon="11.8021968"><ele>275.0</ele><time>2026-04-12T07:12:14.033Z</time></trkpt><trkpt lat="43.4587934" lon="11.8020312"><ele>274.25</ele><time>2026-04-12T07:12:15.033Z</time></trkpt><trkpt lat="43.4588228" lon="11.8018521"><ele>273.5</ele><time>2026-04-12T07:12:16.033Z</time></trkpt><trkpt lat="43.4588593" lon="11.8016523"><ele>272.75</ele><time>2026-04-12T07:12:17.034Z</time></trkpt><trkpt lat="43.4588976" lon="11.801463"><ele>272.0</ele><time>2026-04-12T07:12:18.033Z</time></trkpt><trkpt lat="43.4589414" lon="11.801271"><ele>271.0</ele><time>2026-04-12T07:12:19.034Z</time></trkpt><trkpt lat="43.4589863" lon="11.801088"><ele>270.0</ele><time>2026-04-12T07:12:20.033Z</time></trkpt><trkpt lat="43.4590334" lon="11.800917"><ele>269.0</ele><time>2026-04-12T07:12:21.034Z</time></trkpt><trkpt lat="43.4590785" lon="11.8007549"><ele>268.0</ele><time>2026-04-12T07:12:22.033Z</time></trkpt><trkpt lat="43.4591235" lon="11.8006031"><ele>268.0</ele><time>2026-04-12T07:12:23.033Z</time></trkpt><trkpt lat="43.4591704" lon="11.8004761"><ele>268.0</ele><time>2026-04-12T07:12:24.034Z</time></trkpt><trkpt lat="43.4592317" lon="11.8003733"><ele>268.0</ele><time>2026-04-12T07:12:25.033Z</time></trkpt><trkpt lat="43.4593145" lon="11.8002965"><ele>268.0</ele><time>2026-04-12T07:12:26.033Z</time></trkpt><trkpt lat="43.4594022" lon="11.8002251"><ele>268.0</ele><time>2026-04-12T07:12:27.033Z</time></trkpt><trkpt lat="43.4594695" lon="11.8001269"><ele>269.8</ele><time>2026-04-12T07:12:28.033Z</time></trkpt><trkpt lat="43.4595329" lon="11.8000133"><ele>271.6</ele><time>2026-04-12T07:12:29.033Z</time></trkpt><trkpt lat="43.4596137" lon="11.7999138"><ele>273.4</ele><time>2026-04-12T07:12:30.034Z</time></trkpt><trkpt lat="43.4597059" lon="11.7998354"><ele>275.2</ele><time>2026-04-12T07:12:31.033Z</time></trkpt><trkpt lat="43.459792" lon="11.7997431"><ele>277.0</ele><time>2026-04-12T07:12:32.033Z</time></trkpt><trkpt lat="43.4598539" lon="11.79962"><ele>277.25</ele><time>2026-04-12T07:12:33.034Z</time></trkpt><trkpt lat="43.4599041" lon="11.7994753"><ele>277.5</ele><time>2026-04-12T07:12:34.034Z</time></trkpt><trkpt lat="43.4599414" lon="11.7993065"><ele>277.75</ele><time>2026-04-12T07:12:35.033Z</time></trkpt><trkpt lat="43.4599703" lon="11.799119"><ele>278.0</ele><time>2026-04-12T07:12:36.033Z</time></trkpt><trkpt lat="43.4599954" lon="11.7989285"><ele>280.5</ele><time>2026-04-12T07:12:37.034Z</time></trkpt><trkpt lat="43.4600241" lon="11.7987616"><ele>283.0</ele><time>2026-04-12T07:12:38.033Z</time></trkpt><trkpt lat="43.4600632" lon="11.7986193"><ele>285.5</ele><time>2026-04-12T07:12:39.033Z</time></trkpt><trkpt lat="43.4601073" lon="11.7984904"><ele>288.0</ele><time>2026-04-12T07:12:40.033Z</time></trkpt><trkpt lat="43.4601569" lon="11.7983484"><ele>288.0</ele><time>2026-04-12T07:12:41.033Z</time></trkpt><trkpt lat="43.4602151" lon="11.7982039"><ele>288.0</ele><time>2026-04-12T07:12:42.034Z</time></trkpt><trkpt lat="43.4602923" lon="11.798068"><ele>288.0</ele><time>2026-04-12T07:12:43.033Z</time></trkpt><trkpt lat="43.4603741" lon="11.797952"><ele>288.0</ele><time>2026-04-12T07:12:44.034Z</time></trkpt><trkpt lat="43.460451" lon="11.797848"><ele>288.0</ele><time>2026-04-12T07:12:45.033Z</time></trkpt><trkpt lat="43.4605252" lon="11.7977565"><ele>288.0</ele><time>2026-04-12T07:12:46.033Z</time></trkpt><trkpt lat="43.4606035" lon="11.7977007"><ele>288.0</ele><time>2026-04-12T07:12:47.034Z</time></trkpt><trkpt lat="43.4606997" lon="11.7976759"><ele>288.0</ele><time>2026-04-12T07:12:48.034Z</time></trkpt><trkpt lat="43.4608233" lon="11.7976778"><ele>288.0</ele><time>2026-04-12T07:12:49.033Z</time></trkpt><trkpt lat="43.4609677" lon="11.7977004"><ele>288.0</ele><time>2026-04-12T07:12:50.033Z</time></trkpt><trkpt lat="43.4611155" lon="11.7977302"><ele>288.0</ele><time>2026-04-12T07:12:51.033Z</time></trkpt><trkpt lat="43.4612711" lon="11.7977674"><ele>288.0</ele><time>2026-04-12T07:12:52.033Z</time></trkpt><trkpt lat="43.461426" lon="11.7978055"><ele>286.0</ele><time>2026-04-12T07:12:53.033Z</time></trkpt><trkpt lat="43.4615758" lon="11.797847"><ele>284.0</ele><time>2026-04-12T07:12:54.034Z</time></trkpt><trkpt lat="43.4617244" lon="11.7978827"><ele>282.0</ele><time>2026-04-12T07:12:55.033Z</time></trkpt><trkpt lat="43.4618735" lon="11.7979009"><ele>282.0</ele><time>2026-04-12T07:12:56.033Z</time></trkpt><trkpt lat="43.462019" lon="11.797893"><ele>282.0</ele><time>2026-04-12T07:12:57.033Z</time></trkpt><trkpt lat="43.4621621" lon="11.7978543"><ele>282.0</ele><time>2026-04-12T07:12:58.033Z</time></trkpt><trkpt lat="43.4622946" lon="11.7978019"><ele>282.0</ele><time>2026-04-12T07:12:59.033Z</time></trkpt><trkpt lat="43.4624189" lon="11.7977518"><ele>280.6</ele><time>2026-04-12T07:13:00.034Z</time></trkpt><trkpt lat="43.4625266" lon="11.7977116"><ele>279.2</ele><time>2026-04-12T07:13:01.033Z</time></trkpt><trkpt lat="43.4626417" lon="11.7976979"><ele>277.8</ele><time>2026-04-12T07:13:02.033Z</time></trkpt><trkpt lat="43.4627445" lon="11.797709"><ele>276.4</ele><time>2026-04-12T07:13:03.033Z</time></trkpt><trkpt lat="43.4628582" lon="11.7977447"><ele>275.0</ele><time>2026-04-12T07:13:04.034Z</time></trkpt><trkpt lat="43.4629859" lon="11.7977973"><ele>274.4</ele><time>2026-04-12T07:13:05.034Z</time></trkpt><trkpt lat="43.4631003" lon="11.7978464"><ele>273.8</ele><time>2026-04-12T07:13:06.033Z</time></trkpt><trkpt lat="43.4632076" lon="11.7978782"><ele>273.2</ele><time>2026-04-12T07:13:07.033Z</time></trkpt><trkpt lat="43.4633064" lon="11.79789"><ele>272.6</ele><time>2026-04-12T07:13:08.033Z</time></trkpt><trkpt lat="43.4634051" lon="11.7978733"><ele>272.0</ele><time>2026-04-12T07:13:09.034Z</time></trkpt><trkpt lat="43.4634995" lon="11.7978321"><ele>272.0</ele><time>2026-04-12T07:13:10.033Z</time></trkpt><trkpt lat="43.4635953" lon="11.797767"><ele>272.0</ele><time>2026-04-12T07:13:11.033Z</time></trkpt><trkpt lat="43.4636958" lon="11.7976689"><ele>272.0</ele><time>2026-04-12T07:13:12.033Z</time></trkpt><trkpt lat="43.4638118" lon="11.7975477"><ele>272.0</ele><time>2026-04-12T07:13:13.033Z</time></trkpt><trkpt lat="43.4639425" lon="11.7974122"><ele>271.0</ele><time>2026-04-12T07:13:14.034Z</time></trkpt><trkpt lat="43.4640806" lon="11.7972686"><ele>270.0</ele><time>2026-04-12T07:13:15.034Z</time></trkpt><trkpt lat="43.4642101" lon="11.7971382"><ele>269.0</ele><time>2026-04-12T07:13:16.033Z</time></trkpt><trkpt lat="43.4643481" lon="11.7969989"><ele>269.0</ele><time>2026-04-12T07:13:17.033Z</time></trkpt><trkpt lat="43.4644849" lon="11.7968636"><ele>269.0</ele><time>2026-04-12T07:13:18.033Z</time></trkpt><trkpt lat="43.4646131" lon="11.7967322"><ele>269.0</ele><time>2026-04-12T07:13:19.033Z</time></trkpt><trkpt lat="43.4647417" lon="11.7966189"><ele>271.25</ele><time>2026-04-12T07:13:20.033Z</time></trkpt><trkpt lat="43.464869" lon="11.7965208"><ele>273.5</ele><time>2026-04-12T07:13:21.033Z</time></trkpt><trkpt lat="43.4649861" lon="11.7964413"><ele>275.75</ele><time>2026-04-12T07:13:22.034Z</time></trkpt><trkpt lat="43.4650873" lon="11.7963868"><ele>278.0</ele><time>2026-04-12T07:13:23.033Z</time></trkpt><trkpt lat="43.4651683" lon="11.7963615"><ele>278.0</ele><time>2026-04-12T07:13:24.033Z</time></trkpt><trkpt lat="43.4652355" lon="11.7963719"><ele>278.0</ele><time>2026-04-12T07:13:25.033Z</time></trkpt><trkpt lat="43.4652942" lon="11.7964152"><ele>278.0</ele><time>2026-04-12T07:13:26.034Z</time></trkpt><trkpt lat="43.4653597" lon="11.7964867"><ele>278.0</ele><time>2026-04-12T07:13:27.034Z</time></trkpt><trkpt lat="43.4654483" lon="11.7965501"><ele>278.0</ele><time>2026-04-12T07:13:28.033Z</time></trkpt><trkpt lat="43.4655435" lon="11.7965887"><ele>278.0</ele><time>2026-04-12T07:13:29.033Z</time></trkpt><trkpt lat="43.4656359" lon="11.7966006"><ele>277.75</ele><time>2026-04-12T07:13:30.033Z</time></trkpt><trkpt lat="43.4657355" lon="11.7965689"><ele>277.5</ele><time>2026-04-12T07:13:31.034Z</time></trkpt><trkpt lat="43.4658454" lon="11.7965018"><ele>277.25</ele><time>2026-04-12T07:13:32.034Z</time></trkpt><trkpt lat="43.4659678" lon="11.7964161"><ele>277.0</ele><time>2026-04-12T07:13:33.034Z</time></trkpt><trkpt lat="43.4661003" lon="11.7963254"><ele>277.0</ele><time>2026-04-12T07:13:34.034Z</time></trkpt><trkpt lat="43.4662384" lon="11.7962298"><ele>277.0</ele><time>2026-04-12T07:13:35.034Z</time></trkpt><trkpt lat="43.4663801" lon="11.7961348"><ele>277.0</ele><time>2026-04-12T07:13:36.033Z</time></trkpt><trkpt lat="43.466521" lon="11.7960452"><ele>276.5</ele><time>2026-04-12T07:13:37.033Z</time></trkpt><trkpt lat="43.4666562" lon="11.7959627"><ele>276.0</ele><time>2026-04-12T07:13:38.034Z</time></trkpt><trkpt lat="43.4667842" lon="11.7958809"><ele>275.5</ele><time>2026-04-12T07:13:39.033Z</time></trkpt><trkpt lat="43.4669" lon="11.7957972"><ele>275.0</ele><time>2026-04-12T07:13:40.033Z</time></trkpt><trkpt lat="43.4670048" lon="11.7957026"><ele>275.0</ele><time>2026-04-12T07:13:41.033Z</time></trkpt><trkpt lat="43.4671006" lon="11.7955889"><ele>275.0</ele><time>2026-04-12T07:13:42.033Z</time></trkpt><trkpt lat="43.4671902" lon="11.7954541"><ele>275.0</ele><time>2026-04-12T07:13:43.034Z</time></trkpt><trkpt lat="43.4672734" lon="11.7953044"><ele>275.0</ele><time>2026-04-12T07:13:44.033Z</time></trkpt><trkpt lat="43.4673494" lon="11.7951421"><ele>275.0</ele><time>2026-04-12T07:13:45.033Z</time></trkpt><trkpt lat="43.467407" lon="11.7949764"><ele>275.0</ele><time>2026-04-12T07:13:46.034Z</time></trkpt><trkpt lat="43.4674584" lon="11.7948206"><ele>275.0</ele><time>2026-04-12T07:13:47.033Z</time></trkpt><trkpt lat="43.4675191" lon="11.7946804"><ele>275.0</ele><time>2026-04-12T07:13:48.034Z</time></trkpt><trkpt lat="43.4675955" lon="11.7945635"><ele>275.0</ele><time>2026-04-12T07:13:49.033Z</time></trkpt><trkpt lat="43.4676946" lon="11.7944725"><ele>275.0</ele><time>2026-04-12T07:13:50.034Z</time></trkpt><trkpt lat="43.4678115" lon="11.794403"><ele>275.0</ele><time>2026-04-12T07:13:51.033Z</time></trkpt><trkpt lat="43.4679377" lon="11.7943469"><ele>275.0</ele><time>2026-04-12T07:13:52.033Z</time></trkpt><trkpt lat="43.4680653" lon="11.7942803"><ele>274.75</ele><time>2026-04-12T07:13:53.034Z</time></trkpt><trkpt lat="43.4681855" lon="11.7941934"><ele>274.5</ele><time>2026-04-12T07:13:54.033Z</time></trkpt><trkpt lat="43.4682999" lon="11.7940903"><ele>274.25</ele><time>2026-04-12T07:13:55.034Z</time></trkpt><trkpt lat="43.468415" lon="11.7939785"><ele>274.0</ele><time>2026-04-12T07:13:56.033Z</time></trkpt><trkpt lat="43.4685231" lon="11.7938601"><ele>274.0</ele><time>2026-04-12T07:13:57.033Z</time></trkpt><trkpt lat="43.4686151" lon="11.7937302"><ele>274.0</ele><time>2026-04-12T07:13:58.033Z</time></trkpt><trkpt lat="43.4686903" lon="11.7935859"><ele>274.0</ele><time>2026-04-12T07:13:59.033Z</time></trkpt><trkpt lat="43.4687569" lon="11.7934311"><ele>274.0</ele><time>2026-04-12T07:14:00.033Z</time></trkpt><trkpt lat="43.468837" lon="11.7932968"><ele>273.75</ele><time>2026-04-12T07:14:01.033Z</time></trkpt><trkpt lat="43.4689361" lon="11.7931997"><ele>273.5</ele><time>2026-04-12T07:14:02.033Z</time></trkpt><trkpt lat="43.4690525" lon="11.7931354"><ele>273.25</ele><time>2026-04-12T07:14:03.034Z</time></trkpt><trkpt lat="43.4691888" lon="11.7930908"><ele>273.0</ele><time>2026-04-12T07:14:04.033Z</time></trkpt><trkpt lat="43.4693478" lon="11.7930505"><ele>273.0</ele><time>2026-04-12T07:14:05.033Z</time></trkpt><trkpt lat="43.4695179" lon="11.7929989"><ele>273.0</ele><time>2026-04-12T07:14:06.033Z</time></trkpt><trkpt lat="43.469687" lon="11.7929346"><ele>273.0</ele><time>2026-04-12T07:14:07.033Z</time></trkpt><trkpt lat="43.4698551" lon="11.792864"><ele>274.3333333333333</ele><time>2026-04-12T07:14:08.033Z</time></trkpt><trkpt lat="43.4700309" lon="11.7928041"><ele>275.66666666666663</ele><time>2026-04-12T07:14:09.033Z</time></trkpt><trkpt lat="43.4702093" lon="11.7927525"><ele>277.0</ele><time>2026-04-12T07:14:10.033Z</time></trkpt><trkpt lat="43.4703726" lon="11.7927029"><ele>278.0</ele><time>2026-04-12T07:14:11.033Z</time></trkpt><trkpt lat="43.4705284" lon="11.7926479"><ele>279.0</ele><time>2026-04-12T07:14:12.033Z</time></trkpt><trkpt lat="43.4706892" lon="11.7925919"><ele>280.0</ele><time>2026-04-12T07:14:13.033Z</time></trkpt><trkpt lat="43.4708473" lon="11.7925336"><ele>280.0</ele><time>2026-04-12T07:14:14.034Z</time></trkpt><trkpt lat="43.4709929" lon="11.7924781"><ele>280.0</ele><time>2026-04-12T07:14:15.034Z</time></trkpt><trkpt lat="43.4711265" lon="11.7924255"><ele>280.0</ele><time>2026-04-12T07:14:16.033Z</time></trkpt><trkpt lat="43.4712481" lon="11.7923728"><ele>280.0</ele><time>2026-04-12T07:14:17.034Z</time></trkpt><trkpt lat="43.4713658" lon="11.7923186"><ele>279.5</ele><time>2026-04-12T07:14:18.033Z</time></trkpt><trkpt lat="43.4714735" lon="11.7922595"><ele>279.0</ele><time>2026-04-12T07:14:19.033Z</time></trkpt><trkpt lat="43.4715885" lon="11.792218"><ele>278.5</ele><time>2026-04-12T07:14:20.033Z</time></trkpt><trkpt lat="43.4717225" lon="11.792195"><ele>278.0</ele><time>2026-04-12T07:14:21.033Z</time></trkpt><trkpt lat="43.4718736" lon="11.7921759"><ele>278.0</ele><time>2026-04-12T07:14:22.034Z</time></trkpt><trkpt lat="43.4720234" lon="11.7921523"><ele>278.0</ele><time>2026-04-12T07:14:23.033Z</time></trkpt><trkpt lat="43.472157" lon="11.7921277"><ele>278.0</ele><time>2026-04-12T07:14:24.034Z</time></trkpt><trkpt lat="43.4722869" lon="11.7921098"><ele>278.0</ele><time>2026-04-12T07:14:25.034Z</time></trkpt><trkpt lat="43.4724208" lon="11.7921026"><ele>277.5</ele><time>2026-04-12T07:14:26.033Z</time></trkpt><trkpt lat="43.4725572" lon="11.7920945"><ele>277.0</ele><time>2026-04-12T07:14:27.033Z</time></trkpt><trkpt lat="43.4726993" lon="11.792077"><ele>276.5</ele><time>2026-04-12T07:14:28.033Z</time></trkpt><trkpt lat="43.4728438" lon="11.7920485"><ele>276.0</ele><time>2026-04-12T07:14:29.034Z</time></trkpt><trkpt lat="43.4729876" lon="11.7920081"><ele>275.75</ele><time>2026-04-12T07:14:30.033Z</time></trkpt><trkpt lat="43.4731326" lon="11.79196"><ele>275.5</ele><time>2026-04-12T07:14:31.034Z</time></trkpt><trkpt lat="43.4732705" lon="11.7919095"><ele>275.25</ele><time>2026-04-12T07:14:32.034Z</time></trkpt><trkpt lat="43.4733959" lon="11.7918623"><ele>275.0</ele><time>2026-04-12T07:14:33.033Z</time></trkpt><trkpt lat="43.4735123" lon="11.791827"><ele>275.6</ele><time>2026-04-12T07:14:34.033Z</time></trkpt><trkpt lat="43.4736133" lon="11.791814"><ele>276.2</ele><time>2026-04-12T07:14:35.033Z</time></trkpt><trkpt lat="43.4737034" lon="11.7918231"><ele>276.8</ele><time>2026-04-12T07:14:36.033Z</time></trkpt><trkpt lat="43.4737967" lon="11.7918544"><ele>277.4</ele><time>2026-04-12T07:14:37.033Z</time></trkpt><trkpt lat="43.4739058" lon="11.7918901"><ele>278.0</ele><time>2026-04-12T07:14:38.033Z</time></trkpt><trkpt lat="43.4740301" lon="11.7918975"><ele>278.5</ele><time>2026-04-12T07:14:39.033Z</time></trkpt><trkpt lat="43.4741681" lon="11.7918853"><ele>279.0</ele><time>2026-04-12T07:14:40.033Z</time></trkpt><trkpt lat="43.474299" lon="11.7918704"><ele>279.5</ele><time>2026-04-12T07:14:41.033Z</time></trkpt><trkpt lat="43.4744131" lon="11.7918568"><ele>280.0</ele><time>2026-04-12T07:14:42.034Z</time></trkpt><trkpt lat="43.4745144" lon="11.7918456"><ele>280.16666666666663</ele><time>2026-04-12T07:14:43.033Z</time></trkpt><trkpt lat="43.4746018" lon="11.7918366"><ele>280.3333333333333</ele><time>2026-04-12T07:14:44.033Z</time></trkpt><trkpt lat="43.4746785" lon="11.7918261"><ele>280.5</ele><time>2026-04-12T07:14:45.033Z</time></trkpt><trkpt lat="43.4747481" lon="11.7918205"><ele>280.6666666666667</ele><time>2026-04-12T07:14:46.033Z</time></trkpt><trkpt lat="43.4748118" lon="11.7918409"><ele>280.83333333333337</ele><time>2026-04-12T07:14:47.033Z</time></trkpt><trkpt lat="43.47489" lon="11.7919863"><ele>281.0</ele><time>2026-04-12T07:14:49.033Z</time></trkpt><trkpt lat="43.4749321" lon="11.7921183"><ele>280.25</ele><time>2026-04-12T07:14:50.034Z</time></trkpt><trkpt lat="43.4749795" lon="11.7922918"><ele>279.5</ele><time>2026-04-12T07:14:51.033Z</time></trkpt><trkpt lat="43.4750323" lon="11.7924901"><ele>278.75</ele><time>2026-04-12T07:14:52.033Z</time></trkpt><trkpt lat="43.4750792" lon="11.7926654"><ele>278.0</ele><time>2026-04-12T07:14:53.033Z</time></trkpt><trkpt lat="43.475129" lon="11.792842"><ele>278.0</ele><time>2026-04-12T07:14:54.034Z</time></trkpt><trkpt lat="43.4751832" lon="11.7930286"><ele>278.0</ele><time>2026-04-12T07:14:55.034Z</time></trkpt><trkpt lat="43.4752367" lon="11.793216"><ele>278.0</ele><time>2026-04-12T07:14:56.033Z</time></trkpt><trkpt lat="43.4752875" lon="11.7933993"><ele>278.0</ele><time>2026-04-12T07:14:57.034Z</time></trkpt><trkpt lat="43.4753373" lon="11.7935808"><ele>276.33333333333337</ele><time>2026-04-12T07:14:58.033Z</time></trkpt><trkpt lat="43.475432" lon="11.7939341"><ele>274.6666666666667</ele><time>2026-04-12T07:15:00.034Z</time></trkpt><trkpt lat="43.4754738" lon="11.7941018"><ele>273.0</ele><time>2026-04-12T07:15:01.033Z</time></trkpt><trkpt lat="43.4755158" lon="11.7942595"><ele>271.6</ele><time>2026-04-12T07:15:02.034Z</time></trkpt><trkpt lat="43.4755693" lon="11.7943969"><ele>270.20000000000005</ele><time>2026-04-12T07:15:03.033Z</time></trkpt><trkpt lat="43.4756362" lon="11.7945154"><ele>268.8</ele><time>2026-04-12T07:15:04.033Z</time></trkpt><trkpt lat="43.4757121" lon="11.7946165"><ele>267.40000000000003</ele><time>2026-04-12T07:15:05.034Z</time></trkpt><trkpt lat="43.4757957" lon="11.7947067"><ele>266.0</ele><time>2026-04-12T07:15:06.033Z</time></trkpt><trkpt lat="43.4758815" lon="11.7948213"><ele>266.0</ele><time>2026-04-12T07:15:07.033Z</time></trkpt><trkpt lat="43.4759633" lon="11.7949704"><ele>266.0</ele><time>2026-04-12T07:15:08.034Z</time></trkpt><trkpt lat="43.4760357" lon="11.7951505"><ele>266.0</ele><time>2026-04-12T07:15:09.033Z</time></trkpt><trkpt lat="43.4760947" lon="11.7953518"><ele>266.0</ele><time>2026-04-12T07:15:10.033Z</time></trkpt><trkpt lat="43.4761577" lon="11.7955622"><ele>266.0</ele><time>2026-04-12T07:15:11.034Z</time></trkpt><trkpt lat="43.4762386" lon="11.7957774"><ele>266.0</ele><time>2026-04-12T07:15:12.033Z</time></trkpt><trkpt lat="43.4763333" lon="11.796004"><ele>266.0</ele><time>2026-04-12T07:15:13.033Z</time></trkpt><trkpt lat="43.4764208" lon="11.7962188"><ele>265.33333333333337</ele><time>2026-04-12T07:15:14.034Z</time></trkpt><trkpt lat="43.4765133" lon="11.796443"><ele>264.6666666666667</ele><time>2026-04-12T07:15:15.033Z</time></trkpt><trkpt lat="43.4766031" lon="11.7966577"><ele>264.0</ele><time>2026-04-12T07:15:16.033Z</time></trkpt><trkpt lat="43.4766894" lon="11.7968629"><ele>264.0</ele><time>2026-04-12T07:15:17.033Z</time></trkpt><trkpt lat="43.4767707" lon="11.7970616"><ele>264.0</ele><time>2026-04-12T07:15:18.033Z</time></trkpt><trkpt lat="43.476851" lon="11.7972472"><ele>264.0</ele><time>2026-04-12T07:15:19.034Z</time></trkpt><trkpt lat="43.476926" lon="11.7974246"><ele>264.0</ele><time>2026-04-12T07:15:20.033Z</time></trkpt><trkpt lat="43.476998" lon="11.7975926"><ele>264.0</ele><time>2026-04-12T07:15:21.034Z</time></trkpt><trkpt lat="43.4770659" lon="11.7977553"><ele>264.0</ele><time>2026-04-12T07:15:22.033Z</time></trkpt><trkpt lat="43.4771339" lon="11.7979217"><ele>264.0</ele><time>2026-04-12T07:15:23.034Z</time></trkpt><trkpt lat="43.477205" lon="11.7980898"><ele>263.0</ele><time>2026-04-12T07:15:24.033Z</time></trkpt><trkpt lat="43.4772757" lon="11.7982631"><ele>262.0</ele><time>2026-04-12T07:15:25.033Z</time></trkpt><trkpt lat="43.4773395" lon="11.7984472"><ele>261.0</ele><time>2026-04-12T07:15:26.034Z</time></trkpt><trkpt lat="43.4773969" lon="11.7986419"><ele>260.0</ele><time>2026-04-12T07:15:27.033Z</time></trkpt><trkpt lat="43.4774603" lon="11.7988376"><ele>259.6666666666667</ele><time>2026-04-12T07:15:28.033Z</time></trkpt><trkpt lat="43.4775433" lon="11.7990216"><ele>259.3333333333333</ele><time>2026-04-12T07:15:29.033Z</time></trkpt><trkpt lat="43.4776378" lon="11.7991999"><ele>259.0</ele><time>2026-04-12T07:15:30.033Z</time></trkpt><trkpt lat="43.4777427" lon="11.7993686"><ele>259.0</ele><time>2026-04-12T07:15:31.034Z</time></trkpt><trkpt lat="43.477849" lon="11.7995347"><ele>259.0</ele><time>2026-04-12T07:15:32.033Z</time></trkpt><trkpt lat="43.477953" lon="11.7997056"><ele>259.0</ele><time>2026-04-12T07:15:33.033Z</time></trkpt><trkpt lat="43.4780563" lon="11.7998742"><ele>259.0</ele><time>2026-04-12T07:15:34.033Z</time></trkpt><trkpt lat="43.4782631" lon="11.8002323"><ele>259.0</ele><time>2026-04-12T07:15:36.034Z</time></trkpt><trkpt lat="43.478362" lon="11.8004285"><ele>259.0</ele><time>2026-04-12T07:15:37.033Z</time></trkpt><trkpt lat="43.4784518" lon="11.8006257"><ele>259.0</ele><time>2026-04-12T07:15:38.033Z</time></trkpt><trkpt lat="43.4785347" lon="11.8008124"><ele>259.0</ele><time>2026-04-12T07:15:39.034Z</time></trkpt><trkpt lat="43.4786093" lon="11.800991"><ele>259.0</ele><time>2026-04-12T07:15:40.033Z</time></trkpt><trkpt lat="43.4786778" lon="11.8011501"><ele>259.0</ele><time>2026-04-12T07:15:41.033Z</time></trkpt><trkpt lat="43.4787381" lon="11.8012933"><ele>259.0</ele><time>2026-04-12T07:15:42.033Z</time></trkpt><trkpt lat="43.4787917" lon="11.8014214"><ele>259.0</ele><time>2026-04-12T07:15:43.033Z</time></trkpt><trkpt lat="43.4788349" lon="11.8015302"><ele>259.0</ele><time>2026-04-12T07:15:44.033Z</time></trkpt><trkpt lat="43.4788809" lon="11.8016319"><ele>259.0</ele><time>2026-04-12T07:15:45.033Z</time></trkpt><trkpt lat="43.478919" lon="11.8017197"><ele>259.0</ele><time>2026-04-12T07:15:46.033Z</time></trkpt><trkpt lat="43.4789546" lon="11.8018012"><ele>259.0</ele><time>2026-04-12T07:15:47.034Z</time></trkpt><trkpt lat="43.4790111" lon="11.8019239"><ele>259.0</ele><time>2026-04-12T07:15:49.033Z</time></trkpt><trkpt lat="43.4790433" lon="11.8020006"><ele>259.0</ele><time>2026-04-12T07:15:51.034Z</time></trkpt><trkpt lat="43.4790953" lon="11.8021479"><ele>258.59999999999997</ele><time>2026-04-12T07:15:58.033Z</time></trkpt><trkpt lat="43.4791279" lon="11.8022397"><ele>258.2</ele><time>2026-04-12T07:15:59.033Z</time></trkpt><trkpt lat="43.4791669" lon="11.8023521"><ele>257.79999999999995</ele><time>2026-04-12T07:16:00.033Z</time></trkpt><trkpt lat="43.4792126" lon="11.8024801"><ele>257.4</ele><time>2026-04-12T07:16:01.034Z</time></trkpt><trkpt lat="43.4792696" lon="11.8026234"><ele>257.0</ele><time>2026-04-12T07:16:02.033Z</time></trkpt><trkpt lat="43.4793218" lon="11.8027751"><ele>256.25</ele><time>2026-04-12T07:16:03.034Z</time></trkpt><trkpt lat="43.4793758" lon="11.8029455"><ele>255.5</ele><time>2026-04-12T07:16:04.033Z</time></trkpt><trkpt lat="43.4794242" lon="11.8031131"><ele>254.75</ele><time>2026-04-12T07:16:05.034Z</time></trkpt><trkpt lat="43.4794574" lon="11.8032713"><ele>254.0</ele><time>2026-04-12T07:16:06.033Z</time></trkpt><trkpt lat="43.4794772" lon="11.8034236"><ele>254.2</ele><time>2026-04-12T07:16:07.033Z</time></trkpt><trkpt lat="43.4794916" lon="11.8035646"><ele>254.39999999999998</ele><time>2026-04-12T07:16:08.033Z</time></trkpt><trkpt lat="43.4794969" lon="11.803698"><ele>254.6</ele><time>2026-04-12T07:16:09.033Z</time></trkpt><trkpt lat="43.4794922" lon="11.8038233"><ele>254.8</ele><time>2026-04-12T07:16:10.034Z</time></trkpt><trkpt lat="43.4794752" lon="11.8039373"><ele>255.0</ele><time>2026-04-12T07:16:11.033Z</time></trkpt><trkpt lat="43.4794445" lon="11.804042"><ele>255.0</ele><time>2026-04-12T07:16:12.033Z</time></trkpt><trkpt lat="43.4794019" lon="11.8041344"><ele>255.0</ele><time>2026-04-12T07:16:13.033Z</time></trkpt><trkpt lat="43.4793648" lon="11.804211"><ele>255.0</ele><time>2026-04-12T07:16:14.033Z</time></trkpt><trkpt lat="43.4793241" lon="11.8043232"><ele>255.0</ele><time>2026-04-12T07:16:16.033Z</time></trkpt><trkpt lat="43.47939" lon="11.8044342"><ele>255.0</ele><time>2026-04-12T07:16:19.033Z</time></trkpt><trkpt lat="43.4794822" lon="11.8045212"><ele>255.0</ele><time>2026-04-12T07:16:21.033Z</time></trkpt><trkpt lat="43.479575" lon="11.8046139"><ele>255.0</ele><time>2026-04-12T07:16:22.033Z</time></trkpt><trkpt lat="43.4797303" lon="11.8047642"><ele>255.0</ele><time>2026-04-12T07:16:23.034Z</time></trkpt><trkpt lat="43.4798307" lon="11.804844"><ele>255.0</ele><time>2026-04-12T07:16:24.033Z</time></trkpt><trkpt lat="43.4799154" lon="11.8049409"><ele>255.0</ele><time>2026-04-12T07:16:25.034Z</time></trkpt><trkpt lat="43.4799839" lon="11.8050634"><ele>255.0</ele><time>2026-04-12T07:16:26.033Z</time></trkpt><trkpt lat="43.4800361" lon="11.8052011"><ele>255.0</ele><time>2026-04-12T07:16:27.033Z</time></trkpt><trkpt lat="43.4800855" lon="11.8053441"><ele>255.0</ele><time>2026-04-12T07:16:28.034Z</time></trkpt><trkpt lat="43.4801399" lon="11.8054991"><ele>254.75</ele><time>2026-04-12T07:16:29.033Z</time></trkpt><trkpt lat="43.480195" lon="11.8056569"><ele>254.5</ele><time>2026-04-12T07:16:30.033Z</time></trkpt><trkpt lat="43.4802551" lon="11.8058049"><ele>254.25</ele><time>2026-04-12T07:16:31.033Z</time></trkpt><trkpt lat="43.4803143" lon="11.8059348"><ele>254.0</ele><time>2026-04-12T07:16:32.033Z</time></trkpt><trkpt lat="43.4803758" lon="11.8060623"><ele>254.0</ele><time>2026-04-12T07:16:33.033Z</time></trkpt><trkpt lat="43.480453" lon="11.8061991"><ele>254.0</ele><time>2026-04-12T07:16:34.033Z</time></trkpt><trkpt lat="43.4805317" lon="11.8063249"><ele>254.0</ele><time>2026-04-12T07:16:35.033Z</time></trkpt><trkpt lat="43.4806127" lon="11.8064282"><ele>254.0</ele><time>2026-04-12T07:16:36.033Z</time></trkpt><trkpt lat="43.4806982" lon="11.8065214"><ele>254.0</ele><time>2026-04-12T07:16:37.033Z</time></trkpt><trkpt lat="43.4807756" lon="11.8066018"><ele>253.99999999999997</ele><time>2026-04-12T07:16:38.033Z</time></trkpt><trkpt lat="43.4808375" lon="11.8066616"><ele>253.99999999999997</ele><time>2026-04-12T07:16:39.033Z</time></trkpt><trkpt lat="43.4809246" lon="11.8067278"><ele>254.0</ele><time>2026-04-12T07:16:41.033Z</time></trkpt><trkpt lat="43.4810009" lon="11.806707"><ele>254.0</ele><time>2026-04-12T07:16:43.033Z</time></trkpt><trkpt lat="43.4810472" lon="11.806532"><ele>254.0</ele><time>2026-04-12T07:16:45.033Z</time></trkpt><trkpt lat="43.4810681" lon="11.8063498"><ele>254.0</ele><time>2026-04-12T07:16:46.033Z</time></trkpt><trkpt lat="43.4810995" lon="11.8061547"><ele>254.0</ele><time>2026-04-12T07:16:47.034Z</time></trkpt><trkpt lat="43.4811359" lon="11.805934"><ele>254.0</ele><time>2026-04-12T07:16:48.033Z</time></trkpt><trkpt lat="43.4811782" lon="11.8056827"><ele>254.0</ele><time>2026-04-12T07:16:49.034Z</time></trkpt><trkpt lat="43.4812212" lon="11.8054338"><ele>254.0</ele><time>2026-04-12T07:16:50.033Z</time></trkpt><trkpt lat="43.4812649" lon="11.8051842"><ele>254.0</ele><time>2026-04-12T07:16:51.033Z</time></trkpt><trkpt lat="43.4813081" lon="11.8049468"><ele>254.66666666666669</ele><time>2026-04-12T07:16:52.034Z</time></trkpt><trkpt lat="43.4813452" lon="11.8047252"><ele>255.33333333333331</ele><time>2026-04-12T07:16:53.033Z</time></trkpt><trkpt lat="43.4813808" lon="11.8045129"><ele>256.0</ele><time>2026-04-12T07:16:54.034Z</time></trkpt><trkpt lat="43.4814141" lon="11.8042955"><ele>256.0</ele><time>2026-04-12T07:16:55.034Z</time></trkpt><trkpt lat="43.4814483" lon="11.8040678"><ele>256.0</ele><time>2026-04-12T07:16:56.033Z</time></trkpt><trkpt lat="43.4814879" lon="11.8038371"><ele>256.0</ele><time>2026-04-12T07:16:57.034Z</time></trkpt><trkpt lat="43.4815285" lon="11.8036051"><ele>256.0</ele><time>2026-04-12T07:16:58.033Z</time></trkpt><trkpt lat="43.4815704" lon="11.8033684"><ele>256.0</ele><time>2026-04-12T07:16:59.033Z</time></trkpt><trkpt lat="43.4816247" lon="11.8031339"><ele>256.0</ele><time>2026-04-12T07:17:00.033Z</time></trkpt><trkpt lat="43.4816963" lon="11.8029097"><ele>256.0</ele><time>2026-04-12T07:17:01.034Z</time></trkpt><trkpt lat="43.4817833" lon="11.8026932"><ele>256.0</ele><time>2026-04-12T07:17:02.034Z</time></trkpt><trkpt lat="43.4818814" lon="11.8024816"><ele>256.0</ele><time>2026-04-12T07:17:03.033Z</time></trkpt><trkpt lat="43.4819859" lon="11.802276"><ele>256.0</ele><time>2026-04-12T07:17:04.034Z</time></trkpt><trkpt lat="43.4820923" lon="11.8020674"><ele>256.0</ele><time>2026-04-12T07:17:05.034Z</time></trkpt><trkpt lat="43.4821997" lon="11.8018605"><ele>256.0</ele><time>2026-04-12T07:17:06.033Z</time></trkpt><trkpt lat="43.4823074" lon="11.8016582"><ele>256.3333333333333</ele><time>2026-04-12T07:17:07.034Z</time></trkpt><trkpt lat="43.4824109" lon="11.8014607"><ele>256.6666666666667</ele><time>2026-04-12T07:17:08.033Z</time></trkpt><trkpt lat="43.4825112" lon="11.801271"><ele>257.0</ele><time>2026-04-12T07:17:09.033Z</time></trkpt><trkpt lat="43.4826089" lon="11.8010861"><ele>257.33333333333337</ele><time>2026-04-12T07:17:10.033Z</time></trkpt><trkpt lat="43.4827038" lon="11.8009064"><ele>257.6666666666667</ele><time>2026-04-12T07:17:11.034Z</time></trkpt><trkpt lat="43.4827999" lon="11.8007333"><ele>258.0</ele><time>2026-04-12T07:17:12.033Z</time></trkpt><trkpt lat="43.4828928" lon="11.8005614"><ele>257.6666666666667</ele><time>2026-04-12T07:17:13.033Z</time></trkpt><trkpt lat="43.4829859" lon="11.8003927"><ele>257.33333333333337</ele><time>2026-04-12T07:17:14.033Z</time></trkpt><trkpt lat="43.4830819" lon="11.8002305"><ele>257.0</ele><time>2026-04-12T07:17:15.033Z</time></trkpt><trkpt lat="43.483186" lon="11.8000765"><ele>257.0</ele><time>2026-04-12T07:17:16.034Z</time></trkpt><trkpt lat="43.4832978" lon="11.7999265"><ele>257.0</ele><time>2026-04-12T07:17:17.034Z</time></trkpt><trkpt lat="43.4834056" lon="11.799768"><ele>257.0</ele><time>2026-04-12T07:17:18.034Z</time></trkpt><trkpt lat="43.4834964" lon="11.7995784"><ele>257.0</ele><time>2026-04-12T07:17:19.034Z</time></trkpt><trkpt lat="43.4835914" lon="11.7993831"><ele>257.0</ele><time>2026-04-12T07:17:20.033Z</time></trkpt><trkpt lat="43.4836939" lon="11.7991504"><ele>257.0</ele><time>2026-04-12T07:17:21.034Z</time></trkpt><trkpt lat="43.4838106" lon="11.7989162"><ele>257.0</ele><time>2026-04-12T07:17:22.034Z</time></trkpt><trkpt lat="43.483926" lon="11.7986866"><ele>257.0</ele><time>2026-04-12T07:17:23.033Z</time></trkpt><trkpt lat="43.4840362" lon="11.7984693"><ele>257.0</ele><time>2026-04-12T07:17:24.033Z</time></trkpt><trkpt lat="43.4841403" lon="11.7982604"><ele>256.0</ele><time>2026-04-12T07:17:25.033Z</time></trkpt><trkpt lat="43.4842451" lon="11.7980511"><ele>255.0</ele><time>2026-04-12T07:17:26.033Z</time></trkpt><trkpt lat="43.4843486" lon="11.7978402"><ele>254.0</ele><time>2026-04-12T07:17:27.034Z</time></trkpt><trkpt lat="43.4844548" lon="11.7976292"><ele>253.66666666666669</ele><time>2026-04-12T07:17:28.033Z</time></trkpt><trkpt lat="43.4845581" lon="11.7974151"><ele>253.33333333333331</ele><time>2026-04-12T07:17:29.034Z</time></trkpt><trkpt lat="43.4846577" lon="11.7972091"><ele>253.0</ele><time>2026-04-12T07:17:30.033Z</time></trkpt><trkpt lat="43.4847463" lon="11.7970139"><ele>253.25</ele><time>2026-04-12T07:17:31.033Z</time></trkpt><trkpt lat="43.4848202" lon="11.7968257"><ele>253.5</ele><time>2026-04-12T07:17:32.033Z</time></trkpt><trkpt lat="43.484878" lon="11.7966494"><ele>253.75</ele><time>2026-04-12T07:17:33.033Z</time></trkpt><trkpt lat="43.4849255" lon="11.7964859"><ele>254.0</ele><time>2026-04-12T07:17:34.033Z</time></trkpt><trkpt lat="43.4849616" lon="11.7963384"><ele>254.0</ele><time>2026-04-12T07:17:35.034Z</time></trkpt><trkpt lat="43.4849988" lon="11.7962118"><ele>253.99999999999997</ele><time>2026-04-12T07:17:36.034Z</time></trkpt><trkpt lat="43.485048" lon="11.7961133"><ele>253.99999999999997</ele><time>2026-04-12T07:17:37.033Z</time></trkpt><trkpt lat="43.4851118" lon="11.7960296"><ele>254.0</ele><time>2026-04-12T07:17:38.033Z</time></trkpt><trkpt lat="43.4851844" lon="11.7959639"><ele>254.0</ele><time>2026-04-12T07:17:39.034Z</time></trkpt><trkpt lat="43.4852662" lon="11.7958927"><ele>254.5</ele><time>2026-04-12T07:17:40.033Z</time></trkpt><trkpt lat="43.4853554" lon="11.795799"><ele>255.0</ele><time>2026-04-12T07:17:41.033Z</time></trkpt><trkpt lat="43.4854507" lon="11.79568"><ele>255.5</ele><time>2026-04-12T07:17:42.033Z</time></trkpt><trkpt lat="43.4855484" lon="11.7955303"><ele>256.0</ele><time>2026-04-12T07:17:43.033Z</time></trkpt><trkpt lat="43.4856449" lon="11.7953569"><ele>256.0</ele><time>2026-04-12T07:17:44.033Z</time></trkpt><trkpt lat="43.4857403" lon="11.795175"><ele>256.0</ele><time>2026-04-12T07:17:45.033Z</time></trkpt><trkpt lat="43.4858297" lon="11.7950024"><ele>256.0</ele><time>2026-04-12T07:17:46.033Z</time></trkpt><trkpt lat="43.485916" lon="11.7948505"><ele>256.0</ele><time>2026-04-12T07:17:47.033Z</time></trkpt><trkpt lat="43.4860068" lon="11.7947159"><ele>256.0</ele><time>2026-04-12T07:17:48.033Z</time></trkpt><trkpt lat="43.4861155" lon="11.7945961"><ele>256.0</ele><time>2026-04-12T07:17:49.033Z</time></trkpt><trkpt lat="43.486247" lon="11.7944956"><ele>256.0</ele><time>2026-04-12T07:17:50.033Z</time></trkpt><trkpt lat="43.4863926" lon="11.7944009"><ele>253.66666666666666</ele><time>2026-04-12T07:17:51.034Z</time></trkpt><trkpt lat="43.4865485" lon="11.7943052"><ele>251.33333333333331</ele><time>2026-04-12T07:17:52.034Z</time></trkpt><trkpt lat="43.4867132" lon="11.7942024"><ele>249.0</ele><time>2026-04-12T07:17:53.033Z</time></trkpt><trkpt lat="43.486884" lon="11.7941026"><ele>249.0</ele><time>2026-04-12T07:17:54.033Z</time></trkpt><trkpt lat="43.4870522" lon="11.7940117"><ele>249.0</ele><time>2026-04-12T07:17:55.033Z</time></trkpt><trkpt lat="43.4872173" lon="11.7939441"><ele>249.0</ele><time>2026-04-12T07:17:56.034Z</time></trkpt><trkpt lat="43.4873816" lon="11.7939106"><ele>248.33333333333331</ele><time>2026-04-12T07:17:57.033Z</time></trkpt><trkpt lat="43.4875527" lon="11.7939073"><ele>247.66666666666666</ele><time>2026-04-12T07:17:58.034Z</time></trkpt><trkpt lat="43.4877248" lon="11.7939235"><ele>247.0</ele><time>2026-04-12T07:17:59.033Z</time></trkpt><trkpt lat="43.4879004" lon="11.7939453"><ele>247.33333333333331</ele><time>2026-04-12T07:18:00.034Z</time></trkpt><trkpt lat="43.4880779" lon="11.793966"><ele>247.66666666666669</ele><time>2026-04-12T07:18:01.033Z</time></trkpt><trkpt lat="43.4882544" lon="11.7939892"><ele>248.0</ele><time>2026-04-12T07:18:02.033Z</time></trkpt><trkpt lat="43.4884302" lon="11.7940246"><ele>248.0</ele><time>2026-04-12T07:18:03.034Z</time></trkpt><trkpt lat="43.4886061" lon="11.794079"><ele>248.0</ele><time>2026-04-12T07:18:04.033Z</time></trkpt><trkpt lat="43.4887866" lon="11.7941462"><ele>248.0</ele><time>2026-04-12T07:18:05.034Z</time></trkpt><trkpt lat="43.4889704" lon="11.7942211"><ele>248.66666666666669</ele><time>2026-04-12T07:18:06.033Z</time></trkpt><trkpt lat="43.4891539" lon="11.794304"><ele>249.33333333333331</ele><time>2026-04-12T07:18:07.034Z</time></trkpt><trkpt lat="43.489335" lon="11.7943938"><ele>250.0</ele><time>2026-04-12T07:18:08.034Z</time></trkpt><trkpt lat="43.4895037" lon="11.7944921"><ele>250.0</ele><time>2026-04-12T07:18:09.033Z</time></trkpt><trkpt lat="43.4896611" lon="11.7945983"><ele>250.0</ele><time>2026-04-12T07:18:10.033Z</time></trkpt><trkpt lat="43.4898179" lon="11.7947083"><ele>250.0</ele><time>2026-04-12T07:18:11.033Z</time></trkpt><trkpt lat="43.4899762" lon="11.7948234"><ele>250.0</ele><time>2026-04-12T07:18:12.033Z</time></trkpt><trkpt lat="43.4901366" lon="11.7949391"><ele>250.0</ele><time>2026-04-12T07:18:13.034Z</time></trkpt><trkpt lat="43.4902953" lon="11.795054"><ele>250.0</ele><time>2026-04-12T07:18:14.033Z</time></trkpt><trkpt lat="43.490459" lon="11.795145"><ele>249.66666666666666</ele><time>2026-04-12T07:18:15.033Z</time></trkpt><trkpt lat="43.4906288" lon="11.7952098"><ele>249.33333333333331</ele><time>2026-04-12T07:18:16.033Z</time></trkpt><trkpt lat="43.4908008" lon="11.7952558"><ele>249.0</ele><time>2026-04-12T07:18:17.033Z</time></trkpt><trkpt lat="43.4909791" lon="11.7952892"><ele>249.0</ele><time>2026-04-12T07:18:18.033Z</time></trkpt><trkpt lat="43.4911651" lon="11.7953222"><ele>249.0</ele><time>2026-04-12T07:18:19.033Z</time></trkpt><trkpt lat="43.4913509" lon="11.795356"><ele>249.0</ele><time>2026-04-12T07:18:20.034Z</time></trkpt><trkpt lat="43.4915416" lon="11.7953914"><ele>249.33333333333331</ele><time>2026-04-12T07:18:21.033Z</time></trkpt><trkpt lat="43.4917386" lon="11.79543"><ele>249.66666666666666</ele><time>2026-04-12T07:18:22.033Z</time></trkpt><trkpt lat="43.4919316" lon="11.7954653"><ele>250.0</ele><time>2026-04-12T07:18:23.034Z</time></trkpt><trkpt lat="43.492127" lon="11.7954936"><ele>250.66666666666666</ele><time>2026-04-12T07:18:24.033Z</time></trkpt><trkpt lat="43.4923207" lon="11.7955131"><ele>251.33333333333331</ele><time>2026-04-12T07:18:25.033Z</time></trkpt><trkpt lat="43.492521" lon="11.7955234"><ele>252.0</ele><time>2026-04-12T07:18:26.033Z</time></trkpt><trkpt lat="43.4927154" lon="11.7955269"><ele>252.0</ele><time>2026-04-12T07:18:27.033Z</time></trkpt><trkpt lat="43.4929044" lon="11.7955366"><ele>252.0</ele><time>2026-04-12T07:18:28.034Z</time></trkpt><trkpt lat="43.4930817" lon="11.7955484"><ele>252.0</ele><time>2026-04-12T07:18:29.034Z</time></trkpt><trkpt lat="43.4932613" lon="11.7955617"><ele>251.66666666666669</ele><time>2026-04-12T07:18:30.034Z</time></trkpt><trkpt lat="43.4934478" lon="11.7955758"><ele>251.33333333333334</ele><time>2026-04-12T07:18:31.033Z</time></trkpt><trkpt lat="43.4936301" lon="11.7955834"><ele>251.0</ele><time>2026-04-12T07:18:32.033Z</time></trkpt><trkpt lat="43.4938033" lon="11.7955861"><ele>250.0</ele><time>2026-04-12T07:18:33.034Z</time></trkpt><trkpt lat="43.4939741" lon="11.7955857"><ele>249.0</ele><time>2026-04-12T07:18:34.034Z</time></trkpt><trkpt lat="43.4941456" lon="11.7955859"><ele>248.0</ele><time>2026-04-12T07:18:35.033Z</time></trkpt><trkpt lat="43.4943233" lon="11.7955872"><ele>248.0</ele><time>2026-04-12T07:18:36.033Z</time></trkpt><trkpt lat="43.4945033" lon="11.7955863"><ele>248.0</ele><time>2026-04-12T07:18:37.033Z</time></trkpt><trkpt lat="43.4946829" lon="11.7955834"><ele>248.0</ele><time>2026-04-12T07:18:38.034Z</time></trkpt><trkpt lat="43.4948706" lon="11.7955864"><ele>247.0</ele><time>2026-04-12T07:18:39.033Z</time></trkpt><trkpt lat="43.4950605" lon="11.7955895"><ele>246.0</ele><time>2026-04-12T07:18:40.033Z</time></trkpt><trkpt lat="43.4952447" lon="11.7955898"><ele>245.0</ele><time>2026-04-12T07:18:41.033Z</time></trkpt><trkpt lat="43.4954232" lon="11.795572"><ele>242.33333333333334</ele><time>2026-04-12T07:18:42.034Z</time></trkpt><trkpt lat="43.4955967" lon="11.7955294"><ele>239.66666666666669</ele><time>2026-04-12T07:18:43.033Z</time></trkpt><trkpt lat="43.4957587" lon="11.7954565"><ele>237.0</ele><time>2026-04-12T07:18:44.034Z</time></trkpt><trkpt lat="43.4959077" lon="11.7953591"><ele>237.0</ele><time>2026-04-12T07:18:45.033Z</time></trkpt><trkpt lat="43.4960367" lon="11.7952221"><ele>237.0</ele><time>2026-04-12T07:18:46.033Z</time></trkpt><trkpt lat="43.4961568" lon="11.7950727"><ele>237.0</ele><time>2026-04-12T07:18:47.033Z</time></trkpt><trkpt lat="43.4962779" lon="11.7949338"><ele>231.66666666666669</ele><time>2026-04-12T07:18:48.033Z</time></trkpt><trkpt lat="43.4964051" lon="11.7948054"><ele>226.33333333333334</ele><time>2026-04-12T07:18:49.034Z</time></trkpt><trkpt lat="43.4965367" lon="11.7946857"><ele>221.0</ele><time>2026-04-12T07:18:50.034Z</time></trkpt><trkpt lat="43.4966694" lon="11.7945738"><ele>221.0</ele><time>2026-04-12T07:18:51.034Z</time></trkpt><trkpt lat="43.4967993" lon="11.7944725"><ele>221.0</ele><time>2026-04-12T07:18:52.033Z</time></trkpt><trkpt lat="43.4969209" lon="11.7943769"><ele>221.0</ele><time>2026-04-12T07:18:53.033Z</time></trkpt><trkpt lat="43.4970321" lon="11.7942841"><ele>221.0</ele><time>2026-04-12T07:18:54.033Z</time></trkpt><trkpt lat="43.4971353" lon="11.7941991"><ele>219.20000000000002</ele><time>2026-04-12T07:18:55.034Z</time></trkpt><trkpt lat="43.4972302" lon="11.7941139"><ele>217.40000000000003</ele><time>2026-04-12T07:18:56.033Z</time></trkpt><trkpt lat="43.4973109" lon="11.7940216"><ele>215.6</ele><time>2026-04-12T07:18:57.033Z</time></trkpt><trkpt lat="43.4973765" lon="11.7939285"><ele>213.8</ele><time>2026-04-12T07:18:58.034Z</time></trkpt><trkpt lat="43.4974363" lon="11.7938399"><ele>212.0</ele><time>2026-04-12T07:18:59.034Z</time></trkpt><trkpt lat="43.4974981" lon="11.7937673"><ele>212.0</ele><time>2026-04-12T07:19:00.034Z</time></trkpt><trkpt lat="43.4975623" lon="11.79372"><ele>212.0</ele><time>2026-04-12T07:19:01.033Z</time></trkpt><trkpt lat="43.4976251" lon="11.7936983"><ele>212.0</ele><time>2026-04-12T07:19:02.033Z</time></trkpt><trkpt lat="43.4977479" lon="11.7936907"><ele>212.0</ele><time>2026-04-12T07:19:04.033Z</time></trkpt><trkpt lat="43.49782" lon="11.7936968"><ele>212.0</ele><time>2026-04-12T07:19:06.034Z</time></trkpt><trkpt lat="43.4980204" lon="11.7937907"><ele>211.2</ele><time>2026-04-12T07:19:18.033Z</time></trkpt><trkpt lat="43.4981014" lon="11.7938368"><ele>210.39999999999998</ele><time>2026-04-12T07:19:19.034Z</time></trkpt><trkpt lat="43.4981688" lon="11.7938876"><ele>209.60000000000002</ele><time>2026-04-12T07:19:20.034Z</time></trkpt><trkpt lat="43.4982285" lon="11.7939309"><ele>208.8</ele><time>2026-04-12T07:19:21.033Z</time></trkpt><trkpt lat="43.4983294" lon="11.793995"><ele>208.0</ele><time>2026-04-12T07:19:23.033Z</time></trkpt><trkpt lat="43.498413" lon="11.7941069"><ele>207.99999999999997</ele><time>2026-04-12T07:19:25.034Z</time></trkpt><trkpt lat="43.4984554" lon="11.7941948"><ele>208.0</ele><time>2026-04-12T07:19:26.033Z</time></trkpt><trkpt lat="43.4984897" lon="11.7943003"><ele>208.0</ele><time>2026-04-12T07:19:27.033Z</time></trkpt><trkpt lat="43.4985158" lon="11.7944199"><ele>208.0</ele><time>2026-04-12T07:19:28.033Z</time></trkpt><trkpt lat="43.4985341" lon="11.7945402"><ele>207.99999999999997</ele><time>2026-04-12T07:19:29.034Z</time></trkpt><trkpt lat="43.4985458" lon="11.7946517"><ele>208.0</ele><time>2026-04-12T07:19:30.034Z</time></trkpt><trkpt lat="43.4985511" lon="11.7947683"><ele>208.0</ele><time>2026-04-12T07:19:31.033Z</time></trkpt><trkpt lat="43.4985479" lon="11.7948962"><ele>208.0</ele><time>2026-04-12T07:19:32.033Z</time></trkpt><trkpt lat="43.4985386" lon="11.7950281"><ele>208.0</ele><time>2026-04-12T07:19:33.033Z</time></trkpt><trkpt lat="43.4985206" lon="11.7951566"><ele>208.0</ele><time>2026-04-12T07:19:34.033Z</time></trkpt><trkpt lat="43.4984977" lon="11.7952844"><ele>208.0</ele><time>2026-04-12T07:19:35.033Z</time></trkpt><trkpt lat="43.4984787" lon="11.7954116"><ele>208.0</ele><time>2026-04-12T07:19:36.033Z</time></trkpt><trkpt lat="43.4984562" lon="11.7955334"><ele>208.0</ele><time>2026-04-12T07:19:37.034Z</time></trkpt><trkpt lat="43.4984312" lon="11.7956524"><ele>208.0</ele><time>2026-04-12T07:19:38.033Z</time></trkpt><trkpt lat="43.4984029" lon="11.7957812"><ele>208.0</ele><time>2026-04-12T07:19:39.033Z</time></trkpt><trkpt lat="43.4983763" lon="11.7959084"><ele>208.0</ele><time>2026-04-12T07:19:40.033Z</time></trkpt><trkpt lat="43.498359" lon="11.7960329"><ele>208.2</ele><time>2026-04-12T07:19:41.033Z</time></trkpt><trkpt lat="43.4983554" lon="11.7961574"><ele>208.4</ele><time>2026-04-12T07:19:42.033Z</time></trkpt><trkpt lat="43.4983653" lon="11.7962781"><ele>208.6</ele><time>2026-04-12T07:19:43.033Z</time></trkpt><trkpt lat="43.4983919" lon="11.7964042"><ele>208.79999999999998</ele><time>2026-04-12T07:19:44.033Z</time></trkpt><trkpt lat="43.4984132" lon="11.7965334"><ele>209.0</ele><time>2026-04-12T07:19:45.033Z</time></trkpt><trkpt lat="43.4984355" lon="11.7966637"><ele>209.0</ele><time>2026-04-12T07:19:46.033Z</time></trkpt><trkpt lat="43.498455" lon="11.7968006"><ele>209.0</ele><time>2026-04-12T07:19:47.034Z</time></trkpt><trkpt lat="43.4984674" lon="11.7969448"><ele>209.0</ele><time>2026-04-12T07:19:48.034Z</time></trkpt><trkpt lat="43.4984682" lon="11.7970866"><ele>209.0</ele><time>2026-04-12T07:19:49.033Z</time></trkpt><trkpt lat="43.4984643" lon="11.7972283"><ele>209.0</ele><time>2026-04-12T07:19:50.033Z</time></trkpt><trkpt lat="43.4984564" lon="11.7973776"><ele>208.75</ele><time>2026-04-12T07:19:51.033Z</time></trkpt><trkpt lat="43.498445" lon="11.7975319"><ele>208.5</ele><time>2026-04-12T07:19:52.034Z</time></trkpt><trkpt lat="43.4984397" lon="11.7976867"><ele>208.25</ele><time>2026-04-12T07:19:53.033Z</time></trkpt><trkpt lat="43.4984286" lon="11.7978549"><ele>208.0</ele><time>2026-04-12T07:19:54.033Z</time></trkpt><trkpt lat="43.4984195" lon="11.7980249"><ele>208.0</ele><time>2026-04-12T07:19:55.033Z</time></trkpt><trkpt lat="43.4984147" lon="11.7981888"><ele>208.0</ele><time>2026-04-12T07:19:56.033Z</time></trkpt><trkpt lat="43.4984123" lon="11.7983558"><ele>208.0</ele><time>2026-04-12T07:19:57.033Z</time></trkpt><trkpt lat="43.4984028" lon="11.7985281"><ele>208.0</ele><time>2026-04-12T07:19:58.033Z</time></trkpt><trkpt lat="43.4983903" lon="11.7986994"><ele>207.25</ele><time>2026-04-12T07:19:59.034Z</time></trkpt><trkpt lat="43.498379" lon="11.7988682"><ele>206.5</ele><time>2026-04-12T07:20:00.033Z</time></trkpt><trkpt lat="43.4983627" lon="11.7990412"><ele>205.75</ele><time>2026-04-12T07:20:01.034Z</time></trkpt><trkpt lat="43.4983461" lon="11.7992121"><ele>205.0</ele><time>2026-04-12T07:20:02.033Z</time></trkpt><trkpt lat="43.4983331" lon="11.7993846"><ele>205.0</ele><time>2026-04-12T07:20:03.033Z</time></trkpt><trkpt lat="43.4983172" lon="11.7995553"><ele>205.0</ele><time>2026-04-12T07:20:04.034Z</time></trkpt><trkpt lat="43.4983038" lon="11.7997278"><ele>205.0</ele><time>2026-04-12T07:20:05.034Z</time></trkpt><trkpt lat="43.4982897" lon="11.7998961"><ele>205.0</ele><time>2026-04-12T07:20:06.033Z</time></trkpt><trkpt lat="43.4982661" lon="11.8000618"><ele>204.75</ele><time>2026-04-12T07:20:07.033Z</time></trkpt><trkpt lat="43.498237" lon="11.8002258"><ele>204.5</ele><time>2026-04-12T07:20:08.033Z</time></trkpt><trkpt lat="43.4982025" lon="11.8003904"><ele>204.25</ele><time>2026-04-12T07:20:09.034Z</time></trkpt><trkpt lat="43.4981705" lon="11.8005612"><ele>204.0</ele><time>2026-04-12T07:20:10.034Z</time></trkpt><trkpt lat="43.4981424" lon="11.8007359"><ele>204.0</ele><time>2026-04-12T07:20:11.034Z</time></trkpt><trkpt lat="43.4981193" lon="11.8009104"><ele>204.0</ele><time>2026-04-12T07:20:12.033Z</time></trkpt><trkpt lat="43.4980988" lon="11.8010818"><ele>204.0</ele><time>2026-04-12T07:20:13.033Z</time></trkpt><trkpt lat="43.4980702" lon="11.8012523"><ele>204.0</ele><time>2026-04-12T07:20:14.033Z</time></trkpt><trkpt lat="43.4980332" lon="11.8014085"><ele>204.0</ele><time>2026-04-12T07:20:15.033Z</time></trkpt><trkpt lat="43.4979802" lon="11.8015636"><ele>204.0</ele><time>2026-04-12T07:20:16.033Z</time></trkpt><trkpt lat="43.4979204" lon="11.8017197"><ele>204.0</ele><time>2026-04-12T07:20:17.033Z</time></trkpt><trkpt lat="43.4978611" lon="11.8018727"><ele>204.0</ele><time>2026-04-12T07:20:18.033Z</time></trkpt><trkpt lat="43.4978062" lon="11.8020167"><ele>204.79999999999998</ele><time>2026-04-12T07:20:19.033Z</time></trkpt><trkpt lat="43.4977567" lon="11.8021496"><ele>205.6</ele><time>2026-04-12T07:20:20.033Z</time></trkpt><trkpt lat="43.4977082" lon="11.8022786"><ele>206.4</ele><time>2026-04-12T07:20:21.033Z</time></trkpt><trkpt lat="43.4976608" lon="11.8024075"><ele>207.2</ele><time>2026-04-12T07:20:22.033Z</time></trkpt><trkpt lat="43.4976119" lon="11.8025371"><ele>208.0</ele><time>2026-04-12T07:20:23.033Z</time></trkpt><trkpt lat="43.4975659" lon="11.8026493"><ele>207.83333333333331</ele><time>2026-04-12T07:20:24.033Z</time></trkpt><trkpt lat="43.4975195" lon="11.8027486"><ele>207.66666666666666</ele><time>2026-04-12T07:20:25.034Z</time></trkpt><trkpt lat="43.4974751" lon="11.802846"><ele>207.5</ele><time>2026-04-12T07:20:26.033Z</time></trkpt><trkpt lat="43.497435" lon="11.802925"><ele>207.33333333333331</ele><time>2026-04-12T07:20:27.033Z</time></trkpt><trkpt lat="43.4974035" lon="11.8030003"><ele>207.16666666666666</ele><time>2026-04-12T07:20:28.034Z</time></trkpt><trkpt lat="43.497355" lon="11.8031312"><ele>207.0</ele><time>2026-04-12T07:20:30.034Z</time></trkpt><trkpt lat="43.4973328" lon="11.8032779"><ele>207.0</ele><time>2026-04-12T07:20:32.033Z</time></trkpt><trkpt lat="43.4973289" lon="11.8033691"><ele>207.0</ele><time>2026-04-12T07:20:33.033Z</time></trkpt><trkpt lat="43.4973237" lon="11.8035382"><ele>207.0</ele><time>2026-04-12T07:20:35.033Z</time></trkpt><trkpt lat="43.4973205" lon="11.8036269"><ele>207.0</ele><time>2026-04-12T07:20:36.033Z</time></trkpt><trkpt lat="43.4973322" lon="11.8037153"><ele>207.0</ele><time>2026-04-12T07:20:37.033Z</time></trkpt><trkpt lat="43.4973594" lon="11.8037989"><ele>207.0</ele><time>2026-04-12T07:20:38.033Z</time></trkpt><trkpt lat="43.4974058" lon="11.8038854"><ele>206.66666666666666</ele><time>2026-04-12T07:20:39.033Z</time></trkpt><trkpt lat="43.4974528" lon="11.8039566"><ele>206.33333333333331</ele><time>2026-04-12T07:20:40.033Z</time></trkpt><trkpt lat="43.4975368" lon="11.8040673"><ele>206.0</ele><time>2026-04-12T07:20:42.033Z</time></trkpt><trkpt lat="43.4976113" lon="11.8041755"><ele>205.66666666666666</ele><time>2026-04-12T07:20:44.033Z</time></trkpt><trkpt lat="43.4976531" lon="11.8042411"><ele>205.33333333333331</ele><time>2026-04-12T07:20:45.034Z</time></trkpt><trkpt lat="43.4976956" lon="11.8043218"><ele>205.0</ele><time>2026-04-12T07:20:46.033Z</time></trkpt><trkpt lat="43.4977389" lon="11.8044078"><ele>204.99999999999997</ele><time>2026-04-12T07:20:47.034Z</time></trkpt><trkpt lat="43.4977789" lon="11.8044852"><ele>205.0</ele><time>2026-04-12T07:20:48.033Z</time></trkpt><trkpt lat="43.4978444" lon="11.8046152"><ele>205.0</ele><time>2026-04-12T07:20:50.033Z</time></trkpt><trkpt lat="43.4978957" lon="11.8047115"><ele>205.0</ele><time>2026-04-12T07:20:52.033Z</time></trkpt><trkpt lat="43.49796" lon="11.8047736"><ele>204.99999999999997</ele><time>2026-04-12T07:20:54.033Z</time></trkpt><trkpt lat="43.4980477" lon="11.8047472"><ele>205.0</ele><time>2026-04-12T07:20:56.033Z</time></trkpt><trkpt lat="43.4981289" lon="11.804651"><ele>206.0</ele><time>2026-04-12T07:20:58.033Z</time></trkpt><trkpt lat="43.4982213" lon="11.804595"><ele>207.0</ele><time>2026-04-12T07:21:00.033Z</time></trkpt><trkpt lat="43.4983086" lon="11.8046097"><ele>208.0</ele><time>2026-04-12T07:21:02.033Z</time></trkpt><trkpt lat="43.4983978" lon="11.8047113"><ele>209.0</ele><time>2026-04-12T07:21:04.034Z</time></trkpt><trkpt lat="43.498473" lon="11.8048389"><ele>210.0</ele><time>2026-04-12T07:21:06.034Z</time></trkpt><trkpt lat="43.4985432" lon="11.804956"><ele>210.0</ele><time>2026-04-12T07:21:08.033Z</time></trkpt><trkpt lat="43.4986154" lon="11.8050566"><ele>210.0</ele><time>2026-04-12T07:21:10.034Z</time></trkpt><trkpt lat="43.4986799" lon="11.8051567"><ele>210.0</ele><time>2026-04-12T07:21:12.033Z</time></trkpt><trkpt lat="43.4987636" lon="11.8052206"><ele>210.0</ele><time>2026-04-12T07:21:14.033Z</time></trkpt><trkpt lat="43.4988647" lon="11.805234"><ele>210.0</ele><time>2026-04-12T07:21:16.034Z</time></trkpt><trkpt lat="43.4989548" lon="11.8051959"><ele>209.33333333333334</ele><time>2026-04-12T07:21:18.034Z</time></trkpt><trkpt lat="43.4990278" lon="11.8051852"><ele>208.66666666666669</ele><time>2026-04-12T07:21:20.034Z</time></trkpt><trkpt lat="43.4990909" lon="11.8052078"><ele>208.0</ele><time>2026-04-12T07:21:22.033Z</time></trkpt><trkpt lat="43.4991556" lon="11.8052761"><ele>207.33333333333334</ele><time>2026-04-12T07:21:25.033Z</time></trkpt><trkpt lat="43.4992106" lon="11.8053462"><ele>206.66666666666669</ele><time>2026-04-12T07:21:28.033Z</time></trkpt><trkpt lat="43.499288" lon="11.8054245"><ele>206.0</ele><time>2026-04-12T07:21:31.033Z</time></trkpt><trkpt lat="43.4993427" lon="11.8054866"><ele>206.00000000000003</ele><time>2026-04-12T07:21:34.033Z</time></trkpt><trkpt lat="43.4994497" lon="11.8054509"><ele>206.0</ele><time>2026-04-12T07:21:37.033Z</time></trkpt><trkpt lat="43.499552" lon="11.8053701"><ele>206.0</ele><time>2026-04-12T07:21:39.034Z</time></trkpt><trkpt lat="43.4996085" lon="11.8053191"><ele>206.0</ele><time>2026-04-12T07:21:40.034Z</time></trkpt><trkpt lat="43.4996609" lon="11.8052661"><ele>206.00000000000003</ele><time>2026-04-12T07:21:41.033Z</time></trkpt><trkpt lat="43.4997154" lon="11.8052104"><ele>206.0</ele><time>2026-04-12T07:21:42.034Z</time></trkpt><trkpt lat="43.4997652" lon="11.8051485"><ele>206.14285714285714</ele><time>2026-04-12T07:21:43.033Z</time></trkpt><trkpt lat="43.4998123" lon="11.8050799"><ele>206.28571428571428</ele><time>2026-04-12T07:21:44.034Z</time></trkpt><trkpt lat="43.4998639" lon="11.8050112"><ele>206.42857142857144</ele><time>2026-04-12T07:21:45.033Z</time></trkpt><trkpt lat="43.4999149" lon="11.8049376"><ele>206.57142857142856</ele><time>2026-04-12T07:21:46.034Z</time></trkpt><trkpt lat="43.4999688" lon="11.8048579"><ele>206.71428571428572</ele><time>2026-04-12T07:21:47.033Z</time></trkpt><trkpt lat="43.5000222" lon="11.8047865"><ele>206.85714285714286</ele><time>2026-04-12T07:21:48.033Z</time></trkpt><trkpt lat="43.5000791" lon="11.8047158"><ele>207.0</ele><time>2026-04-12T07:21:49.033Z</time></trkpt><trkpt lat="43.5001398" lon="11.8046464"><ele>207.0</ele><time>2026-04-12T07:21:50.034Z</time></trkpt><trkpt lat="43.5002082" lon="11.8045812"><ele>207.0</ele><time>2026-04-12T07:21:51.034Z</time></trkpt><trkpt lat="43.5002813" lon="11.8045253"><ele>207.0</ele><time>2026-04-12T07:21:52.034Z</time></trkpt><trkpt lat="43.5003594" lon="11.8044842"><ele>207.0</ele><time>2026-04-12T07:21:53.033Z</time></trkpt><trkpt lat="43.5004402" lon="11.8044591"><ele>207.0</ele><time>2026-04-12T07:21:54.033Z</time></trkpt><trkpt lat="43.5005194" lon="11.8044378"><ele>207.0</ele><time>2026-04-12T07:21:55.034Z</time></trkpt><trkpt lat="43.5005942" lon="11.8044114"><ele>207.0</ele><time>2026-04-12T07:21:56.034Z</time></trkpt><trkpt lat="43.5006638" lon="11.804376"><ele>207.0</ele><time>2026-04-12T07:21:57.034Z</time></trkpt><trkpt lat="43.5007283" lon="11.8043392"><ele>207.0</ele><time>2026-04-12T07:21:58.034Z</time></trkpt><trkpt lat="43.5008387" lon="11.80429"><ele>207.0</ele><time>2026-04-12T07:22:00.033Z</time></trkpt><trkpt lat="43.5009291" lon="11.8042851"><ele>207.0</ele><time>2026-04-12T07:22:02.033Z</time></trkpt><trkpt lat="43.5009991" lon="11.8042865"><ele>207.0</ele><time>2026-04-12T07:22:04.033Z</time></trkpt><trkpt lat="43.5010579" lon="11.8042254"><ele>207.0</ele><time>2026-04-12T07:22:06.034Z</time></trkpt><trkpt lat="43.5010984" lon="11.8040452"><ele>207.0</ele><time>2026-04-12T07:22:08.033Z</time></trkpt><trkpt lat="43.5011124" lon="11.803918"><ele>207.0</ele><time>2026-04-12T07:22:09.034Z</time></trkpt><trkpt lat="43.5011326" lon="11.8037846"><ele>207.0</ele><time>2026-04-12T07:22:10.033Z</time></trkpt><trkpt lat="43.5011577" lon="11.8036475"><ele>207.0</ele><time>2026-04-12T07:22:11.033Z</time></trkpt><trkpt lat="43.5011892" lon="11.8035002"><ele>207.0</ele><time>2026-04-12T07:22:12.033Z</time></trkpt><trkpt lat="43.5012257" lon="11.8033647"><ele>207.0</ele><time>2026-04-12T07:22:13.033Z</time></trkpt><trkpt lat="43.5012768" lon="11.8032285"><ele>207.0</ele><time>2026-04-12T07:22:14.033Z</time></trkpt><trkpt lat="43.5013408" lon="11.8030893"><ele>207.0</ele><time>2026-04-12T07:22:15.033Z</time></trkpt><trkpt lat="43.5014097" lon="11.8029569"><ele>207.0</ele><time>2026-04-12T07:22:16.034Z</time></trkpt><trkpt lat="43.5014817" lon="11.8028401"><ele>207.0</ele><time>2026-04-12T07:22:17.033Z</time></trkpt><trkpt lat="43.5015564" lon="11.8027362"><ele>207.0</ele><time>2026-04-12T07:22:18.033Z</time></trkpt><trkpt lat="43.5016355" lon="11.8026357"><ele>207.0</ele><time>2026-04-12T07:22:19.033Z</time></trkpt><trkpt lat="43.5017182" lon="11.8025386"><ele>207.0</ele><time>2026-04-12T07:22:20.033Z</time></trkpt><trkpt lat="43.5018063" lon="11.8024549"><ele>206.6</ele><time>2026-04-12T07:22:21.033Z</time></trkpt><trkpt lat="43.5018916" lon="11.802384"><ele>206.2</ele><time>2026-04-12T07:22:22.033Z</time></trkpt><trkpt lat="43.5019845" lon="11.8023356"><ele>205.8</ele><time>2026-04-12T07:22:23.033Z</time></trkpt><trkpt lat="43.5020827" lon="11.8023085"><ele>205.4</ele><time>2026-04-12T07:22:24.033Z</time></trkpt><trkpt lat="43.5021965" lon="11.802319"><ele>205.0</ele><time>2026-04-12T07:22:25.034Z</time></trkpt><trkpt lat="43.5023222" lon="11.802369"><ele>204.75</ele><time>2026-04-12T07:22:26.033Z</time></trkpt><trkpt lat="43.5024517" lon="11.8024356"><ele>204.5</ele><time>2026-04-12T07:22:27.033Z</time></trkpt><trkpt lat="43.5025661" lon="11.8024964"><ele>204.25</ele><time>2026-04-12T07:22:28.033Z</time></trkpt><trkpt lat="43.5026663" lon="11.8025481"><ele>204.0</ele><time>2026-04-12T07:22:29.034Z</time></trkpt><trkpt lat="43.5027521" lon="11.8025934"><ele>204.0</ele><time>2026-04-12T07:22:30.033Z</time></trkpt><trkpt lat="43.5028306" lon="11.802636"><ele>204.0</ele><time>2026-04-12T07:22:31.034Z</time></trkpt><trkpt lat="43.5029092" lon="11.8026778"><ele>204.0</ele><time>2026-04-12T07:22:32.033Z</time></trkpt><trkpt lat="43.5029819" lon="11.8027117"><ele>204.0</ele><time>2026-04-12T07:22:33.033Z</time></trkpt><trkpt lat="43.5030593" lon="11.8027398"><ele>204.0</ele><time>2026-04-12T07:22:34.034Z</time></trkpt><trkpt lat="43.5031372" lon="11.8027553"><ele>204.0</ele><time>2026-04-12T07:22:35.033Z</time></trkpt><trkpt lat="43.503213" lon="11.8027578"><ele>204.0</ele><time>2026-04-12T07:22:36.033Z</time></trkpt><trkpt lat="43.5032954" lon="11.8027554"><ele>204.0</ele><time>2026-04-12T07:22:37.033Z</time></trkpt><trkpt lat="43.5033758" lon="11.8027399"><ele>204.0</ele><time>2026-04-12T07:22:38.033Z</time></trkpt><trkpt lat="43.5034552" lon="11.8027163"><ele>204.0</ele><time>2026-04-12T07:22:39.033Z</time></trkpt><trkpt lat="43.5035393" lon="11.8026799"><ele>204.0</ele><time>2026-04-12T07:22:40.034Z</time></trkpt><trkpt lat="43.5036216" lon="11.8026387"><ele>204.0</ele><time>2026-04-12T07:22:41.033Z</time></trkpt><trkpt lat="43.5036985" lon="11.8025954"><ele>204.16666666666666</ele><time>2026-04-12T07:22:42.033Z</time></trkpt><trkpt lat="43.5037799" lon="11.8025512"><ele>204.33333333333331</ele><time>2026-04-12T07:22:43.033Z</time></trkpt><trkpt lat="43.5038619" lon="11.8025047"><ele>204.5</ele><time>2026-04-12T07:22:44.033Z</time></trkpt><trkpt lat="43.5039465" lon="11.8024559"><ele>204.66666666666666</ele><time>2026-04-12T07:22:45.034Z</time></trkpt><trkpt lat="43.5040304" lon="11.8024059"><ele>204.83333333333331</ele><time>2026-04-12T07:22:46.033Z</time></trkpt><trkpt lat="43.5041099" lon="11.8023625"><ele>205.0</ele><time>2026-04-12T07:22:47.034Z</time></trkpt><trkpt lat="43.5041839" lon="11.8023205"><ele>204.99999999999997</ele><time>2026-04-12T07:22:48.033Z</time></trkpt><trkpt lat="43.5042513" lon="11.8022791"><ele>205.0</ele><time>2026-04-12T07:22:49.033Z</time></trkpt><trkpt lat="43.5043171" lon="11.8022375"><ele>205.0</ele><time>2026-04-12T07:22:50.033Z</time></trkpt><trkpt lat="43.5043763" lon="11.802202"><ele>205.0</ele><time>2026-04-12T07:22:51.033Z</time></trkpt><trkpt lat="43.5044687" lon="11.8021529"><ele>204.99999999999997</ele><time>2026-04-12T07:22:53.033Z</time></trkpt><trkpt lat="43.5045344" lon="11.8021096"><ele>205.0</ele><time>2026-04-12T07:22:55.033Z</time></trkpt><trkpt lat="43.504617" lon="11.8020586"><ele>205.4</ele><time>2026-04-12T07:22:58.033Z</time></trkpt><trkpt lat="43.5046849" lon="11.8020126"><ele>205.8</ele><time>2026-04-12T07:23:01.033Z</time></trkpt><trkpt lat="43.50482" lon="11.8019603"><ele>206.2</ele><time>2026-04-12T07:23:35.033Z</time></trkpt><trkpt lat="43.5049143" lon="11.8018731"><ele>206.6</ele><time>2026-04-12T07:23:36.033Z</time></trkpt><trkpt lat="43.5050177" lon="11.8018122"><ele>207.0</ele><time>2026-04-12T07:23:37.034Z</time></trkpt><trkpt lat="43.5051166" lon="11.8017494"><ele>207.0</ele><time>2026-04-12T07:23:38.033Z</time></trkpt><trkpt lat="43.5052166" lon="11.8016937"><ele>207.0</ele><time>2026-04-12T07:23:39.033Z</time></trkpt><trkpt lat="43.5053182" lon="11.8016327"><ele>207.0</ele><time>2026-04-12T07:23:40.034Z</time></trkpt><trkpt lat="43.5054235" lon="11.8015687"><ele>207.0</ele><time>2026-04-12T07:23:41.033Z</time></trkpt><trkpt lat="43.5055322" lon="11.8015015"><ele>207.0</ele><time>2026-04-12T07:23:42.033Z</time></trkpt><trkpt lat="43.505642" lon="11.8014391"><ele>207.0</ele><time>2026-04-12T07:23:43.033Z</time></trkpt><trkpt lat="43.5057525" lon="11.8013762"><ele>207.0</ele><time>2026-04-12T07:23:44.033Z</time></trkpt><trkpt lat="43.5058529" lon="11.8013084"><ele>207.0</ele><time>2026-04-12T07:23:45.034Z</time></trkpt><trkpt lat="43.5059406" lon="11.8012159"><ele>207.0</ele><time>2026-04-12T07:23:46.034Z</time></trkpt><trkpt lat="43.506014" lon="11.8011016"><ele>207.0</ele><time>2026-04-12T07:23:47.034Z</time></trkpt><trkpt lat="43.5060628" lon="11.8009608"><ele>207.0</ele><time>2026-04-12T07:23:48.034Z</time></trkpt><trkpt lat="43.5060891" lon="11.8008024"><ele>207.0</ele><time>2026-04-12T07:23:49.033Z</time></trkpt><trkpt lat="43.5060927" lon="11.800622"><ele>206.25</ele><time>2026-04-12T07:23:50.033Z</time></trkpt><trkpt lat="43.5060934" lon="11.8004323"><ele>205.5</ele><time>2026-04-12T07:23:51.033Z</time></trkpt><trkpt lat="43.5061003" lon="11.8002525"><ele>204.75</ele><time>2026-04-12T07:23:52.034Z</time></trkpt><trkpt lat="43.5061027" lon="11.8000703"><ele>204.0</ele><time>2026-04-12T07:23:53.033Z</time></trkpt><trkpt lat="43.5061044" lon="11.7998918"><ele>204.0</ele><time>2026-04-12T07:23:54.033Z</time></trkpt><trkpt lat="43.5060946" lon="11.7997155"><ele>204.0</ele><time>2026-04-12T07:23:55.033Z</time></trkpt><trkpt lat="43.5060679" lon="11.7995551"><ele>204.0</ele><time>2026-04-12T07:23:56.034Z</time></trkpt><trkpt lat="43.5060205" lon="11.7994091"><ele>204.0</ele><time>2026-04-12T07:23:57.033Z</time></trkpt><trkpt lat="43.5059467" lon="11.7992802"><ele>204.16666666666666</ele><time>2026-04-12T07:23:58.033Z</time></trkpt><trkpt lat="43.5058776" lon="11.7991652"><ele>204.33333333333331</ele><time>2026-04-12T07:23:59.033Z</time></trkpt><trkpt lat="43.5058238" lon="11.7990525"><ele>204.5</ele><time>2026-04-12T07:24:00.034Z</time></trkpt><trkpt lat="43.5058007" lon="11.7989441"><ele>204.66666666666666</ele><time>2026-04-12T07:24:01.033Z</time></trkpt><trkpt lat="43.5058039" lon="11.7988475"><ele>204.83333333333331</ele><time>2026-04-12T07:24:02.034Z</time></trkpt><trkpt lat="43.5058362" lon="11.7987534"><ele>205.0</ele><time>2026-04-12T07:24:03.033Z</time></trkpt><trkpt lat="43.5058917" lon="11.7986728"><ele>205.0</ele><time>2026-04-12T07:24:04.033Z</time></trkpt><trkpt lat="43.5059744" lon="11.7986102"><ele>205.0</ele><time>2026-04-12T07:24:05.034Z</time></trkpt><trkpt lat="43.5060799" lon="11.7985545"><ele>205.0</ele><time>2026-04-12T07:24:06.033Z</time></trkpt><trkpt lat="43.5062116" lon="11.7985119"><ele>205.0</ele><time>2026-04-12T07:24:07.033Z</time></trkpt><trkpt lat="43.5063484" lon="11.7984737"><ele>205.5</ele><time>2026-04-12T07:24:08.033Z</time></trkpt><trkpt lat="43.5064881" lon="11.7984404"><ele>206.0</ele><time>2026-04-12T07:24:09.033Z</time></trkpt><trkpt lat="43.50662" lon="11.7984353"><ele>206.5</ele><time>2026-04-12T07:24:10.033Z</time></trkpt><trkpt lat="43.506741" lon="11.7984346"><ele>207.0</ele><time>2026-04-12T07:24:11.033Z</time></trkpt><trkpt lat="43.5068499" lon="11.7984237"><ele>207.0</ele><time>2026-04-12T07:24:12.034Z</time></trkpt><trkpt lat="43.5069408" lon="11.7983825"><ele>207.0</ele><time>2026-04-12T07:24:13.033Z</time></trkpt><trkpt lat="43.5069981" lon="11.7983018"><ele>207.0</ele><time>2026-04-12T07:24:14.033Z</time></trkpt><trkpt lat="43.5070339" lon="11.7981935"><ele>207.0</ele><time>2026-04-12T07:24:15.033Z</time></trkpt><trkpt lat="43.5070476" lon="11.7980625"><ele>207.0</ele><time>2026-04-12T07:24:16.033Z</time></trkpt><trkpt lat="43.5070463" lon="11.7979063"><ele>207.0</ele><time>2026-04-12T07:24:17.033Z</time></trkpt><trkpt lat="43.5070387" lon="11.7977205"><ele>207.0</ele><time>2026-04-12T07:24:18.033Z</time></trkpt><trkpt lat="43.5070262" lon="11.7975182"><ele>207.0</ele><time>2026-04-12T07:24:19.033Z</time></trkpt><trkpt lat="43.5070149" lon="11.7973047"><ele>207.0</ele><time>2026-04-12T07:24:20.033Z</time></trkpt><trkpt lat="43.507005" lon="11.7970773"><ele>207.33333333333331</ele><time>2026-04-12T07:24:21.034Z</time></trkpt><trkpt lat="43.5069981" lon="11.7968425"><ele>207.66666666666666</ele><time>2026-04-12T07:24:22.033Z</time></trkpt><trkpt lat="43.5069884" lon="11.7966012"><ele>208.0</ele><time>2026-04-12T07:24:23.033Z</time></trkpt><trkpt lat="43.5069776" lon="11.7963584"><ele>207.33333333333331</ele><time>2026-04-12T07:24:24.033Z</time></trkpt><trkpt lat="43.5069664" lon="11.7961279"><ele>206.66666666666669</ele><time>2026-04-12T07:24:25.033Z</time></trkpt><trkpt lat="43.5069567" lon="11.7958919"><ele>206.0</ele><time>2026-04-12T07:24:26.033Z</time></trkpt><trkpt lat="43.5069504" lon="11.7956578"><ele>206.0</ele><time>2026-04-12T07:24:27.034Z</time></trkpt><trkpt lat="43.5069434" lon="11.7954233"><ele>206.0</ele><time>2026-04-12T07:24:28.033Z</time></trkpt><trkpt lat="43.5069348" lon="11.7951925"><ele>206.0</ele><time>2026-04-12T07:24:29.033Z</time></trkpt><trkpt lat="43.5069254" lon="11.7949719"><ele>206.0</ele><time>2026-04-12T07:24:30.034Z</time></trkpt><trkpt lat="43.5069182" lon="11.7947603"><ele>206.0</ele><time>2026-04-12T07:24:31.033Z</time></trkpt><trkpt lat="43.5069183" lon="11.7945575"><ele>206.0</ele><time>2026-04-12T07:24:32.034Z</time></trkpt><trkpt lat="43.5069231" lon="11.7943552"><ele>206.0</ele><time>2026-04-12T07:24:33.034Z</time></trkpt><trkpt lat="43.5069455" lon="11.7941583"><ele>206.0</ele><time>2026-04-12T07:24:34.034Z</time></trkpt><trkpt lat="43.5069869" lon="11.7939686"><ele>206.0</ele><time>2026-04-12T07:24:35.034Z</time></trkpt><trkpt lat="43.5070203" lon="11.7937792"><ele>206.0</ele><time>2026-04-12T07:24:36.033Z</time></trkpt><trkpt lat="43.5070444" lon="11.7935772"><ele>206.0</ele><time>2026-04-12T07:24:37.034Z</time></trkpt><trkpt lat="43.5070636" lon="11.7933669"><ele>207.0</ele><time>2026-04-12T07:24:38.033Z</time></trkpt><trkpt lat="43.5070814" lon="11.7931557"><ele>208.0</ele><time>2026-04-12T07:24:39.033Z</time></trkpt><trkpt lat="43.5070925" lon="11.7929591"><ele>209.0</ele><time>2026-04-12T07:24:40.033Z</time></trkpt><trkpt lat="43.5070926" lon="11.7927726"><ele>210.0</ele><time>2026-04-12T07:24:41.034Z</time></trkpt><trkpt lat="43.5070686" lon="11.7925946"><ele>210.0</ele><time>2026-04-12T07:24:42.033Z</time></trkpt><trkpt lat="43.5070183" lon="11.7924214"><ele>210.0</ele><time>2026-04-12T07:24:43.033Z</time></trkpt><trkpt lat="43.5069417" lon="11.7922536"><ele>210.0</ele><time>2026-04-12T07:24:44.033Z</time></trkpt><trkpt lat="43.5068392" lon="11.7920898"><ele>210.0</ele><time>2026-04-12T07:24:45.033Z</time></trkpt><trkpt lat="43.5067244" lon="11.7919217"><ele>213.0</ele><time>2026-04-12T07:24:46.034Z</time></trkpt><trkpt lat="43.5066056" lon="11.7917465"><ele>216.0</ele><time>2026-04-12T07:24:47.034Z</time></trkpt><trkpt lat="43.5064834" lon="11.7915673"><ele>219.0</ele><time>2026-04-12T07:24:48.033Z</time></trkpt><trkpt lat="43.5063586" lon="11.7913845"><ele>220.0</ele><time>2026-04-12T07:24:49.033Z</time></trkpt><trkpt lat="43.5062344" lon="11.7911962"><ele>221.0</ele><time>2026-04-12T07:24:50.033Z</time></trkpt><trkpt lat="43.5061077" lon="11.7910096"><ele>222.0</ele><time>2026-04-12T07:24:51.033Z</time></trkpt><trkpt lat="43.5059813" lon="11.7908313"><ele>222.0</ele><time>2026-04-12T07:24:52.033Z</time></trkpt><trkpt lat="43.5058583" lon="11.7906516"><ele>222.0</ele><time>2026-04-12T07:24:53.033Z</time></trkpt><trkpt lat="43.5057403" lon="11.7904757"><ele>222.0</ele><time>2026-04-12T07:24:54.034Z</time></trkpt><trkpt lat="43.5056277" lon="11.7902994"><ele>220.0</ele><time>2026-04-12T07:24:55.033Z</time></trkpt><trkpt lat="43.5055297" lon="11.7901231"><ele>218.0</ele><time>2026-04-12T07:24:56.033Z</time></trkpt><trkpt lat="43.5054504" lon="11.7899342"><ele>216.0</ele><time>2026-04-12T07:24:57.033Z</time></trkpt><trkpt lat="43.5053967" lon="11.7897223"><ele>216.0</ele><time>2026-04-12T07:24:58.033Z</time></trkpt><trkpt lat="43.5053639" lon="11.7894901"><ele>216.0</ele><time>2026-04-12T07:24:59.034Z</time></trkpt><trkpt lat="43.5053432" lon="11.7892533"><ele>216.0</ele><time>2026-04-12T07:25:00.033Z</time></trkpt><trkpt lat="43.5053385" lon="11.7890343"><ele>215.75</ele><time>2026-04-12T07:25:01.033Z</time></trkpt><trkpt lat="43.5053552" lon="11.7888278"><ele>215.5</ele><time>2026-04-12T07:25:02.034Z</time></trkpt><trkpt lat="43.5054043" lon="11.7886384"><ele>215.25</ele><time>2026-04-12T07:25:03.033Z</time></trkpt><trkpt lat="43.5054809" lon="11.7884594"><ele>215.0</ele><time>2026-04-12T07:25:04.033Z</time></trkpt><trkpt lat="43.5055921" lon="11.7882858"><ele>221.33333333333334</ele><time>2026-04-12T07:25:05.033Z</time></trkpt><trkpt lat="43.5057249" lon="11.7881146"><ele>227.66666666666669</ele><time>2026-04-12T07:25:06.033Z</time></trkpt><trkpt lat="43.5058605" lon="11.7879406"><ele>234.0</ele><time>2026-04-12T07:25:07.033Z</time></trkpt><trkpt lat="43.5059964" lon="11.7877641"><ele>234.0</ele><time>2026-04-12T07:25:08.033Z</time></trkpt><trkpt lat="43.5061345" lon="11.7875843"><ele>234.0</ele><time>2026-04-12T07:25:09.034Z</time></trkpt><trkpt lat="43.5062697" lon="11.7874029"><ele>234.0</ele><time>2026-04-12T07:25:10.033Z</time></trkpt><trkpt lat="43.5064044" lon="11.7872275"><ele>234.0</ele><time>2026-04-12T07:25:11.033Z</time></trkpt><trkpt lat="43.5065405" lon="11.7870509"><ele>234.0</ele><time>2026-04-12T07:25:12.033Z</time></trkpt><trkpt lat="43.5066746" lon="11.7868725"><ele>234.0</ele><time>2026-04-12T07:25:13.033Z</time></trkpt><trkpt lat="43.5068097" lon="11.786692"><ele>234.0</ele><time>2026-04-12T07:25:14.033Z</time></trkpt><trkpt lat="43.506944" lon="11.7865156"><ele>234.0</ele><time>2026-04-12T07:25:15.033Z</time></trkpt><trkpt lat="43.5070796" lon="11.7863397"><ele>234.0</ele><time>2026-04-12T07:25:16.033Z</time></trkpt><trkpt lat="43.5072153" lon="11.7861632"><ele>235.33333333333331</ele><time>2026-04-12T07:25:17.034Z</time></trkpt><trkpt lat="43.5073488" lon="11.7859855"><ele>236.66666666666666</ele><time>2026-04-12T07:25:18.033Z</time></trkpt><trkpt lat="43.5074825" lon="11.7858065"><ele>238.0</ele><time>2026-04-12T07:25:19.033Z</time></trkpt><trkpt lat="43.5076158" lon="11.7856289"><ele>238.0</ele><time>2026-04-12T07:25:20.034Z</time></trkpt><trkpt lat="43.5077496" lon="11.7854571"><ele>238.0</ele><time>2026-04-12T07:25:21.034Z</time></trkpt><trkpt lat="43.5078833" lon="11.7852825"><ele>238.0</ele><time>2026-04-12T07:25:22.033Z</time></trkpt><trkpt lat="43.5080131" lon="11.7851105"><ele>238.33333333333331</ele><time>2026-04-12T07:25:23.033Z</time></trkpt><trkpt lat="43.5081414" lon="11.7849423"><ele>238.66666666666669</ele><time>2026-04-12T07:25:24.033Z</time></trkpt><trkpt lat="43.5082711" lon="11.7847719"><ele>239.0</ele><time>2026-04-12T07:25:25.033Z</time></trkpt><trkpt lat="43.5083991" lon="11.7846042"><ele>239.0</ele><time>2026-04-12T07:25:26.033Z</time></trkpt><trkpt lat="43.5085263" lon="11.7844357"><ele>239.0</ele><time>2026-04-12T07:25:27.033Z</time></trkpt><trkpt lat="43.5086496" lon="11.7842594"><ele>239.0</ele><time>2026-04-12T07:25:28.034Z</time></trkpt><trkpt lat="43.5087648" lon="11.7840735"><ele>238.66666666666669</ele><time>2026-04-12T07:25:29.033Z</time></trkpt><trkpt lat="43.5088759" lon="11.783877"><ele>238.33333333333331</ele><time>2026-04-12T07:25:30.034Z</time></trkpt><trkpt lat="43.5089819" lon="11.7836717"><ele>238.0</ele><time>2026-04-12T07:25:31.034Z</time></trkpt><trkpt lat="43.5090844" lon="11.7834626"><ele>237.66666666666666</ele><time>2026-04-12T07:25:32.034Z</time></trkpt><trkpt lat="43.5091891" lon="11.7832534"><ele>237.33333333333331</ele><time>2026-04-12T07:25:33.033Z</time></trkpt><trkpt lat="43.5092916" lon="11.7830509"><ele>237.0</ele><time>2026-04-12T07:25:34.033Z</time></trkpt><trkpt lat="43.5093906" lon="11.7828578"><ele>237.33333333333331</ele><time>2026-04-12T07:25:35.034Z</time></trkpt><trkpt lat="43.5094838" lon="11.7826787"><ele>237.66666666666666</ele><time>2026-04-12T07:25:36.034Z</time></trkpt><trkpt lat="43.5095844" lon="11.7825011"><ele>238.0</ele><time>2026-04-12T07:25:37.033Z</time></trkpt><trkpt lat="43.5096947" lon="11.7823383"><ele>238.66666666666666</ele><time>2026-04-12T07:25:38.034Z</time></trkpt><trkpt lat="43.50982" lon="11.7821849"><ele>239.33333333333331</ele><time>2026-04-12T07:25:39.034Z</time></trkpt><trkpt lat="43.5099594" lon="11.7820415"><ele>240.0</ele><time>2026-04-12T07:25:40.033Z</time></trkpt><trkpt lat="43.5101102" lon="11.7819101"><ele>239.66666666666669</ele><time>2026-04-12T07:25:41.033Z</time></trkpt><trkpt lat="43.5102651" lon="11.7817794"><ele>239.33333333333334</ele><time>2026-04-12T07:25:42.033Z</time></trkpt><trkpt lat="43.5104211" lon="11.7816429"><ele>239.0</ele><time>2026-04-12T07:25:43.033Z</time></trkpt><trkpt lat="43.5105785" lon="11.781504"><ele>239.0</ele><time>2026-04-12T07:25:44.033Z</time></trkpt><trkpt lat="43.5107327" lon="11.7813605"><ele>239.0</ele><time>2026-04-12T07:25:45.033Z</time></trkpt><trkpt lat="43.5108859" lon="11.7812279"><ele>239.0</ele><time>2026-04-12T07:25:46.034Z</time></trkpt><trkpt lat="43.5110388" lon="11.7811008"><ele>239.33333333333334</ele><time>2026-04-12T07:25:47.033Z</time></trkpt><trkpt lat="43.5111927" lon="11.7809703"><ele>239.66666666666669</ele><time>2026-04-12T07:25:48.033Z</time></trkpt><trkpt lat="43.5113476" lon="11.7808372"><ele>240.0</ele><time>2026-04-12T07:25:49.033Z</time></trkpt><trkpt lat="43.5114974" lon="11.7807028"><ele>240.66666666666669</ele><time>2026-04-12T07:25:50.033Z</time></trkpt><trkpt lat="43.5116451" lon="11.7805587"><ele>241.33333333333334</ele><time>2026-04-12T07:25:51.033Z</time></trkpt><trkpt lat="43.5117904" lon="11.7804074"><ele>242.0</ele><time>2026-04-12T07:25:52.034Z</time></trkpt><trkpt lat="43.5119352" lon="11.7802564"><ele>243.33333333333334</ele><time>2026-04-12T07:25:53.034Z</time></trkpt><trkpt lat="43.5120754" lon="11.7801006"><ele>244.66666666666669</ele><time>2026-04-12T07:25:54.033Z</time></trkpt><trkpt lat="43.5122183" lon="11.7799392"><ele>246.0</ele><time>2026-04-12T07:25:55.033Z</time></trkpt><trkpt lat="43.5123587" lon="11.7797817"><ele>246.0</ele><time>2026-04-12T07:25:56.033Z</time></trkpt><trkpt lat="43.5124991" lon="11.7796221"><ele>246.0</ele><time>2026-04-12T07:25:57.033Z</time></trkpt><trkpt lat="43.5126368" lon="11.7794681"><ele>246.0</ele><time>2026-04-12T07:25:58.033Z</time></trkpt><trkpt lat="43.5127763" lon="11.7793208"><ele>247.33333333333331</ele><time>2026-04-12T07:25:59.034Z</time></trkpt><trkpt lat="43.5129179" lon="11.7791778"><ele>248.66666666666666</ele><time>2026-04-12T07:26:00.033Z</time></trkpt><trkpt lat="43.5130646" lon="11.7790428"><ele>250.0</ele><time>2026-04-12T07:26:01.033Z</time></trkpt><trkpt lat="43.5132209" lon="11.7789135"><ele>250.0</ele><time>2026-04-12T07:26:02.033Z</time></trkpt><trkpt lat="43.5133845" lon="11.7788052"><ele>250.0</ele><time>2026-04-12T07:26:03.034Z</time></trkpt><trkpt lat="43.5135517" lon="11.7787182"><ele>250.0</ele><time>2026-04-12T07:26:04.033Z</time></trkpt><trkpt lat="43.5137161" lon="11.7786397"><ele>250.0</ele><time>2026-04-12T07:26:05.034Z</time></trkpt><trkpt lat="43.5138727" lon="11.7785546"><ele>250.0</ele><time>2026-04-12T07:26:06.034Z</time></trkpt><trkpt lat="43.5140112" lon="11.7784466"><ele>250.0</ele><time>2026-04-12T07:26:07.033Z</time></trkpt><trkpt lat="43.5141448" lon="11.7783115"><ele>249.66666666666666</ele><time>2026-04-12T07:26:08.033Z</time></trkpt><trkpt lat="43.5142704" lon="11.778154"><ele>249.33333333333331</ele><time>2026-04-12T07:26:09.033Z</time></trkpt><trkpt lat="43.5143883" lon="11.7779816"><ele>249.0</ele><time>2026-04-12T07:26:10.033Z</time></trkpt><trkpt lat="43.5145035" lon="11.7778022"><ele>250.0</ele><time>2026-04-12T07:26:11.034Z</time></trkpt><trkpt lat="43.514621" lon="11.7776237"><ele>251.0</ele><time>2026-04-12T07:26:12.034Z</time></trkpt><trkpt lat="43.5147461" lon="11.7774485"><ele>252.0</ele><time>2026-04-12T07:26:13.033Z</time></trkpt><trkpt lat="43.5148738" lon="11.777278"><ele>252.0</ele><time>2026-04-12T07:26:14.033Z</time></trkpt><trkpt lat="43.5150012" lon="11.7771045"><ele>252.0</ele><time>2026-04-12T07:26:15.033Z</time></trkpt><trkpt lat="43.5151221" lon="11.7769198"><ele>252.0</ele><time>2026-04-12T07:26:16.033Z</time></trkpt><trkpt lat="43.5152275" lon="11.7767171"><ele>252.0</ele><time>2026-04-12T07:26:17.033Z</time></trkpt><trkpt lat="43.5153225" lon="11.7765042"><ele>252.0</ele><time>2026-04-12T07:26:18.034Z</time></trkpt><trkpt lat="43.5154138" lon="11.7762871"><ele>252.0</ele><time>2026-04-12T07:26:19.033Z</time></trkpt><trkpt lat="43.5155006" lon="11.7760724"><ele>252.33333333333331</ele><time>2026-04-12T07:26:20.034Z</time></trkpt><trkpt lat="43.5155807" lon="11.7758714"><ele>252.66666666666666</ele><time>2026-04-12T07:26:21.033Z</time></trkpt><trkpt lat="43.5156426" lon="11.7756684"><ele>253.0</ele><time>2026-04-12T07:26:22.034Z</time></trkpt><trkpt lat="43.5156802" lon="11.7754614"><ele>253.0</ele><time>2026-04-12T07:26:23.034Z</time></trkpt><trkpt lat="43.5157004" lon="11.775243"><ele>253.0</ele><time>2026-04-12T07:26:24.033Z</time></trkpt><trkpt lat="43.5157148" lon="11.7750184"><ele>253.0</ele><time>2026-04-12T07:26:25.033Z</time></trkpt><trkpt lat="43.5157354" lon="11.774791"><ele>251.66666666666666</ele><time>2026-04-12T07:26:26.033Z</time></trkpt><trkpt lat="43.5157629" lon="11.7745669"><ele>250.33333333333331</ele><time>2026-04-12T07:26:27.033Z</time></trkpt><trkpt lat="43.5158004" lon="11.7743465"><ele>249.0</ele><time>2026-04-12T07:26:28.033Z</time></trkpt><trkpt lat="43.5158537" lon="11.7741274"><ele>248.33333333333331</ele><time>2026-04-12T07:26:29.033Z</time></trkpt><trkpt lat="43.515926" lon="11.7739169"><ele>247.66666666666666</ele><time>2026-04-12T07:26:30.033Z</time></trkpt><trkpt lat="43.5160132" lon="11.7737135"><ele>247.0</ele><time>2026-04-12T07:26:31.034Z</time></trkpt><trkpt lat="43.5161104" lon="11.7735187"><ele>247.0</ele><time>2026-04-12T07:26:32.034Z</time></trkpt><trkpt lat="43.516219" lon="11.7733392"><ele>247.0</ele><time>2026-04-12T07:26:33.034Z</time></trkpt><trkpt lat="43.5163424" lon="11.7731822"><ele>247.0</ele><time>2026-04-12T07:26:34.033Z</time></trkpt><trkpt lat="43.5164804" lon="11.7730479"><ele>247.66666666666666</ele><time>2026-04-12T07:26:35.033Z</time></trkpt><trkpt lat="43.5166261" lon="11.7729304"><ele>248.33333333333331</ele><time>2026-04-12T07:26:36.033Z</time></trkpt><trkpt lat="43.5167779" lon="11.772832"><ele>249.0</ele><time>2026-04-12T07:26:37.033Z</time></trkpt><trkpt lat="43.5169335" lon="11.7727517"><ele>250.0</ele><time>2026-04-12T07:26:38.033Z</time></trkpt><trkpt lat="43.5170908" lon="11.7726842"><ele>251.0</ele><time>2026-04-12T07:26:39.033Z</time></trkpt><trkpt lat="43.5172523" lon="11.7726326"><ele>252.0</ele><time>2026-04-12T07:26:40.034Z</time></trkpt><trkpt lat="43.5174176" lon="11.7725895"><ele>252.0</ele><time>2026-04-12T07:26:41.033Z</time></trkpt><trkpt lat="43.5175838" lon="11.7725447"><ele>252.0</ele><time>2026-04-12T07:26:42.033Z</time></trkpt><trkpt lat="43.5177555" lon="11.7724989"><ele>252.0</ele><time>2026-04-12T07:26:43.033Z</time></trkpt><trkpt lat="43.5179272" lon="11.7724516"><ele>251.66666666666669</ele><time>2026-04-12T07:26:44.033Z</time></trkpt><trkpt lat="43.5181002" lon="11.7724054"><ele>251.33333333333334</ele><time>2026-04-12T07:26:45.034Z</time></trkpt><trkpt lat="43.5182739" lon="11.7723624"><ele>251.0</ele><time>2026-04-12T07:26:46.033Z</time></trkpt><trkpt lat="43.5184475" lon="11.7723177"><ele>251.0</ele><time>2026-04-12T07:26:47.033Z</time></trkpt><trkpt lat="43.5186194" lon="11.7722698"><ele>251.0</ele><time>2026-04-12T07:26:48.033Z</time></trkpt><trkpt lat="43.5187916" lon="11.7722206"><ele>251.0</ele><time>2026-04-12T07:26:49.034Z</time></trkpt><trkpt lat="43.5189534" lon="11.7721769"><ele>251.75</ele><time>2026-04-12T07:26:50.033Z</time></trkpt><trkpt lat="43.5191067" lon="11.7721349"><ele>252.5</ele><time>2026-04-12T07:26:51.033Z</time></trkpt><trkpt lat="43.5192484" lon="11.7720988"><ele>253.25</ele><time>2026-04-12T07:26:52.034Z</time></trkpt><trkpt lat="43.5193838" lon="11.7720597"><ele>254.0</ele><time>2026-04-12T07:26:53.033Z</time></trkpt><trkpt lat="43.5195017" lon="11.7720268"><ele>254.0</ele><time>2026-04-12T07:26:54.034Z</time></trkpt><trkpt lat="43.5196111" lon="11.7720171"><ele>254.0</ele><time>2026-04-12T07:26:55.033Z</time></trkpt><trkpt lat="43.5197172" lon="11.7720459"><ele>254.0</ele><time>2026-04-12T07:26:56.033Z</time></trkpt><trkpt lat="43.5198233" lon="11.7721013"><ele>254.0</ele><time>2026-04-12T07:26:57.033Z</time></trkpt><trkpt lat="43.5199351" lon="11.7721579"><ele>254.0</ele><time>2026-04-12T07:26:58.033Z</time></trkpt><trkpt lat="43.5200588" lon="11.7722055"><ele>254.0</ele><time>2026-04-12T07:26:59.033Z</time></trkpt><trkpt lat="43.5201892" lon="11.7722538"><ele>254.0</ele><time>2026-04-12T07:27:00.033Z</time></trkpt><trkpt lat="43.5203258" lon="11.7723052"><ele>254.0</ele><time>2026-04-12T07:27:01.033Z</time></trkpt><trkpt lat="43.5204684" lon="11.7723589"><ele>254.33333333333334</ele><time>2026-04-12T07:27:02.033Z</time></trkpt><trkpt lat="43.5206162" lon="11.7724131"><ele>254.66666666666669</ele><time>2026-04-12T07:27:03.033Z</time></trkpt><trkpt lat="43.5207658" lon="11.7724658"><ele>255.0</ele><time>2026-04-12T07:27:04.033Z</time></trkpt><trkpt lat="43.5209163" lon="11.7725218"><ele>255.0</ele><time>2026-04-12T07:27:05.033Z</time></trkpt><trkpt lat="43.521068" lon="11.772579"><ele>255.0</ele><time>2026-04-12T07:27:06.033Z</time></trkpt><trkpt lat="43.5212188" lon="11.7726371"><ele>255.0</ele><time>2026-04-12T07:27:07.033Z</time></trkpt><trkpt lat="43.5213671" lon="11.7726979"><ele>256.0</ele><time>2026-04-12T07:27:08.034Z</time></trkpt><trkpt lat="43.5215" lon="11.7727716"><ele>257.0</ele><time>2026-04-12T07:27:09.034Z</time></trkpt><trkpt lat="43.5216111" lon="11.7728684"><ele>258.0</ele><time>2026-04-12T07:27:10.033Z</time></trkpt><trkpt lat="43.5217011" lon="11.7729902"><ele>259.0</ele><time>2026-04-12T07:27:11.033Z</time></trkpt><trkpt lat="43.5217777" lon="11.7731318"><ele>259.0</ele><time>2026-04-12T07:27:12.033Z</time></trkpt><trkpt lat="43.5218477" lon="11.7732787"><ele>259.0</ele><time>2026-04-12T07:27:13.033Z</time></trkpt><trkpt lat="43.5219138" lon="11.7734123"><ele>259.0</ele><time>2026-04-12T07:27:14.034Z</time></trkpt><trkpt lat="43.5219909" lon="11.7735244"><ele>259.0</ele><time>2026-04-12T07:27:15.034Z</time></trkpt><trkpt lat="43.522089" lon="11.7736201"><ele>259.5</ele><time>2026-04-12T07:27:16.033Z</time></trkpt><trkpt lat="43.5222027" lon="11.773693"><ele>260.0</ele><time>2026-04-12T07:27:17.033Z</time></trkpt><trkpt lat="43.5223319" lon="11.7737525"><ele>260.5</ele><time>2026-04-12T07:27:18.034Z</time></trkpt><trkpt lat="43.5224682" lon="11.7738098"><ele>261.0</ele><time>2026-04-12T07:27:19.033Z</time></trkpt><trkpt lat="43.5226056" lon="11.7738688"><ele>261.0</ele><time>2026-04-12T07:27:20.033Z</time></trkpt><trkpt lat="43.5227406" lon="11.773928"><ele>261.0</ele><time>2026-04-12T07:27:21.033Z</time></trkpt><trkpt lat="43.5228627" lon="11.7739862"><ele>261.0</ele><time>2026-04-12T07:27:22.034Z</time></trkpt><trkpt lat="43.5229704" lon="11.7740386"><ele>261.0</ele><time>2026-04-12T07:27:23.034Z</time></trkpt><trkpt lat="43.5230561" lon="11.7740926"><ele>261.1666666666667</ele><time>2026-04-12T07:27:24.034Z</time></trkpt><trkpt lat="43.5231179" lon="11.7741655"><ele>261.3333333333333</ele><time>2026-04-12T07:27:25.033Z</time></trkpt><trkpt lat="43.5231526" lon="11.7742582"><ele>261.5</ele><time>2026-04-12T07:27:26.033Z</time></trkpt><trkpt lat="43.5231592" lon="11.7743661"><ele>261.66666666666663</ele><time>2026-04-12T07:27:27.033Z</time></trkpt><trkpt lat="43.5231407" lon="11.774489"><ele>261.8333333333333</ele><time>2026-04-12T07:27:28.033Z</time></trkpt><trkpt lat="43.5231134" lon="11.7746275"><ele>262.0</ele><time>2026-04-12T07:27:29.033Z</time></trkpt><trkpt lat="43.5231033" lon="11.7747668"><ele>262.0</ele><time>2026-04-12T07:27:30.034Z</time></trkpt><trkpt lat="43.523115" lon="11.7749041"><ele>262.0</ele><time>2026-04-12T07:27:31.033Z</time></trkpt><trkpt lat="43.5231453" lon="11.7750484"><ele>262.0</ele><time>2026-04-12T07:27:32.033Z</time></trkpt><trkpt lat="43.5231785" lon="11.7752092"><ele>262.0</ele><time>2026-04-12T07:27:33.034Z</time></trkpt><trkpt lat="43.523209" lon="11.7753708"><ele>262.0</ele><time>2026-04-12T07:27:34.033Z</time></trkpt><trkpt lat="43.5232432" lon="11.7755221"><ele>262.0</ele><time>2026-04-12T07:27:35.034Z</time></trkpt><trkpt lat="43.5232729" lon="11.7756624"><ele>262.0</ele><time>2026-04-12T07:27:36.033Z</time></trkpt><trkpt lat="43.523297" lon="11.7757967"><ele>262.0</ele><time>2026-04-12T07:27:37.034Z</time></trkpt><trkpt lat="43.5233135" lon="11.7759228"><ele>262.0</ele><time>2026-04-12T07:27:38.033Z</time></trkpt><trkpt lat="43.5233149" lon="11.7760461"><ele>261.5</ele><time>2026-04-12T07:27:39.033Z</time></trkpt><trkpt lat="43.5233048" lon="11.7761601"><ele>261.0</ele><time>2026-04-12T07:27:40.034Z</time></trkpt><trkpt lat="43.5232834" lon="11.7762632"><ele>260.5</ele><time>2026-04-12T07:27:41.033Z</time></trkpt><trkpt lat="43.5232648" lon="11.7763533"><ele>260.0</ele><time>2026-04-12T07:27:42.033Z</time></trkpt><trkpt lat="43.5232748" lon="11.7764885"><ele>259.5</ele><time>2026-04-12T07:27:44.033Z</time></trkpt><trkpt lat="43.5233759" lon="11.7765576"><ele>259.0</ele><time>2026-04-12T07:27:46.034Z</time></trkpt><trkpt lat="43.5234573" lon="11.7765972"><ele>259.0</ele><time>2026-04-12T07:27:47.034Z</time></trkpt><trkpt lat="43.5235463" lon="11.7766373"><ele>259.0</ele><time>2026-04-12T07:27:48.033Z</time></trkpt><trkpt lat="43.5236441" lon="11.7766788"><ele>259.0</ele><time>2026-04-12T07:27:49.033Z</time></trkpt><trkpt lat="43.5237371" lon="11.7767207"><ele>259.0</ele><time>2026-04-12T07:27:50.033Z</time></trkpt><trkpt lat="43.5238263" lon="11.7767585"><ele>259.0</ele><time>2026-04-12T07:27:51.034Z</time></trkpt><trkpt lat="43.5239177" lon="11.7767987"><ele>259.4</ele><time>2026-04-12T07:27:52.033Z</time></trkpt><trkpt lat="43.524013" lon="11.7768425"><ele>259.79999999999995</ele><time>2026-04-12T07:27:53.034Z</time></trkpt><trkpt lat="43.5241116" lon="11.7768852"><ele>260.20000000000005</ele><time>2026-04-12T07:27:54.034Z</time></trkpt><trkpt lat="43.5242109" lon="11.7769251"><ele>260.6</ele><time>2026-04-12T07:27:55.033Z</time></trkpt><trkpt lat="43.5243139" lon="11.7769624"><ele>261.0</ele><time>2026-04-12T07:27:56.033Z</time></trkpt><trkpt lat="43.5244125" lon="11.7770085"><ele>261.2</ele><time>2026-04-12T07:27:57.033Z</time></trkpt><trkpt lat="43.5245128" lon="11.7770564"><ele>261.40000000000003</ele><time>2026-04-12T07:27:58.033Z</time></trkpt><trkpt lat="43.5246139" lon="11.7771006"><ele>261.6</ele><time>2026-04-12T07:27:59.033Z</time></trkpt><trkpt lat="43.5247176" lon="11.7771452"><ele>261.8</ele><time>2026-04-12T07:28:00.033Z</time></trkpt><trkpt lat="43.5248168" lon="11.7771841"><ele>262.0</ele><time>2026-04-12T07:28:01.034Z</time></trkpt><trkpt lat="43.5249171" lon="11.7772278"><ele>262.8</ele><time>2026-04-12T07:28:02.033Z</time></trkpt><trkpt lat="43.5250175" lon="11.7772773"><ele>263.6</ele><time>2026-04-12T07:28:03.033Z</time></trkpt><trkpt lat="43.525114" lon="11.7773247"><ele>264.40000000000003</ele><time>2026-04-12T07:28:04.033Z</time></trkpt><trkpt lat="43.5252137" lon="11.7773674"><ele>265.2</ele><time>2026-04-12T07:28:05.034Z</time></trkpt><trkpt lat="43.525314" lon="11.777412"><ele>266.0</ele><time>2026-04-12T07:28:06.033Z</time></trkpt><trkpt lat="43.5254169" lon="11.7774528"><ele>266.40000000000003</ele><time>2026-04-12T07:28:07.033Z</time></trkpt><trkpt lat="43.5255183" lon="11.7774978"><ele>266.8</ele><time>2026-04-12T07:28:08.034Z</time></trkpt><trkpt lat="43.5256196" lon="11.7775417"><ele>267.20000000000005</ele><time>2026-04-12T07:28:09.034Z</time></trkpt><trkpt lat="43.5257188" lon="11.7775859"><ele>267.6</ele><time>2026-04-12T07:28:10.034Z</time></trkpt><trkpt lat="43.5258206" lon="11.7776317"><ele>268.0</ele><time>2026-04-12T07:28:11.034Z</time></trkpt><trkpt lat="43.5259185" lon="11.7776694"><ele>268.0</ele><time>2026-04-12T07:28:12.034Z</time></trkpt><trkpt lat="43.5260122" lon="11.777714"><ele>268.0</ele><time>2026-04-12T07:28:13.033Z</time></trkpt><trkpt lat="43.5261172" lon="11.7777606"><ele>268.0</ele><time>2026-04-12T07:28:14.033Z</time></trkpt><trkpt lat="43.5262217" lon="11.7778055"><ele>268.0</ele><time>2026-04-12T07:28:15.034Z</time></trkpt><trkpt lat="43.5263209" lon="11.7778486"><ele>268.0</ele><time>2026-04-12T07:28:16.034Z</time></trkpt><trkpt lat="43.526418" lon="11.777891"><ele>268.6</ele><time>2026-04-12T07:28:17.033Z</time></trkpt><trkpt lat="43.5265168" lon="11.7779369"><ele>269.20000000000005</ele><time>2026-04-12T07:28:18.033Z</time></trkpt><trkpt lat="43.5266191" lon="11.7779784"><ele>269.8</ele><time>2026-04-12T07:28:19.033Z</time></trkpt><trkpt lat="43.5267217" lon="11.7780253"><ele>270.40000000000003</ele><time>2026-04-12T07:28:20.034Z</time></trkpt><trkpt lat="43.5268281" lon="11.7780714"><ele>271.0</ele><time>2026-04-12T07:28:21.033Z</time></trkpt><trkpt lat="43.5269344" lon="11.7781202"><ele>271.0</ele><time>2026-04-12T07:28:22.033Z</time></trkpt><trkpt lat="43.5270398" lon="11.7781655"><ele>271.0</ele><time>2026-04-12T07:28:23.033Z</time></trkpt><trkpt lat="43.5271437" lon="11.7782126"><ele>271.0</ele><time>2026-04-12T07:28:24.033Z</time></trkpt><trkpt lat="43.5272424" lon="11.7782591"><ele>271.0</ele><time>2026-04-12T07:28:25.033Z</time></trkpt><trkpt lat="43.5273361" lon="11.7782989"><ele>271.0</ele><time>2026-04-12T07:28:26.033Z</time></trkpt><trkpt lat="43.5274247" lon="11.7783413"><ele>271.8</ele><time>2026-04-12T07:28:27.033Z</time></trkpt><trkpt lat="43.5275163" lon="11.7783856"><ele>272.6</ele><time>2026-04-12T07:28:28.033Z</time></trkpt><trkpt lat="43.5276115" lon="11.7784274"><ele>273.4</ele><time>2026-04-12T07:28:29.034Z</time></trkpt><trkpt lat="43.5277053" lon="11.7784668"><ele>274.2</ele><time>2026-04-12T07:28:30.034Z</time></trkpt><trkpt lat="43.527796" lon="11.778511"><ele>275.0</ele><time>2026-04-12T07:28:31.033Z</time></trkpt><trkpt lat="43.5278857" lon="11.7785574"><ele>277.33333333333337</ele><time>2026-04-12T07:28:32.033Z</time></trkpt><trkpt lat="43.5279645" lon="11.778598"><ele>279.6666666666667</ele><time>2026-04-12T07:28:33.034Z</time></trkpt><trkpt lat="43.5280365" lon="11.7786322"><ele>282.0</ele><time>2026-04-12T07:28:34.033Z</time></trkpt><trkpt lat="43.528102" lon="11.7786649"><ele>284.3333333333333</ele><time>2026-04-12T07:28:35.033Z</time></trkpt><trkpt lat="43.5281942" lon="11.7787124"><ele>286.66666666666663</ele><time>2026-04-12T07:28:37.034Z</time></trkpt><trkpt lat="43.5282798" lon="11.7786896"><ele>289.0</ele><time>2026-04-12T07:28:46.034Z</time></trkpt><trkpt lat="43.5283563" lon="11.7785496"><ele>287.8333333333333</ele><time>2026-04-12T07:28:48.034Z</time></trkpt><trkpt lat="43.5283937" lon="11.7784584"><ele>286.66666666666663</ele><time>2026-04-12T07:28:49.033Z</time></trkpt><trkpt lat="43.5284317" lon="11.7783664"><ele>285.5</ele><time>2026-04-12T07:28:50.033Z</time></trkpt><trkpt lat="43.5284709" lon="11.7782749"><ele>284.3333333333333</ele><time>2026-04-12T07:28:51.033Z</time></trkpt><trkpt lat="43.5285063" lon="11.7781773"><ele>283.1666666666667</ele><time>2026-04-12T07:28:52.033Z</time></trkpt><trkpt lat="43.5285607" lon="11.7780632"><ele>282.0</ele><time>2026-04-12T07:28:53.033Z</time></trkpt><trkpt lat="43.5286254" lon="11.7779204"><ele>282.0</ele><time>2026-04-12T07:28:54.034Z</time></trkpt><trkpt lat="43.5286938" lon="11.7777737"><ele>282.0</ele><time>2026-04-12T07:28:55.033Z</time></trkpt><trkpt lat="43.5287681" lon="11.7776131"><ele>282.0</ele><time>2026-04-12T07:28:56.034Z</time></trkpt><trkpt lat="43.5288462" lon="11.7774433"><ele>282.0</ele><time>2026-04-12T07:28:57.033Z</time></trkpt><trkpt lat="43.5289233" lon="11.7772682"><ele>280.5</ele><time>2026-04-12T07:28:58.033Z</time></trkpt><trkpt lat="43.528998" lon="11.777098"><ele>279.0</ele><time>2026-04-12T07:28:59.033Z</time></trkpt><trkpt lat="43.5290716" lon="11.7769385"><ele>277.5</ele><time>2026-04-12T07:29:00.033Z</time></trkpt><trkpt lat="43.5291414" lon="11.7767904"><ele>276.0</ele><time>2026-04-12T07:29:01.033Z</time></trkpt><trkpt lat="43.5292025" lon="11.7766492"><ele>276.0</ele><time>2026-04-12T07:29:02.033Z</time></trkpt><trkpt lat="43.529256" lon="11.7765046"><ele>276.0</ele><time>2026-04-12T07:29:03.033Z</time></trkpt><trkpt lat="43.5292961" lon="11.7763613"><ele>276.0</ele><time>2026-04-12T07:29:04.033Z</time></trkpt><trkpt lat="43.529322" lon="11.7762215"><ele>276.0</ele><time>2026-04-12T07:29:05.033Z</time></trkpt><trkpt lat="43.529335" lon="11.7760788"><ele>276.0</ele><time>2026-04-12T07:29:06.034Z</time></trkpt><trkpt lat="43.5293472" lon="11.7759316"><ele>276.5</ele><time>2026-04-12T07:29:07.034Z</time></trkpt><trkpt lat="43.5293563" lon="11.7757748"><ele>277.0</ele><time>2026-04-12T07:29:08.033Z</time></trkpt><trkpt lat="43.5293579" lon="11.7756124"><ele>277.5</ele><time>2026-04-12T07:29:09.034Z</time></trkpt><trkpt lat="43.5293629" lon="11.7754584"><ele>278.0</ele><time>2026-04-12T07:29:10.034Z</time></trkpt><trkpt lat="43.5293693" lon="11.7753054"><ele>278.0</ele><time>2026-04-12T07:29:11.034Z</time></trkpt><trkpt lat="43.5293776" lon="11.7751646"><ele>278.0</ele><time>2026-04-12T07:29:12.033Z</time></trkpt><trkpt lat="43.5293803" lon="11.7750137"><ele>278.0</ele><time>2026-04-12T07:29:13.034Z</time></trkpt><trkpt lat="43.529379" lon="11.7748601"><ele>278.0</ele><time>2026-04-12T07:29:14.033Z</time></trkpt><trkpt lat="43.529373" lon="11.7747072"><ele>278.0</ele><time>2026-04-12T07:29:15.034Z</time></trkpt><trkpt lat="43.529367" lon="11.774554"><ele>278.0</ele><time>2026-04-12T07:29:16.033Z</time></trkpt><trkpt lat="43.5293615" lon="11.7744033"><ele>278.0</ele><time>2026-04-12T07:29:17.033Z</time></trkpt><trkpt lat="43.529357" lon="11.774257"><ele>278.0</ele><time>2026-04-12T07:29:18.033Z</time></trkpt><trkpt lat="43.5293574" lon="11.7741123"><ele>278.0</ele><time>2026-04-12T07:29:19.033Z</time></trkpt><trkpt lat="43.5293576" lon="11.7739684"><ele>278.0</ele><time>2026-04-12T07:29:20.033Z</time></trkpt><trkpt lat="43.5293663" lon="11.7738279"><ele>278.0</ele><time>2026-04-12T07:29:21.033Z</time></trkpt><trkpt lat="43.5293855" lon="11.7736991"><ele>278.0</ele><time>2026-04-12T07:29:22.033Z</time></trkpt><trkpt lat="43.5294117" lon="11.7735684"><ele>278.0</ele><time>2026-04-12T07:29:23.033Z</time></trkpt><trkpt lat="43.5294501" lon="11.7734353"><ele>278.0</ele><time>2026-04-12T07:29:24.034Z</time></trkpt><trkpt lat="43.5294799" lon="11.7732996"><ele>278.0</ele><time>2026-04-12T07:29:25.033Z</time></trkpt><trkpt lat="43.5294949" lon="11.7731614"><ele>278.0</ele><time>2026-04-12T07:29:26.033Z</time></trkpt><trkpt lat="43.5295035" lon="11.773017"><ele>278.0</ele><time>2026-04-12T07:29:27.033Z</time></trkpt><trkpt lat="43.5295166" lon="11.7728691"><ele>278.0</ele><time>2026-04-12T07:29:28.033Z</time></trkpt><trkpt lat="43.5295356" lon="11.7727251"><ele>278.0</ele><time>2026-04-12T07:29:29.033Z</time></trkpt><trkpt lat="43.5295561" lon="11.7725907"><ele>278.0</ele><time>2026-04-12T07:29:30.033Z</time></trkpt><trkpt lat="43.5295744" lon="11.7724662"><ele>277.6666666666667</ele><time>2026-04-12T07:29:31.033Z</time></trkpt><trkpt lat="43.5295919" lon="11.7723677"><ele>277.33333333333337</ele><time>2026-04-12T07:29:32.033Z</time></trkpt><trkpt lat="43.5296243" lon="11.772221"><ele>277.0</ele><time>2026-04-12T07:29:34.034Z</time></trkpt><trkpt lat="43.5296563" lon="11.7721226"><ele>276.6666666666667</ele><time>2026-04-12T07:29:36.033Z</time></trkpt><trkpt lat="43.5296692" lon="11.7720298"><ele>276.3333333333333</ele><time>2026-04-12T07:29:58.033Z</time></trkpt><trkpt lat="43.5296128" lon="11.7719603"><ele>276.0</ele><time>2026-04-12T07:31:13.034Z</time></trkpt><trkpt lat="43.5295561" lon="11.7718704"><ele>275.6666666666667</ele><time>2026-04-12T07:31:17.034Z</time></trkpt><trkpt lat="43.5295162" lon="11.7717864"><ele>275.3333333333333</ele><time>2026-04-12T07:31:19.033Z</time></trkpt><trkpt lat="43.5294926" lon="11.7716896"><ele>275.0</ele><time>2026-04-12T07:31:21.034Z</time></trkpt><trkpt lat="43.5294543" lon="11.7715911"><ele>274.66666666666663</ele><time>2026-04-12T07:31:23.038Z</time></trkpt><trkpt lat="43.5293917" lon="11.7714878"><ele>274.3333333333333</ele><time>2026-04-12T07:31:24.962Z</time></trkpt><trkpt lat="43.5293546" lon="11.7714028"><ele>274.0</ele><time>2026-04-12T07:31:27.037Z</time></trkpt><trkpt lat="43.5292843" lon="11.7713548"><ele>274.0</ele><time>2026-04-12T07:31:30.034Z</time></trkpt><trkpt lat="43.5292143" lon="11.7713929"><ele>274.0</ele><time>2026-04-12T07:31:33.033Z</time></trkpt><trkpt lat="43.5292541" lon="11.7714638"><ele>274.0</ele><time>2026-04-12T07:32:05.034Z</time></trkpt><trkpt lat="43.5293197" lon="11.771513"><ele>274.0</ele><time>2026-04-12T07:43:14.033Z</time></trkpt><trkpt lat="43.5293861" lon="11.771467"><ele>274.0</ele><time>2026-04-12T07:43:17.033Z</time></trkpt><trkpt lat="43.5294356" lon="11.7715391"><ele>274.0</ele><time>2026-04-12T07:43:19.033Z</time></trkpt><trkpt lat="43.529497" lon="11.7716657"><ele>274.0</ele><time>2026-04-12T07:43:21.034Z</time></trkpt><trkpt lat="43.5295279" lon="11.7717591"><ele>274.0</ele><time>2026-04-12T07:43:23.033Z</time></trkpt><trkpt lat="43.529578" lon="11.7718617"><ele>274.0</ele><time>2026-04-12T07:43:42.033Z</time></trkpt><trkpt lat="43.5296404" lon="11.7719376"><ele>274.0</ele><time>2026-04-12T07:43:44.033Z</time></trkpt><trkpt lat="43.5297095" lon="11.7719473"><ele>274.0</ele><time>2026-04-12T07:43:47.033Z</time></trkpt><trkpt lat="43.5297777" lon="11.7717716"><ele>275.0</ele><time>2026-04-12T07:43:49.033Z</time></trkpt><trkpt lat="43.5298249" lon="11.7716553"><ele>276.0</ele><time>2026-04-12T07:43:50.033Z</time></trkpt><trkpt lat="43.5298793" lon="11.7715539"><ele>277.0</ele><time>2026-04-12T07:43:51.033Z</time></trkpt><trkpt lat="43.5299441" lon="11.7714621"><ele>278.0</ele><time>2026-04-12T07:43:52.033Z</time></trkpt><trkpt lat="43.5300087" lon="11.7713827"><ele>279.0</ele><time>2026-04-12T07:43:53.033Z</time></trkpt><trkpt lat="43.5300702" lon="11.7712997"><ele>279.0</ele><time>2026-04-12T07:43:54.033Z</time></trkpt><trkpt lat="43.5301295" lon="11.7712052"><ele>279.0</ele><time>2026-04-12T07:43:55.033Z</time></trkpt><trkpt lat="43.5301918" lon="11.7711019"><ele>279.0</ele><time>2026-04-12T07:43:56.033Z</time></trkpt><trkpt lat="43.5302647" lon="11.7709994"><ele>279.0</ele><time>2026-04-12T07:43:57.034Z</time></trkpt><trkpt lat="43.5303462" lon="11.7708888"><ele>279.0</ele><time>2026-04-12T07:43:58.033Z</time></trkpt><trkpt lat="43.5304165" lon="11.7707776"><ele>279.59999999999997</ele><time>2026-04-12T07:43:59.033Z</time></trkpt><trkpt lat="43.530461" lon="11.7706457"><ele>280.2</ele><time>2026-04-12T07:44:00.033Z</time></trkpt><trkpt lat="43.5304958" lon="11.7705004"><ele>280.79999999999995</ele><time>2026-04-12T07:44:01.033Z</time></trkpt><trkpt lat="43.5305175" lon="11.7703501"><ele>281.4</ele><time>2026-04-12T07:44:02.033Z</time></trkpt><trkpt lat="43.5305334" lon="11.7702009"><ele>282.0</ele><time>2026-04-12T07:44:03.033Z</time></trkpt><trkpt lat="43.5305443" lon="11.7700509"><ele>282.0</ele><time>2026-04-12T07:44:04.033Z</time></trkpt><trkpt lat="43.5305592" lon="11.7699109"><ele>282.0</ele><time>2026-04-12T07:44:05.034Z</time></trkpt><trkpt lat="43.5305829" lon="11.7697647"><ele>282.0</ele><time>2026-04-12T07:44:06.033Z</time></trkpt><trkpt lat="43.5306185" lon="11.769618"><ele>282.0</ele><time>2026-04-12T07:44:07.033Z</time></trkpt><trkpt lat="43.5306646" lon="11.7694755"><ele>282.0</ele><time>2026-04-12T07:44:08.033Z</time></trkpt><trkpt lat="43.5307249" lon="11.7693649"><ele>281.3333333333333</ele><time>2026-04-12T07:44:09.033Z</time></trkpt><trkpt lat="43.5307785" lon="11.7692595"><ele>280.6666666666667</ele><time>2026-04-12T07:44:10.034Z</time></trkpt><trkpt lat="43.5308212" lon="11.7691579"><ele>280.0</ele><time>2026-04-12T07:44:11.033Z</time></trkpt><trkpt lat="43.5308468" lon="11.7690511"><ele>279.33333333333337</ele><time>2026-04-12T07:44:12.034Z</time></trkpt><trkpt lat="43.5308518" lon="11.7689385"><ele>278.6666666666667</ele><time>2026-04-12T07:44:13.034Z</time></trkpt><trkpt lat="43.5308429" lon="11.7688196"><ele>278.0</ele><time>2026-04-12T07:44:14.033Z</time></trkpt><trkpt lat="43.53082" lon="11.7686858"><ele>278.0</ele><time>2026-04-12T07:44:15.033Z</time></trkpt><trkpt lat="43.5307889" lon="11.7685461"><ele>278.0</ele><time>2026-04-12T07:44:16.033Z</time></trkpt><trkpt lat="43.5307524" lon="11.7684214"><ele>278.0</ele><time>2026-04-12T07:44:17.033Z</time></trkpt><trkpt lat="43.5307162" lon="11.7683092"><ele>278.0</ele><time>2026-04-12T07:44:18.033Z</time></trkpt><trkpt lat="43.5306839" lon="11.7682143"><ele>278.0</ele><time>2026-04-12T07:44:19.033Z</time></trkpt><trkpt lat="43.530655" lon="11.7681235"><ele>278.0</ele><time>2026-04-12T07:44:20.033Z</time></trkpt><trkpt lat="43.5306392" lon="11.7680327"><ele>278.0</ele><time>2026-04-12T07:44:21.034Z</time></trkpt><trkpt lat="43.530674" lon="11.7679125"><ele>278.0</ele><time>2026-04-12T07:44:23.033Z</time></trkpt><trkpt lat="43.5307388" lon="11.7678538"><ele>278.0</ele><time>2026-04-12T07:44:26.033Z</time></trkpt><trkpt lat="43.5307744" lon="11.7677758"><ele>278.0</ele><time>2026-04-12T07:44:34.033Z</time></trkpt><trkpt lat="43.5308547" lon="11.7676448"><ele>278.0</ele><time>2026-04-12T07:44:36.033Z</time></trkpt><trkpt lat="43.5309108" lon="11.7675701"><ele>278.0</ele><time>2026-04-12T07:44:37.033Z</time></trkpt><trkpt lat="43.5309679" lon="11.7674939"><ele>279.0</ele><time>2026-04-12T07:44:38.033Z</time></trkpt><trkpt lat="43.531024" lon="11.7674029"><ele>280.0</ele><time>2026-04-12T07:44:39.033Z</time></trkpt><trkpt lat="43.5310651" lon="11.7673152"><ele>281.0</ele><time>2026-04-12T07:44:40.033Z</time></trkpt><trkpt lat="43.5311062" lon="11.7672209"><ele>282.0</ele><time>2026-04-12T07:44:41.033Z</time></trkpt><trkpt lat="43.5311385" lon="11.7671321"><ele>283.0</ele><time>2026-04-12T07:44:42.033Z</time></trkpt><trkpt lat="43.5311592" lon="11.767041"><ele>284.0</ele><time>2026-04-12T07:44:43.033Z</time></trkpt><trkpt lat="43.5311711" lon="11.7669407"><ele>284.4</ele><time>2026-04-12T07:44:44.033Z</time></trkpt><trkpt lat="43.5311784" lon="11.7668428"><ele>284.79999999999995</ele><time>2026-04-12T07:44:45.034Z</time></trkpt><trkpt lat="43.5311877" lon="11.7667002"><ele>285.20000000000005</ele><time>2026-04-12T07:44:47.033Z</time></trkpt><trkpt lat="43.5312273" lon="11.7666108"><ele>285.6</ele><time>2026-04-12T07:44:49.033Z</time></trkpt><trkpt lat="43.531364" lon="11.7665599"><ele>286.0</ele><time>2026-04-12T07:44:51.034Z</time></trkpt><trkpt lat="43.5314544" lon="11.766543"><ele>285.99999999999994</ele><time>2026-04-12T07:44:52.033Z</time></trkpt><trkpt lat="43.5315423" lon="11.7665208"><ele>286.0</ele><time>2026-04-12T07:44:53.033Z</time></trkpt><trkpt lat="43.5316194" lon="11.7665055"><ele>286.0</ele><time>2026-04-12T07:44:54.034Z</time></trkpt><trkpt lat="43.5316882" lon="11.7664826"><ele>286.0</ele><time>2026-04-12T07:44:55.033Z</time></trkpt><trkpt lat="43.5317507" lon="11.766456"><ele>286.0</ele><time>2026-04-12T07:44:56.033Z</time></trkpt><trkpt lat="43.5318069" lon="11.7664145"><ele>285.99999999999994</ele><time>2026-04-12T07:44:57.034Z</time></trkpt><trkpt lat="43.5318551" lon="11.7663505"><ele>286.0</ele><time>2026-04-12T07:44:58.034Z</time></trkpt><trkpt lat="43.5318961" lon="11.7662624"><ele>286.0</ele><time>2026-04-12T07:44:59.033Z</time></trkpt><trkpt lat="43.5319322" lon="11.7661602"><ele>286.0</ele><time>2026-04-12T07:45:00.033Z</time></trkpt><trkpt lat="43.5319709" lon="11.7660545"><ele>286.0</ele><time>2026-04-12T07:45:01.033Z</time></trkpt><trkpt lat="43.5320208" lon="11.765957"><ele>286.0</ele><time>2026-04-12T07:45:02.034Z</time></trkpt><trkpt lat="43.5320843" lon="11.765876"><ele>286.0</ele><time>2026-04-12T07:45:03.033Z</time></trkpt><trkpt lat="43.5321573" lon="11.7658124"><ele>286.0</ele><time>2026-04-12T07:45:04.034Z</time></trkpt><trkpt lat="43.5322395" lon="11.76576"><ele>286.0</ele><time>2026-04-12T07:45:05.033Z</time></trkpt><trkpt lat="43.532329" lon="11.7657219"><ele>286.0</ele><time>2026-04-12T07:45:06.033Z</time></trkpt><trkpt lat="43.5324218" lon="11.7657"><ele>286.0</ele><time>2026-04-12T07:45:07.033Z</time></trkpt><trkpt lat="43.5325153" lon="11.7656879"><ele>286.0</ele><time>2026-04-12T07:45:08.033Z</time></trkpt><trkpt lat="43.532611" lon="11.7656847"><ele>286.0</ele><time>2026-04-12T07:45:09.033Z</time></trkpt><trkpt lat="43.532709" lon="11.7656804"><ele>286.0</ele><time>2026-04-12T07:45:10.034Z</time></trkpt><trkpt lat="43.532805" lon="11.7656802"><ele>286.0</ele><time>2026-04-12T07:45:11.033Z</time></trkpt><trkpt lat="43.5328973" lon="11.7656852"><ele>286.0</ele><time>2026-04-12T07:45:12.033Z</time></trkpt><trkpt lat="43.5329851" lon="11.7656824"><ele>286.0</ele><time>2026-04-12T07:45:13.033Z</time></trkpt><trkpt lat="43.5330623" lon="11.7656743"><ele>286.0</ele><time>2026-04-12T07:45:14.034Z</time></trkpt><trkpt lat="43.5331547" lon="11.7656524"><ele>286.0</ele><time>2026-04-12T07:45:15.034Z</time></trkpt><trkpt lat="43.5332512" lon="11.7656099"><ele>286.8</ele><time>2026-04-12T07:45:16.034Z</time></trkpt><trkpt lat="43.5333339" lon="11.7655665"><ele>287.6</ele><time>2026-04-12T07:45:17.033Z</time></trkpt><trkpt lat="43.5334271" lon="11.765513"><ele>288.4</ele><time>2026-04-12T07:45:18.033Z</time></trkpt><trkpt lat="43.533521" lon="11.765457"><ele>289.2</ele><time>2026-04-12T07:45:19.033Z</time></trkpt><trkpt lat="43.5336162" lon="11.7654035"><ele>290.0</ele><time>2026-04-12T07:45:20.033Z</time></trkpt><trkpt lat="43.5337055" lon="11.7653616"><ele>290.5</ele><time>2026-04-12T07:45:21.033Z</time></trkpt><trkpt lat="43.5337876" lon="11.7653319"><ele>291.0</ele><time>2026-04-12T07:45:22.033Z</time></trkpt><trkpt lat="43.5338654" lon="11.7653045"><ele>291.5</ele><time>2026-04-12T07:45:23.034Z</time></trkpt><trkpt lat="43.5339423" lon="11.7652972"><ele>292.0</ele><time>2026-04-12T07:45:24.033Z</time></trkpt><trkpt lat="43.5340213" lon="11.7653173"><ele>292.5</ele><time>2026-04-12T07:45:25.033Z</time></trkpt><trkpt lat="43.5341112" lon="11.7653525"><ele>293.0</ele><time>2026-04-12T07:45:26.034Z</time></trkpt><trkpt lat="43.5342054" lon="11.7653981"><ele>293.0</ele><time>2026-04-12T07:45:27.033Z</time></trkpt><trkpt lat="43.5342911" lon="11.7654307"><ele>293.0</ele><time>2026-04-12T07:45:28.034Z</time></trkpt><trkpt lat="43.53438" lon="11.7654632"><ele>293.0</ele><time>2026-04-12T07:45:29.034Z</time></trkpt><trkpt lat="43.5344735" lon="11.7654998"><ele>293.0</ele><time>2026-04-12T07:45:30.033Z</time></trkpt><trkpt lat="43.5345721" lon="11.7655204"><ele>293.0</ele><time>2026-04-12T07:45:31.033Z</time></trkpt><trkpt lat="43.5346778" lon="11.7655449"><ele>292.2</ele><time>2026-04-12T07:45:32.034Z</time></trkpt><trkpt lat="43.5347832" lon="11.765584"><ele>291.4</ele><time>2026-04-12T07:45:33.033Z</time></trkpt><trkpt lat="43.5348904" lon="11.7656329"><ele>290.59999999999997</ele><time>2026-04-12T07:45:34.034Z</time></trkpt><trkpt lat="43.5349958" lon="11.7656892"><ele>289.8</ele><time>2026-04-12T07:45:35.033Z</time></trkpt><trkpt lat="43.5350912" lon="11.765749"><ele>289.0</ele><time>2026-04-12T07:45:36.033Z</time></trkpt><trkpt lat="43.5351787" lon="11.7658103"><ele>289.0</ele><time>2026-04-12T07:45:37.034Z</time></trkpt><trkpt lat="43.5352644" lon="11.765872"><ele>289.0</ele><time>2026-04-12T07:45:38.033Z</time></trkpt><trkpt lat="43.5353551" lon="11.7659265"><ele>289.0</ele><time>2026-04-12T07:45:39.034Z</time></trkpt><trkpt lat="43.5354509" lon="11.76597"><ele>289.0</ele><time>2026-04-12T07:45:40.033Z</time></trkpt><trkpt lat="43.5355539" lon="11.7660046"><ele>289.0</ele><time>2026-04-12T07:45:41.033Z</time></trkpt><trkpt lat="43.5356609" lon="11.7660346"><ele>290.59999999999997</ele><time>2026-04-12T07:45:42.034Z</time></trkpt><trkpt lat="43.5357661" lon="11.7660508"><ele>292.2</ele><time>2026-04-12T07:45:43.034Z</time></trkpt><trkpt lat="43.5358678" lon="11.7660571"><ele>293.79999999999995</ele><time>2026-04-12T07:45:44.033Z</time></trkpt><trkpt lat="43.5359705" lon="11.7660713"><ele>295.4</ele><time>2026-04-12T07:45:45.033Z</time></trkpt><trkpt lat="43.5360731" lon="11.7660984"><ele>297.0</ele><time>2026-04-12T07:45:46.033Z</time></trkpt><trkpt lat="43.536175" lon="11.766141"><ele>296.75</ele><time>2026-04-12T07:45:47.034Z</time></trkpt><trkpt lat="43.5362783" lon="11.7661955"><ele>296.5</ele><time>2026-04-12T07:45:48.033Z</time></trkpt><trkpt lat="43.5363917" lon="11.7662612"><ele>296.25</ele><time>2026-04-12T07:45:49.034Z</time></trkpt><trkpt lat="43.5364968" lon="11.7663254"><ele>296.0</ele><time>2026-04-12T07:45:50.033Z</time></trkpt><trkpt lat="43.5366013" lon="11.7663989"><ele>296.0</ele><time>2026-04-12T07:45:51.034Z</time></trkpt><trkpt lat="43.5367116" lon="11.7664755"><ele>296.0</ele><time>2026-04-12T07:45:52.033Z</time></trkpt><trkpt lat="43.5368267" lon="11.7665562"><ele>296.0</ele><time>2026-04-12T07:45:53.034Z</time></trkpt><trkpt lat="43.5369347" lon="11.7666327"><ele>296.0</ele><time>2026-04-12T07:45:54.034Z</time></trkpt><trkpt lat="43.5370445" lon="11.7667108"><ele>295.75</ele><time>2026-04-12T07:45:55.033Z</time></trkpt><trkpt lat="43.5371577" lon="11.766781"><ele>295.5</ele><time>2026-04-12T07:45:56.033Z</time></trkpt><trkpt lat="43.5372729" lon="11.7668246"><ele>295.25</ele><time>2026-04-12T07:45:57.034Z</time></trkpt><trkpt lat="43.537397" lon="11.7668777"><ele>295.0</ele><time>2026-04-12T07:45:58.033Z</time></trkpt><trkpt lat="43.5375263" lon="11.7668963"><ele>296.25</ele><time>2026-04-12T07:45:59.034Z</time></trkpt><trkpt lat="43.5376624" lon="11.7669423"><ele>297.5</ele><time>2026-04-12T07:46:00.034Z</time></trkpt><trkpt lat="43.5377999" lon="11.766985"><ele>298.75</ele><time>2026-04-12T07:46:01.033Z</time></trkpt><trkpt lat="43.5379211" lon="11.7670274"><ele>300.0</ele><time>2026-04-12T07:46:02.033Z</time></trkpt><trkpt lat="43.5380279" lon="11.7670759"><ele>300.0</ele><time>2026-04-12T07:46:03.033Z</time></trkpt><trkpt lat="43.5381284" lon="11.7671277"><ele>300.0</ele><time>2026-04-12T07:46:04.033Z</time></trkpt><trkpt lat="43.5382247" lon="11.7671938"><ele>300.0</ele><time>2026-04-12T07:46:05.033Z</time></trkpt><trkpt lat="43.5383216" lon="11.7672702"><ele>300.0</ele><time>2026-04-12T07:46:06.033Z</time></trkpt><trkpt lat="43.5384077" lon="11.7673488"><ele>300.0</ele><time>2026-04-12T07:46:07.033Z</time></trkpt><trkpt lat="43.5384896" lon="11.7674282"><ele>300.0</ele><time>2026-04-12T07:46:08.033Z</time></trkpt><trkpt lat="43.5385708" lon="11.7675086"><ele>300.0</ele><time>2026-04-12T07:46:09.033Z</time></trkpt><trkpt lat="43.5386334" lon="11.7675861"><ele>300.0</ele><time>2026-04-12T07:46:10.033Z</time></trkpt><trkpt lat="43.538687" lon="11.7676697"><ele>300.0</ele><time>2026-04-12T07:46:11.033Z</time></trkpt><trkpt lat="43.5387359" lon="11.7677582"><ele>300.0</ele><time>2026-04-12T07:46:12.033Z</time></trkpt><trkpt lat="43.5387596" lon="11.7678436"><ele>300.0</ele><time>2026-04-12T07:46:13.034Z</time></trkpt><trkpt lat="43.5387917" lon="11.7679476"><ele>301.1666666666667</ele><time>2026-04-12T07:46:14.033Z</time></trkpt><trkpt lat="43.5388293" lon="11.7680581"><ele>302.3333333333333</ele><time>2026-04-12T07:46:15.034Z</time></trkpt><trkpt lat="43.538877" lon="11.7681426"><ele>303.5</ele><time>2026-04-12T07:46:16.033Z</time></trkpt><trkpt lat="43.5389365" lon="11.7682196"><ele>304.66666666666663</ele><time>2026-04-12T07:46:17.033Z</time></trkpt><trkpt lat="43.5390021" lon="11.7682957"><ele>305.8333333333333</ele><time>2026-04-12T07:46:18.033Z</time></trkpt><trkpt lat="43.5390743" lon="11.7683599"><ele>307.0</ele><time>2026-04-12T07:46:19.034Z</time></trkpt><trkpt lat="43.5392034" lon="11.768449"><ele>308.5</ele><time>2026-04-12T07:46:20.033Z</time></trkpt><trkpt lat="43.5393147" lon="11.7685377"><ele>310.0</ele><time>2026-04-12T07:46:21.033Z</time></trkpt><trkpt lat="43.5394129" lon="11.7686254"><ele>311.5</ele><time>2026-04-12T07:46:22.033Z</time></trkpt><trkpt lat="43.5395261" lon="11.7687249"><ele>313.0</ele><time>2026-04-12T07:46:23.033Z</time></trkpt><trkpt lat="43.53964" lon="11.7688265"><ele>313.0</ele><time>2026-04-12T07:46:24.033Z</time></trkpt><trkpt lat="43.5397387" lon="11.7689074"><ele>313.0</ele><time>2026-04-12T07:46:25.033Z</time></trkpt><trkpt lat="43.5398288" lon="11.7689838"><ele>313.0</ele><time>2026-04-12T07:46:26.033Z</time></trkpt><trkpt lat="43.5399279" lon="11.7690672"><ele>313.0</ele><time>2026-04-12T07:46:27.034Z</time></trkpt><trkpt lat="43.5400359" lon="11.7691553"><ele>313.0</ele><time>2026-04-12T07:46:28.033Z</time></trkpt><trkpt lat="43.5401204" lon="11.7692294"><ele>313.0</ele><time>2026-04-12T07:46:29.034Z</time></trkpt><trkpt lat="43.5402089" lon="11.7692972"><ele>313.0</ele><time>2026-04-12T07:46:30.033Z</time></trkpt><trkpt lat="43.5403089" lon="11.7693507"><ele>313.0</ele><time>2026-04-12T07:46:31.033Z</time></trkpt><trkpt lat="43.5404172" lon="11.7694"><ele>313.0</ele><time>2026-04-12T07:46:32.034Z</time></trkpt><trkpt lat="43.5405259" lon="11.7694501"><ele>315.75</ele><time>2026-04-12T07:46:33.033Z</time></trkpt><trkpt lat="43.5406247" lon="11.7694944"><ele>318.5</ele><time>2026-04-12T07:46:34.034Z</time></trkpt><trkpt lat="43.5407285" lon="11.7695416"><ele>321.25</ele><time>2026-04-12T07:46:35.033Z</time></trkpt><trkpt lat="43.5408458" lon="11.769592"><ele>324.0</ele><time>2026-04-12T07:46:36.033Z</time></trkpt><trkpt lat="43.5409691" lon="11.7696393"><ele>324.0</ele><time>2026-04-12T07:46:37.034Z</time></trkpt><trkpt lat="43.5410887" lon="11.7696882"><ele>324.0</ele><time>2026-04-12T07:46:38.033Z</time></trkpt><trkpt lat="43.5412047" lon="11.7697385"><ele>324.0</ele><time>2026-04-12T07:46:39.033Z</time></trkpt><trkpt lat="43.5413095" lon="11.7697883"><ele>324.0</ele><time>2026-04-12T07:46:40.033Z</time></trkpt><trkpt lat="43.5414085" lon="11.7698347"><ele>322.5</ele><time>2026-04-12T07:46:41.033Z</time></trkpt><trkpt lat="43.5415059" lon="11.7698808"><ele>321.0</ele><time>2026-04-12T07:46:42.033Z</time></trkpt><trkpt lat="43.5416005" lon="11.7699307"><ele>319.5</ele><time>2026-04-12T07:46:43.033Z</time></trkpt><trkpt lat="43.5416784" lon="11.7699762"><ele>318.0</ele><time>2026-04-12T07:46:44.034Z</time></trkpt><trkpt lat="43.5417415" lon="11.7699981"><ele>316.5</ele><time>2026-04-12T07:46:45.034Z</time></trkpt><trkpt lat="43.5418109" lon="11.7699824"><ele>315.0</ele><time>2026-04-12T07:46:46.033Z</time></trkpt><trkpt lat="43.5418804" lon="11.7699377"><ele>315.0</ele><time>2026-04-12T07:46:47.033Z</time></trkpt><trkpt lat="43.5419415" lon="11.769868"><ele>315.0</ele><time>2026-04-12T07:46:48.033Z</time></trkpt><trkpt lat="43.5419904" lon="11.7697873"><ele>315.0</ele><time>2026-04-12T07:46:49.033Z</time></trkpt><trkpt lat="43.5420347" lon="11.7697251"><ele>315.0</ele><time>2026-04-12T07:46:50.033Z</time></trkpt><trkpt lat="43.5421458" lon="11.7696785"><ele>315.0</ele><time>2026-04-12T07:46:52.033Z</time></trkpt><trkpt lat="43.5422212" lon="11.7696877"><ele>315.0</ele><time>2026-04-12T07:46:53.034Z</time></trkpt><trkpt lat="43.5422957" lon="11.7696969"><ele>317.2</ele><time>2026-04-12T07:46:54.033Z</time></trkpt><trkpt lat="43.5423625" lon="11.7697077"><ele>319.4</ele><time>2026-04-12T07:46:55.033Z</time></trkpt><trkpt lat="43.5424625" lon="11.7697955"><ele>321.6</ele><time>2026-04-12T07:46:57.033Z</time></trkpt><trkpt lat="43.5424975" lon="11.7699415"><ele>323.8</ele><time>2026-04-12T07:46:59.033Z</time></trkpt><trkpt lat="43.5424548" lon="11.7700819"><ele>326.0</ele><time>2026-04-12T07:47:01.033Z</time></trkpt><trkpt lat="43.5423845" lon="11.7701461"><ele>328.1666666666667</ele><time>2026-04-12T07:47:02.033Z</time></trkpt><trkpt lat="43.5423359" lon="11.7702135"><ele>330.33333333333337</ele><time>2026-04-12T07:47:03.033Z</time></trkpt><trkpt lat="43.542302" lon="11.7703819"><ele>332.5</ele><time>2026-04-12T07:47:05.034Z</time></trkpt><trkpt lat="43.5423029" lon="11.7704949"><ele>334.6666666666667</ele><time>2026-04-12T07:47:06.033Z</time></trkpt><trkpt lat="43.5423001" lon="11.7706128"><ele>336.8333333333333</ele><time>2026-04-12T07:47:07.033Z</time></trkpt><trkpt lat="43.5422887" lon="11.7707114"><ele>339.0</ele><time>2026-04-12T07:47:08.034Z</time></trkpt><trkpt lat="43.542278" lon="11.7707981"><ele>339.0</ele><time>2026-04-12T07:47:09.034Z</time></trkpt><trkpt lat="43.5422864" lon="11.7708901"><ele>339.0</ele><time>2026-04-12T07:47:10.033Z</time></trkpt><trkpt lat="43.5423136" lon="11.7710015"><ele>339.0</ele><time>2026-04-12T07:47:11.034Z</time></trkpt><trkpt lat="43.5423542" lon="11.7711242"><ele>339.0</ele><time>2026-04-12T07:47:12.034Z</time></trkpt><trkpt lat="43.542392" lon="11.7712234"><ele>339.0</ele><time>2026-04-12T07:47:13.033Z</time></trkpt><trkpt lat="43.5424208" lon="11.7713138"><ele>339.0</ele><time>2026-04-12T07:47:14.033Z</time></trkpt><trkpt lat="43.5424326" lon="11.7714008"><ele>339.0</ele><time>2026-04-12T07:47:15.033Z</time></trkpt><trkpt lat="43.542461" lon="11.7715506"><ele>339.0</ele><time>2026-04-12T07:47:17.033Z</time></trkpt><trkpt lat="43.542539" lon="11.771728"><ele>339.0</ele><time>2026-04-12T07:47:19.033Z</time></trkpt><trkpt lat="43.5425864" lon="11.7718455"><ele>339.0</ele><time>2026-04-12T07:47:20.033Z</time></trkpt><trkpt lat="43.5426496" lon="11.7719664"><ele>339.0</ele><time>2026-04-12T07:47:21.033Z</time></trkpt><trkpt lat="43.5427085" lon="11.7720755"><ele>339.0</ele><time>2026-04-12T07:47:22.033Z</time></trkpt><trkpt lat="43.5427658" lon="11.7721765"><ele>339.0</ele><time>2026-04-12T07:47:23.033Z</time></trkpt><trkpt lat="43.5428328" lon="11.7722799"><ele>339.0</ele><time>2026-04-12T07:47:24.034Z</time></trkpt><trkpt lat="43.542904" lon="11.7723815"><ele>339.0</ele><time>2026-04-12T07:47:25.034Z</time></trkpt><trkpt lat="43.5429693" lon="11.772479"><ele>342.1666666666667</ele><time>2026-04-12T07:47:26.033Z</time></trkpt><trkpt lat="43.5430275" lon="11.7725605"><ele>345.3333333333333</ele><time>2026-04-12T07:47:27.034Z</time></trkpt><trkpt lat="43.543086" lon="11.7726358"><ele>348.5</ele><time>2026-04-12T07:47:28.034Z</time></trkpt><trkpt lat="43.5431374" lon="11.7727074"><ele>351.66666666666663</ele><time>2026-04-12T07:47:29.033Z</time></trkpt><trkpt lat="43.5432107" lon="11.7727965"><ele>354.8333333333333</ele><time>2026-04-12T07:47:31.033Z</time></trkpt><trkpt lat="43.5432931" lon="11.7728084"><ele>358.0</ele><time>2026-04-12T07:47:35.034Z</time></trkpt><trkpt lat="43.5433408" lon="11.7727384"><ele>359.59999999999997</ele><time>2026-04-12T07:47:37.033Z</time></trkpt><trkpt lat="43.543313" lon="11.7726352"><ele>361.2</ele><time>2026-04-12T07:47:39.034Z</time></trkpt><trkpt lat="43.543279" lon="11.7724766"><ele>362.8</ele><time>2026-04-12T07:47:41.033Z</time></trkpt><trkpt lat="43.54326" lon="11.7723054"><ele>364.4</ele><time>2026-04-12T07:47:43.034Z</time></trkpt><trkpt lat="43.5432506" lon="11.7722116"><ele>366.0</ele><time>2026-04-12T07:47:44.034Z</time></trkpt><trkpt lat="43.5432469" lon="11.7721011"><ele>366.0</ele><time>2026-04-12T07:47:45.033Z</time></trkpt><trkpt lat="43.543243" lon="11.7719803"><ele>366.0</ele><time>2026-04-12T07:47:46.033Z</time></trkpt><trkpt lat="43.5432474" lon="11.7718632"><ele>366.0</ele><time>2026-04-12T07:47:47.034Z</time></trkpt><trkpt lat="43.5432542" lon="11.7717628"><ele>366.0</ele><time>2026-04-12T07:47:48.033Z</time></trkpt><trkpt lat="43.5432612" lon="11.7716596"><ele>366.0</ele><time>2026-04-12T07:47:49.033Z</time></trkpt><trkpt lat="43.543267" lon="11.7715601"><ele>366.0</ele><time>2026-04-12T07:47:50.034Z</time></trkpt><trkpt lat="43.5433157" lon="11.7714008"><ele>367.1666666666667</ele><time>2026-04-12T07:47:52.033Z</time></trkpt><trkpt lat="43.5433541" lon="11.7713309"><ele>368.3333333333333</ele><time>2026-04-12T07:47:53.033Z</time></trkpt><trkpt lat="43.5434034" lon="11.7712714"><ele>369.5</ele><time>2026-04-12T07:47:54.033Z</time></trkpt><trkpt lat="43.5435177" lon="11.7711994"><ele>370.66666666666663</ele><time>2026-04-12T07:47:56.034Z</time></trkpt><trkpt lat="43.543581" lon="11.7711681"><ele>371.8333333333333</ele><time>2026-04-12T07:47:57.033Z</time></trkpt><trkpt lat="43.5436486" lon="11.7711533"><ele>373.0</ele><time>2026-04-12T07:47:58.033Z</time></trkpt><trkpt lat="43.5437119" lon="11.7711433"><ele>376.2</ele><time>2026-04-12T07:47:59.033Z</time></trkpt><trkpt lat="43.5438262" lon="11.7711887"><ele>379.4</ele><time>2026-04-12T07:48:01.033Z</time></trkpt><trkpt lat="43.5439323" lon="11.7712688"><ele>382.59999999999997</ele><time>2026-04-12T07:48:03.034Z</time></trkpt><trkpt lat="43.5439935" lon="11.7713068"><ele>385.79999999999995</ele><time>2026-04-12T07:48:04.034Z</time></trkpt><trkpt lat="43.5440596" lon="11.7713446"><ele>389.0</ele><time>2026-04-12T07:48:05.034Z</time></trkpt><trkpt lat="43.544129" lon="11.771386"><ele>389.0</ele><time>2026-04-12T07:48:06.033Z</time></trkpt><trkpt lat="43.5441942" lon="11.7714267"><ele>389.0</ele><time>2026-04-12T07:48:07.034Z</time></trkpt><trkpt lat="43.5442997" lon="11.7715069"><ele>389.0</ele><time>2026-04-12T07:48:09.033Z</time></trkpt><trkpt lat="43.5443598" lon="11.7715606"><ele>389.0</ele><time>2026-04-12T07:48:10.034Z</time></trkpt><trkpt lat="43.5444705" lon="11.7716694"><ele>389.0</ele><time>2026-04-12T07:48:12.033Z</time></trkpt><trkpt lat="43.5445471" lon="11.7717872"><ele>390.8333333333333</ele><time>2026-04-12T07:48:14.033Z</time></trkpt><trkpt lat="43.5445847" lon="11.7719431"><ele>392.66666666666663</ele><time>2026-04-12T07:48:16.033Z</time></trkpt><trkpt lat="43.5446014" lon="11.7720354"><ele>394.5</ele><time>2026-04-12T07:48:17.034Z</time></trkpt><trkpt lat="43.5446096" lon="11.7721333"><ele>396.33333333333337</ele><time>2026-04-12T07:48:18.033Z</time></trkpt><trkpt lat="43.5446142" lon="11.7722305"><ele>398.1666666666667</ele><time>2026-04-12T07:48:19.034Z</time></trkpt><trkpt lat="43.5446179" lon="11.7723177"><ele>400.0</ele><time>2026-04-12T07:48:20.034Z</time></trkpt><trkpt lat="43.5446447" lon="11.7724685"><ele>400.0</ele><time>2026-04-12T07:48:22.034Z</time></trkpt><trkpt lat="43.5446969" lon="11.7726125"><ele>400.0</ele><time>2026-04-12T07:48:24.033Z</time></trkpt><trkpt lat="43.5447691" lon="11.7727545"><ele>400.0</ele><time>2026-04-12T07:48:26.033Z</time></trkpt><trkpt lat="43.5448439" lon="11.7728971"><ele>400.0</ele><time>2026-04-12T07:48:28.033Z</time></trkpt><trkpt lat="43.5448877" lon="11.7729794"><ele>400.0</ele><time>2026-04-12T07:48:29.033Z</time></trkpt><trkpt lat="43.5449266" lon="11.7730492"><ele>400.2</ele><time>2026-04-12T07:48:30.034Z</time></trkpt><trkpt lat="43.5450042" lon="11.7731906"><ele>400.4</ele><time>2026-04-12T07:48:32.033Z</time></trkpt><trkpt lat="43.5450464" lon="11.773264"><ele>400.6</ele><time>2026-04-12T07:48:33.034Z</time></trkpt><trkpt lat="43.5450885" lon="11.7733327"><ele>400.8</ele><time>2026-04-12T07:48:34.033Z</time></trkpt><trkpt lat="43.5451604" lon="11.7734685"><ele>401.0</ele><time>2026-04-12T07:48:36.034Z</time></trkpt><trkpt lat="43.5452361" lon="11.7735968"><ele>401.0</ele><time>2026-04-12T07:48:38.033Z</time></trkpt><trkpt lat="43.5453219" lon="11.7736983"><ele>401.0</ele><time>2026-04-12T07:48:40.034Z</time></trkpt><trkpt lat="43.5454208" lon="11.7737746"><ele>401.0</ele><time>2026-04-12T07:48:42.034Z</time></trkpt><trkpt lat="43.5455289" lon="11.7738328"><ele>401.0</ele><time>2026-04-12T07:48:44.034Z</time></trkpt><trkpt lat="43.5456473" lon="11.7738599"><ele>407.5</ele><time>2026-04-12T07:48:46.033Z</time></trkpt><trkpt lat="43.5457598" lon="11.7738453"><ele>414.0</ele><time>2026-04-12T07:48:48.034Z</time></trkpt><trkpt lat="43.5458756" lon="11.7738281"><ele>420.5</ele><time>2026-04-12T07:48:50.033Z</time></trkpt><trkpt lat="43.5459982" lon="11.7738173"><ele>427.0</ele><time>2026-04-12T07:48:52.034Z</time></trkpt><trkpt lat="43.5461049" lon="11.7737881"><ele>427.0</ele><time>2026-04-12T07:48:54.034Z</time></trkpt><trkpt lat="43.5461865" lon="11.7737058"><ele>427.00000000000006</ele><time>2026-04-12T07:48:56.033Z</time></trkpt><trkpt lat="43.5462482" lon="11.7735792"><ele>427.00000000000006</ele><time>2026-04-12T07:48:58.033Z</time></trkpt><trkpt lat="43.5463207" lon="11.7734444"><ele>427.0</ele><time>2026-04-12T07:49:00.033Z</time></trkpt><trkpt lat="43.5464204" lon="11.7733813"><ele>427.0</ele><time>2026-04-12T07:49:02.033Z</time></trkpt><trkpt lat="43.546538" lon="11.7733776"><ele>430.75</ele><time>2026-04-12T07:49:04.033Z</time></trkpt><trkpt lat="43.546639" lon="11.7734186"><ele>434.5</ele><time>2026-04-12T07:49:06.033Z</time></trkpt><trkpt lat="43.5466862" lon="11.7735403"><ele>438.25</ele><time>2026-04-12T07:49:08.034Z</time></trkpt><trkpt lat="43.546704" lon="11.7737034"><ele>442.0</ele><time>2026-04-12T07:49:10.034Z</time></trkpt><trkpt lat="43.5467394" lon="11.7738749"><ele>443.8</ele><time>2026-04-12T07:49:12.034Z</time></trkpt><trkpt lat="43.5467808" lon="11.7740306"><ele>445.6</ele><time>2026-04-12T07:49:14.034Z</time></trkpt><trkpt lat="43.5468119" lon="11.7741063"><ele>447.40000000000003</ele><time>2026-04-12T07:49:15.034Z</time></trkpt><trkpt lat="43.5468921" lon="11.7742344"><ele>449.20000000000005</ele><time>2026-04-12T07:49:17.034Z</time></trkpt><trkpt lat="43.5469781" lon="11.7743511"><ele>451.0</ele><time>2026-04-12T07:49:19.033Z</time></trkpt><trkpt lat="43.5470393" lon="11.7744098"><ele>457.00000000000006</ele><time>2026-04-12T07:49:20.033Z</time></trkpt><trkpt lat="43.5470824" lon="11.774489"><ele>463.0</ele><time>2026-04-12T07:49:21.034Z</time></trkpt><trkpt lat="43.5471266" lon="11.7745597"><ele>469.0</ele><time>2026-04-12T07:49:22.033Z</time></trkpt><trkpt lat="43.5471584" lon="11.77464"><ele>475.0</ele><time>2026-04-12T07:49:23.034Z</time></trkpt><trkpt lat="43.5471909" lon="11.7747978"><ele>481.00000000000006</ele><time>2026-04-12T07:49:25.034Z</time></trkpt><trkpt lat="43.5472135" lon="11.7748859"><ele>487.0</ele><time>2026-04-12T07:49:26.033Z</time></trkpt><trkpt lat="43.5471943" lon="11.7749749"><ele>487.00000000000006</ele><time>2026-04-12T07:49:27.033Z</time></trkpt><trkpt lat="43.5471899" lon="11.7750643"><ele>487.0</ele><time>2026-04-12T07:49:28.033Z</time></trkpt><trkpt lat="43.5471885" lon="11.7751532"><ele>487.0</ele><time>2026-04-12T07:49:29.033Z</time></trkpt><trkpt lat="43.5471796" lon="11.7752461"><ele>487.0</ele><time>2026-04-12T07:49:30.033Z</time></trkpt><trkpt lat="43.5471107" lon="11.7753942"><ele>487.00000000000006</ele><time>2026-04-12T07:49:32.033Z</time></trkpt><trkpt lat="43.547061" lon="11.7754592"><ele>487.0</ele><time>2026-04-12T07:49:33.034Z</time></trkpt><trkpt lat="43.5469776" lon="11.7755708"><ele>485.8</ele><time>2026-04-12T07:49:35.033Z</time></trkpt><trkpt lat="43.5469206" lon="11.7757216"><ele>484.6</ele><time>2026-04-12T07:49:37.034Z</time></trkpt><trkpt lat="43.5468882" lon="11.7757994"><ele>483.40000000000003</ele><time>2026-04-12T07:49:38.034Z</time></trkpt><trkpt lat="43.5468486" lon="11.7759456"><ele>482.20000000000005</ele><time>2026-04-12T07:49:40.034Z</time></trkpt><trkpt lat="43.5468476" lon="11.7760972"><ele>481.0</ele><time>2026-04-12T07:49:42.033Z</time></trkpt><trkpt lat="43.5468856" lon="11.776257"><ele>481.0</ele><time>2026-04-12T07:49:44.033Z</time></trkpt><trkpt lat="43.5469161" lon="11.7763929"><ele>481.0</ele><time>2026-04-12T07:49:46.033Z</time></trkpt><trkpt lat="43.546952" lon="11.7765449"><ele>481.0</ele><time>2026-04-12T07:49:48.033Z</time></trkpt><trkpt lat="43.5469798" lon="11.7766976"><ele>481.0</ele><time>2026-04-12T07:49:50.034Z</time></trkpt><trkpt lat="43.5470171" lon="11.7768571"><ele>482.4</ele><time>2026-04-12T07:49:52.034Z</time></trkpt><trkpt lat="43.5470401" lon="11.7769498"><ele>483.8</ele><time>2026-04-12T07:49:53.033Z</time></trkpt><trkpt lat="43.5470706" lon="11.7770385"><ele>485.19999999999993</ele><time>2026-04-12T07:49:54.033Z</time></trkpt><trkpt lat="43.5471318" lon="11.7771763"><ele>486.59999999999997</ele><time>2026-04-12T07:49:56.033Z</time></trkpt><trkpt lat="43.5472017" lon="11.7772629"><ele>488.0</ele><time>2026-04-12T07:49:58.033Z</time></trkpt><trkpt lat="43.5472972" lon="11.7773269"><ele>493.2</ele><time>2026-04-12T07:50:00.034Z</time></trkpt><trkpt lat="43.5474062" lon="11.7773704"><ele>498.4</ele><time>2026-04-12T07:50:02.034Z</time></trkpt><trkpt lat="43.5475289" lon="11.7773627"><ele>503.59999999999997</ele><time>2026-04-12T07:50:04.033Z</time></trkpt><trkpt lat="43.547593" lon="11.7773734"><ele>508.79999999999995</ele><time>2026-04-12T07:50:05.033Z</time></trkpt><trkpt lat="43.5476836" lon="11.7774447"><ele>514.0</ele><time>2026-04-12T07:50:07.033Z</time></trkpt><trkpt lat="43.5477657" lon="11.7775401"><ele>514.0</ele><time>2026-04-12T07:50:09.033Z</time></trkpt><trkpt lat="43.5478524" lon="11.7776027"><ele>514.0</ele><time>2026-04-12T07:50:11.033Z</time></trkpt><trkpt lat="43.5479112" lon="11.7776402"><ele>514.0</ele><time>2026-04-12T07:50:12.033Z</time></trkpt><trkpt lat="43.5479959" lon="11.7776649"><ele>514.0</ele><time>2026-04-12T07:50:13.033Z</time></trkpt><trkpt lat="43.5480792" lon="11.7776766"><ele>514.0</ele><time>2026-04-12T07:50:14.033Z</time></trkpt><trkpt lat="43.5481416" lon="11.7776956"><ele>514.0</ele><time>2026-04-12T07:50:15.033Z</time></trkpt><trkpt lat="43.5482531" lon="11.7777369"><ele>514.8333333333334</ele><time>2026-04-12T07:50:17.033Z</time></trkpt><trkpt lat="43.5483567" lon="11.7777712"><ele>515.6666666666667</ele><time>2026-04-12T07:50:19.034Z</time></trkpt><trkpt lat="43.5484264" lon="11.777762"><ele>516.5</ele><time>2026-04-12T07:50:20.033Z</time></trkpt><trkpt lat="43.5484978" lon="11.7777557"><ele>517.3333333333334</ele><time>2026-04-12T07:50:21.033Z</time></trkpt><trkpt lat="43.5485904" lon="11.7777371"><ele>518.1666666666666</ele><time>2026-04-12T07:50:22.033Z</time></trkpt><trkpt lat="43.5486618" lon="11.7777164"><ele>519.0</ele><time>2026-04-12T07:50:23.033Z</time></trkpt><trkpt lat="43.5487382" lon="11.7776959"><ele>523.0</ele><time>2026-04-12T07:50:24.034Z</time></trkpt><trkpt lat="43.5488345" lon="11.7776359"><ele>527.0</ele><time>2026-04-12T07:50:26.033Z</time></trkpt><trkpt lat="43.5489479" lon="11.7775755"><ele>531.0</ele><time>2026-04-12T07:50:28.033Z</time></trkpt><trkpt lat="43.5490015" lon="11.7775111"><ele>535.0</ele><time>2026-04-12T07:50:29.034Z</time></trkpt><trkpt lat="43.5490516" lon="11.7774583"><ele>539.0</ele><time>2026-04-12T07:50:30.033Z</time></trkpt><trkpt lat="43.5491005" lon="11.7773986"><ele>543.0</ele><time>2026-04-12T07:50:31.033Z</time></trkpt><trkpt lat="43.5491904" lon="11.7772738"><ele>543.0</ele><time>2026-04-12T07:50:33.033Z</time></trkpt><trkpt lat="43.549243" lon="11.7772245"><ele>543.0</ele><time>2026-04-12T07:50:34.033Z</time></trkpt><trkpt lat="43.5493048" lon="11.777185"><ele>543.0</ele><time>2026-04-12T07:50:35.033Z</time></trkpt><trkpt lat="43.5493892" lon="11.7771779"><ele>543.0</ele><time>2026-04-12T07:50:36.033Z</time></trkpt><trkpt lat="43.5494755" lon="11.7771677"><ele>543.0</ele><time>2026-04-12T07:50:37.033Z</time></trkpt><trkpt lat="43.5495545" lon="11.7771595"><ele>543.0</ele><time>2026-04-12T07:50:38.033Z</time></trkpt><trkpt lat="43.5496311" lon="11.7771493"><ele>544.6666666666666</ele><time>2026-04-12T07:50:39.033Z</time></trkpt><trkpt lat="43.549711" lon="11.7771329"><ele>546.3333333333334</ele><time>2026-04-12T07:50:40.033Z</time></trkpt><trkpt lat="43.5497939" lon="11.7771177"><ele>548.0</ele><time>2026-04-12T07:50:41.033Z</time></trkpt><trkpt lat="43.5498764" lon="11.7771181"><ele>549.6666666666667</ele><time>2026-04-12T07:50:42.033Z</time></trkpt><trkpt lat="43.5499439" lon="11.7771119"><ele>551.3333333333334</ele><time>2026-04-12T07:50:43.033Z</time></trkpt><trkpt lat="43.5500534" lon="11.7770477"><ele>553.0</ele><time>2026-04-12T07:50:45.033Z</time></trkpt><trkpt lat="43.5501782" lon="11.7770633"><ele>553.0</ele><time>2026-04-12T07:50:47.033Z</time></trkpt><trkpt lat="43.5502825" lon="11.7771498"><ele>553.0</ele><time>2026-04-12T07:50:49.034Z</time></trkpt><trkpt lat="43.5503333" lon="11.7772202"><ele>553.0</ele><time>2026-04-12T07:50:50.033Z</time></trkpt><trkpt lat="43.5503933" lon="11.777293"><ele>553.0</ele><time>2026-04-12T07:50:51.033Z</time></trkpt><trkpt lat="43.5504511" lon="11.7773561"><ele>553.0</ele><time>2026-04-12T07:50:52.033Z</time></trkpt><trkpt lat="43.5505095" lon="11.7774202"><ele>553.0</ele><time>2026-04-12T07:50:53.034Z</time></trkpt><trkpt lat="43.5505747" lon="11.7774925"><ele>553.8333333333334</ele><time>2026-04-12T07:50:54.034Z</time></trkpt><trkpt lat="43.550633" lon="11.7775483"><ele>554.6666666666667</ele><time>2026-04-12T07:50:55.033Z</time></trkpt><trkpt lat="43.5506913" lon="11.7775892"><ele>555.5</ele><time>2026-04-12T07:50:56.034Z</time></trkpt><trkpt lat="43.5508165" lon="11.7776275"><ele>556.3333333333334</ele><time>2026-04-12T07:50:58.034Z</time></trkpt><trkpt lat="43.5508921" lon="11.777639"><ele>557.1666666666666</ele><time>2026-04-12T07:50:59.033Z</time></trkpt><trkpt lat="43.5509641" lon="11.7776559"><ele>558.0</ele><time>2026-04-12T07:51:00.033Z</time></trkpt><trkpt lat="43.5510802" lon="11.7776929"><ele>558.0</ele><time>2026-04-12T07:51:02.034Z</time></trkpt><trkpt lat="43.5511893" lon="11.7777251"><ele>558.0</ele><time>2026-04-12T07:51:04.033Z</time></trkpt><trkpt lat="43.5512907" lon="11.7777811"><ele>558.0</ele><time>2026-04-12T07:51:06.033Z</time></trkpt><trkpt lat="43.5513804" lon="11.7778964"><ele>558.0</ele><time>2026-04-12T07:51:08.034Z</time></trkpt><trkpt lat="43.5514417" lon="11.778015"><ele>558.0</ele><time>2026-04-12T07:51:10.033Z</time></trkpt><trkpt lat="43.5515175" lon="11.7781244"><ele>563.1999999999999</ele><time>2026-04-12T07:51:12.034Z</time></trkpt><trkpt lat="43.5516223" lon="11.7781716"><ele>568.4</ele><time>2026-04-12T07:51:14.033Z</time></trkpt><trkpt lat="43.5516612" lon="11.7783368"><ele>573.5999999999999</ele><time>2026-04-12T07:51:16.034Z</time></trkpt><trkpt lat="43.5516771" lon="11.7784364"><ele>578.8</ele><time>2026-04-12T07:51:17.033Z</time></trkpt><trkpt lat="43.5517161" lon="11.7785799"><ele>584.0</ele><time>2026-04-12T07:51:19.033Z</time></trkpt><trkpt lat="43.5518066" lon="11.7786978"><ele>584.0</ele><time>2026-04-12T07:51:21.033Z</time></trkpt><trkpt lat="43.5518608" lon="11.778777"><ele>584.0</ele><time>2026-04-12T07:51:22.033Z</time></trkpt><trkpt lat="43.5519059" lon="11.7788538"><ele>584.0</ele><time>2026-04-12T07:51:23.034Z</time></trkpt><trkpt lat="43.5519878" lon="11.7789905"><ele>584.0</ele><time>2026-04-12T07:51:25.033Z</time></trkpt><trkpt lat="43.5520525" lon="11.779117"><ele>584.0</ele><time>2026-04-12T07:51:27.033Z</time></trkpt><trkpt lat="43.552129" lon="11.7791998"><ele>588.3333333333333</ele><time>2026-04-12T07:51:29.034Z</time></trkpt><trkpt lat="43.5521895" lon="11.7792503"><ele>592.6666666666666</ele><time>2026-04-12T07:51:30.033Z</time></trkpt><trkpt lat="43.5522456" lon="11.7792925"><ele>597.0</ele><time>2026-04-12T07:51:31.033Z</time></trkpt><trkpt lat="43.5523578" lon="11.7793381"><ele>601.3333333333334</ele><time>2026-04-12T07:51:33.033Z</time></trkpt><trkpt lat="43.5524524" lon="11.7794227"><ele>605.6666666666667</ele><time>2026-04-12T07:51:35.033Z</time></trkpt><trkpt lat="43.5524913" lon="11.7795009"><ele>610.0</ele><time>2026-04-12T07:51:36.033Z</time></trkpt><trkpt lat="43.5525251" lon="11.7795752"><ele>610.0</ele><time>2026-04-12T07:51:37.033Z</time></trkpt><trkpt lat="43.5526045" lon="11.7796676"><ele>610.0</ele><time>2026-04-12T07:51:39.033Z</time></trkpt><trkpt lat="43.5527019" lon="11.7797547"><ele>610.0</ele><time>2026-04-12T07:51:41.033Z</time></trkpt><trkpt lat="43.5527842" lon="11.7798543"><ele>610.0</ele><time>2026-04-12T07:51:43.033Z</time></trkpt><trkpt lat="43.5528559" lon="11.7799574"><ele>610.0</ele><time>2026-04-12T07:51:45.033Z</time></trkpt><trkpt lat="43.552927" lon="11.7799819"><ele>614.5</ele><time>2026-04-12T07:51:46.033Z</time></trkpt><trkpt lat="43.5529977" lon="11.7800039"><ele>619.0</ele><time>2026-04-12T07:51:47.033Z</time></trkpt><trkpt lat="43.5530647" lon="11.7800297"><ele>623.5</ele><time>2026-04-12T07:51:48.033Z</time></trkpt><trkpt lat="43.5531293" lon="11.7800574"><ele>628.0</ele><time>2026-04-12T07:51:49.033Z</time></trkpt><trkpt lat="43.553203" lon="11.7801219"><ele>632.5</ele><time>2026-04-12T07:51:51.034Z</time></trkpt><trkpt lat="43.5532756" lon="11.7801754"><ele>637.0</ele><time>2026-04-12T07:54:22.034Z</time></trkpt><trkpt lat="43.5533217" lon="11.7802721"><ele>638.0</ele><time>2026-04-12T07:54:25.034Z</time></trkpt><trkpt lat="43.5532738" lon="11.7803481"><ele>639.0</ele><time>2026-04-12T07:54:38.033Z</time></trkpt><trkpt lat="43.5531887" lon="11.7803743"><ele>640.0</ele><time>2026-04-12T07:54:40.034Z</time></trkpt><trkpt lat="43.5531269" lon="11.7804683"><ele>641.0</ele><time>2026-04-12T07:56:18.033Z</time></trkpt><trkpt lat="43.5530148" lon="11.7804405"><ele>642.0</ele><time>2026-04-12T07:56:51.034Z</time></trkpt><trkpt lat="43.5529022" lon="11.7804499"><ele>639.0</ele><time>2026-04-12T07:56:52.033Z</time></trkpt><trkpt lat="43.5528123" lon="11.7804582"><ele>636.0</ele><time>2026-04-12T07:56:53.033Z</time></trkpt><trkpt lat="43.5527255" lon="11.7804663"><ele>633.0</ele><time>2026-04-12T07:56:54.033Z</time></trkpt><trkpt lat="43.5526465" lon="11.7804769"><ele>630.0</ele><time>2026-04-12T07:56:55.033Z</time></trkpt><trkpt lat="43.5525698" lon="11.7804885"><ele>627.0</ele><time>2026-04-12T07:56:56.034Z</time></trkpt><trkpt lat="43.5524971" lon="11.7805118"><ele>624.0</ele><time>2026-04-12T07:56:57.033Z</time></trkpt><trkpt lat="43.5524193" lon="11.7805365"><ele>624.0</ele><time>2026-04-12T07:56:58.033Z</time></trkpt><trkpt lat="43.5523514" lon="11.7805756"><ele>624.0</ele><time>2026-04-12T07:56:59.033Z</time></trkpt><trkpt lat="43.5522839" lon="11.7806177"><ele>624.0</ele><time>2026-04-12T07:57:00.033Z</time></trkpt><trkpt lat="43.5521961" lon="11.7806956"><ele>624.0</ele><time>2026-04-12T07:57:02.034Z</time></trkpt><trkpt lat="43.5521454" lon="11.7807911"><ele>624.0</ele><time>2026-04-12T07:57:04.033Z</time></trkpt><trkpt lat="43.5521618" lon="11.780896"><ele>624.0</ele><time>2026-04-12T07:57:06.034Z</time></trkpt><trkpt lat="43.552238" lon="11.7809717"><ele>624.6</ele><time>2026-04-12T07:57:08.033Z</time></trkpt><trkpt lat="43.5523331" lon="11.7810652"><ele>625.2</ele><time>2026-04-12T07:57:10.033Z</time></trkpt><trkpt lat="43.55242" lon="11.7811485"><ele>625.8000000000001</ele><time>2026-04-12T07:57:12.033Z</time></trkpt><trkpt lat="43.5524823" lon="11.7811881"><ele>626.4</ele><time>2026-04-12T07:57:51.033Z</time></trkpt><trkpt lat="43.5525076" lon="11.7813015"><ele>627.0</ele><time>2026-04-12T07:58:04.034Z</time></trkpt><trkpt lat="43.5525465" lon="11.7814347"><ele>627.0</ele><time>2026-04-12T07:58:06.034Z</time></trkpt><trkpt lat="43.5526154" lon="11.781551"><ele>627.0</ele><time>2026-04-12T07:58:08.034Z</time></trkpt><trkpt lat="43.5526473" lon="11.7817116"><ele>627.0</ele><time>2026-04-12T07:58:10.033Z</time></trkpt><trkpt lat="43.5526361" lon="11.7818091"><ele>627.0</ele><time>2026-04-12T07:58:11.034Z</time></trkpt><trkpt lat="43.552631" lon="11.781902"><ele>627.0</ele><time>2026-04-12T07:58:12.033Z</time></trkpt><trkpt lat="43.5526276" lon="11.7820105"><ele>627.0</ele><time>2026-04-12T07:58:13.034Z</time></trkpt><trkpt lat="43.5526234" lon="11.7821145"><ele>627.5</ele><time>2026-04-12T07:58:14.034Z</time></trkpt><trkpt lat="43.5526299" lon="11.7822145"><ele>628.0</ele><time>2026-04-12T07:58:15.033Z</time></trkpt><trkpt lat="43.5526021" lon="11.782352"><ele>628.5</ele><time>2026-04-12T07:58:17.033Z</time></trkpt><trkpt lat="43.5525402" lon="11.7824645"><ele>629.0</ele><time>2026-04-12T07:58:19.033Z</time></trkpt><trkpt lat="43.5524733" lon="11.7825135"><ele>629.5</ele><time>2026-04-12T07:58:20.033Z</time></trkpt><trkpt lat="43.5524094" lon="11.7825781"><ele>630.0</ele><time>2026-04-12T07:58:21.033Z</time></trkpt><trkpt lat="43.5523705" lon="11.7826474"><ele>630.7142857142857</ele><time>2026-04-12T07:58:22.033Z</time></trkpt><trkpt lat="43.5523354" lon="11.7827226"><ele>631.4285714285714</ele><time>2026-04-12T07:58:23.033Z</time></trkpt><trkpt lat="43.5522947" lon="11.782797"><ele>632.1428571428571</ele><time>2026-04-12T07:58:24.033Z</time></trkpt><trkpt lat="43.5522586" lon="11.7828776"><ele>632.8571428571429</ele><time>2026-04-12T07:58:25.033Z</time></trkpt><trkpt lat="43.5522232" lon="11.7829598"><ele>633.5714285714286</ele><time>2026-04-12T07:58:26.033Z</time></trkpt><trkpt lat="43.5521896" lon="11.7830378"><ele>634.2857142857142</ele><time>2026-04-12T07:58:27.033Z</time></trkpt><trkpt lat="43.5521539" lon="11.7831784"><ele>635.0</ele><time>2026-04-12T07:58:29.033Z</time></trkpt><trkpt lat="43.5521698" lon="11.783337"><ele>635.0</ele><time>2026-04-12T07:58:31.034Z</time></trkpt><trkpt lat="43.5521826" lon="11.7834482"><ele>635.0</ele><time>2026-04-12T07:58:32.033Z</time></trkpt><trkpt lat="43.5521868" lon="11.7835615"><ele>635.0</ele><time>2026-04-12T07:58:33.033Z</time></trkpt><trkpt lat="43.5521976" lon="11.7836688"><ele>635.0</ele><time>2026-04-12T07:58:34.033Z</time></trkpt><trkpt lat="43.5522192" lon="11.7837723"><ele>635.0</ele><time>2026-04-12T07:58:35.033Z</time></trkpt><trkpt lat="43.5522492" lon="11.7838722"><ele>635.0</ele><time>2026-04-12T07:58:36.033Z</time></trkpt><trkpt lat="43.5522777" lon="11.7839647"><ele>635.0</ele><time>2026-04-12T07:58:37.033Z</time></trkpt><trkpt lat="43.5522971" lon="11.7841278"><ele>635.0</ele><time>2026-04-12T07:58:39.033Z</time></trkpt><trkpt lat="43.5522947" lon="11.784297"><ele>635.0</ele><time>2026-04-12T07:58:41.033Z</time></trkpt><trkpt lat="43.5522704" lon="11.7843789"><ele>635.0</ele><time>2026-04-12T07:58:42.033Z</time></trkpt><trkpt lat="43.5522152" lon="11.7845161"><ele>635.0</ele><time>2026-04-12T07:58:44.033Z</time></trkpt><trkpt lat="43.5521739" lon="11.7846786"><ele>633.2</ele><time>2026-04-12T07:58:46.033Z</time></trkpt><trkpt lat="43.5521706" lon="11.7847684"><ele>631.4</ele><time>2026-04-12T07:58:47.033Z</time></trkpt><trkpt lat="43.5521491" lon="11.7848935"><ele>629.6</ele><time>2026-04-12T07:58:49.034Z</time></trkpt><trkpt lat="43.5520711" lon="11.7849721"><ele>627.8</ele><time>2026-04-12T07:58:51.034Z</time></trkpt><trkpt lat="43.5519986" lon="11.785072"><ele>626.0</ele><time>2026-04-12T07:58:53.033Z</time></trkpt><trkpt lat="43.5519244" lon="11.7851803"><ele>620.75</ele><time>2026-04-12T07:58:55.033Z</time></trkpt><trkpt lat="43.5518374" lon="11.7852583"><ele>615.5</ele><time>2026-04-12T07:58:57.033Z</time></trkpt><trkpt lat="43.5517293" lon="11.7852863"><ele>610.25</ele><time>2026-04-12T07:58:59.033Z</time></trkpt><trkpt lat="43.5516135" lon="11.7853276"><ele>605.0</ele><time>2026-04-12T07:59:01.034Z</time></trkpt><trkpt lat="43.5514999" lon="11.7853712"><ele>605.0</ele><time>2026-04-12T07:59:03.033Z</time></trkpt><trkpt lat="43.5513888" lon="11.7854102"><ele>605.0</ele><time>2026-04-12T07:59:05.034Z</time></trkpt><trkpt lat="43.5512828" lon="11.7854492"><ele>605.0</ele><time>2026-04-12T07:59:07.033Z</time></trkpt><trkpt lat="43.5511998" lon="11.7854778"><ele>605.0</ele><time>2026-04-12T07:59:09.033Z</time></trkpt><trkpt lat="43.5511396" lon="11.7854162"><ele>605.0</ele><time>2026-04-12T07:59:11.033Z</time></trkpt><trkpt lat="43.5510625" lon="11.7853997"><ele>602.1666666666666</ele><time>2026-04-12T07:59:13.033Z</time></trkpt><trkpt lat="43.550984" lon="11.7854586"><ele>599.3333333333333</ele><time>2026-04-12T07:59:15.034Z</time></trkpt><trkpt lat="43.5509033" lon="11.7855204"><ele>596.5</ele><time>2026-04-12T07:59:17.033Z</time></trkpt><trkpt lat="43.5508406" lon="11.7855324"><ele>593.6666666666666</ele><time>2026-04-12T07:59:19.034Z</time></trkpt><trkpt lat="43.5507806" lon="11.7854965"><ele>590.8333333333334</ele><time>2026-04-12T07:59:21.034Z</time></trkpt><trkpt lat="43.550727" lon="11.785433"><ele>588.0</ele><time>2026-04-12T07:59:23.033Z</time></trkpt><trkpt lat="43.550658" lon="11.7853942"><ele>588.0</ele><time>2026-04-12T07:59:25.034Z</time></trkpt><trkpt lat="43.5505704" lon="11.7854383"><ele>588.0</ele><time>2026-04-12T07:59:28.033Z</time></trkpt><trkpt lat="43.5504986" lon="11.7855119"><ele>588.0</ele><time>2026-04-12T07:59:31.033Z</time></trkpt><trkpt lat="43.5504306" lon="11.7854976"><ele>588.0</ele><time>2026-04-12T07:59:33.033Z</time></trkpt><trkpt lat="43.5503507" lon="11.7854425"><ele>588.0</ele><time>2026-04-12T07:59:36.033Z</time></trkpt><trkpt lat="43.5502696" lon="11.7855115"><ele>588.0</ele><time>2026-04-12T07:59:39.033Z</time></trkpt><trkpt lat="43.5502401" lon="11.7856013"><ele>585.1666666666666</ele><time>2026-04-12T07:59:41.033Z</time></trkpt><trkpt lat="43.5502386" lon="11.7857189"><ele>582.3333333333334</ele><time>2026-04-12T07:59:43.033Z</time></trkpt><trkpt lat="43.5502319" lon="11.7858392"><ele>579.5</ele><time>2026-04-12T07:59:45.033Z</time></trkpt><trkpt lat="43.5501892" lon="11.7859038"><ele>576.6666666666667</ele><time>2026-04-12T07:59:47.033Z</time></trkpt><trkpt lat="43.5501655" lon="11.7860201"><ele>573.8333333333334</ele><time>2026-04-12T07:59:50.033Z</time></trkpt><trkpt lat="43.5501448" lon="11.7861068"><ele>571.0</ele><time>2026-04-12T07:59:52.033Z</time></trkpt><trkpt lat="43.5500552" lon="11.7861393"><ele>569.6</ele><time>2026-04-12T07:59:55.034Z</time></trkpt><trkpt lat="43.5499628" lon="11.7861427"><ele>568.2</ele><time>2026-04-12T07:59:57.033Z</time></trkpt><trkpt lat="43.549862" lon="11.7861652"><ele>566.8</ele><time>2026-04-12T07:59:59.034Z</time></trkpt><trkpt lat="43.5497781" lon="11.7861261"><ele>565.4</ele><time>2026-04-12T08:00:01.033Z</time></trkpt><trkpt lat="43.5496976" lon="11.7860611"><ele>564.0</ele><time>2026-04-12T08:00:03.034Z</time></trkpt><trkpt lat="43.5496067" lon="11.7860218"><ele>564.0</ele><time>2026-04-12T08:00:05.033Z</time></trkpt><trkpt lat="43.5495623" lon="11.7861092"><ele>564.0</ele><time>2026-04-12T08:00:08.034Z</time></trkpt><trkpt lat="43.5495297" lon="11.7861903"><ele>564.0</ele><time>2026-04-12T08:00:10.034Z</time></trkpt><trkpt lat="43.5495067" lon="11.7862912"><ele>564.0</ele><time>2026-04-12T08:00:12.033Z</time></trkpt><trkpt lat="43.5494946" lon="11.7864063"><ele>564.0</ele><time>2026-04-12T08:00:14.033Z</time></trkpt><trkpt lat="43.5494908" lon="11.7865057"><ele>564.0</ele><time>2026-04-12T08:00:16.033Z</time></trkpt><trkpt lat="43.5495505" lon="11.7865772"><ele>564.0</ele><time>2026-04-12T08:00:18.034Z</time></trkpt><trkpt lat="43.549637" lon="11.7866375"><ele>564.0</ele><time>2026-04-12T08:00:20.034Z</time></trkpt><trkpt lat="43.5497061" lon="11.786698"><ele>564.0</ele><time>2026-04-12T08:00:22.034Z</time></trkpt><trkpt lat="43.5497618" lon="11.7867416"><ele>564.0</ele><time>2026-04-12T08:00:24.034Z</time></trkpt><trkpt lat="43.5498183" lon="11.7868223"><ele>564.0</ele><time>2026-04-12T08:00:27.034Z</time></trkpt><trkpt lat="43.5498729" lon="11.7868999"><ele>564.0</ele><time>2026-04-12T08:00:30.033Z</time></trkpt><trkpt lat="43.549957" lon="11.7869894"><ele>562.0</ele><time>2026-04-12T08:00:33.033Z</time></trkpt><trkpt lat="43.5500245" lon="11.7870819"><ele>560.0</ele><time>2026-04-12T08:00:35.034Z</time></trkpt><trkpt lat="43.550082" lon="11.787176"><ele>558.0</ele><time>2026-04-12T08:00:37.033Z</time></trkpt><trkpt lat="43.5501355" lon="11.7872478"><ele>556.0</ele><time>2026-04-12T08:00:39.033Z</time></trkpt><trkpt lat="43.5502346" lon="11.7873325"><ele>554.0</ele><time>2026-04-12T08:00:41.033Z</time></trkpt><trkpt lat="43.550257" lon="11.7874139"><ele>552.0</ele><time>2026-04-12T08:00:42.033Z</time></trkpt><trkpt lat="43.550292" lon="11.7875129"><ele>552.0</ele><time>2026-04-12T08:00:43.033Z</time></trkpt><trkpt lat="43.5503176" lon="11.787614"><ele>552.0</ele><time>2026-04-12T08:00:44.033Z</time></trkpt><trkpt lat="43.5503353" lon="11.7877269"><ele>552.0</ele><time>2026-04-12T08:00:46.033Z</time></trkpt><trkpt lat="43.5503706" lon="11.7878371"><ele>552.0</ele><time>2026-04-12T08:00:48.033Z</time></trkpt><trkpt lat="43.5504439" lon="11.7879369"><ele>552.0</ele><time>2026-04-12T08:00:50.034Z</time></trkpt><trkpt lat="43.5505053" lon="11.7880331"><ele>552.0</ele><time>2026-04-12T08:00:52.033Z</time></trkpt><trkpt lat="43.5505645" lon="11.7881285"><ele>550.8333333333334</ele><time>2026-04-12T08:00:54.034Z</time></trkpt><trkpt lat="43.550637" lon="11.7881923"><ele>549.6666666666666</ele><time>2026-04-12T08:00:56.033Z</time></trkpt><trkpt lat="43.5507162" lon="11.7882247"><ele>548.5</ele><time>2026-04-12T08:00:58.034Z</time></trkpt><trkpt lat="43.5507625" lon="11.7882962"><ele>547.3333333333333</ele><time>2026-04-12T08:01:00.033Z</time></trkpt><trkpt lat="43.5507968" lon="11.7883935"><ele>546.1666666666666</ele><time>2026-04-12T08:01:02.033Z</time></trkpt><trkpt lat="43.5508489" lon="11.788483"><ele>545.0</ele><time>2026-04-12T08:01:05.033Z</time></trkpt><trkpt lat="43.5509006" lon="11.7885381"><ele>545.0</ele><time>2026-04-12T08:01:07.033Z</time></trkpt><trkpt lat="43.5509518" lon="11.7885952"><ele>545.0</ele><time>2026-04-12T08:02:07.033Z</time></trkpt><trkpt lat="43.5510758" lon="11.7886745"><ele>545.0</ele><time>2026-04-12T08:02:09.034Z</time></trkpt><trkpt lat="43.5511326" lon="11.7887246"><ele>545.0</ele><time>2026-04-12T08:02:10.034Z</time></trkpt><trkpt lat="43.5511993" lon="11.7887611"><ele>545.0</ele><time>2026-04-12T08:02:11.033Z</time></trkpt><trkpt lat="43.5512484" lon="11.7888208"><ele>545.0</ele><time>2026-04-12T08:02:12.034Z</time></trkpt><trkpt lat="43.5513584" lon="11.7888956"><ele>545.0</ele><time>2026-04-12T08:02:14.033Z</time></trkpt><trkpt lat="43.5514574" lon="11.7889173"><ele>545.0</ele><time>2026-04-12T08:02:16.033Z</time></trkpt><trkpt lat="43.5515194" lon="11.7888925"><ele>545.0</ele><time>2026-04-12T08:02:17.033Z</time></trkpt><trkpt lat="43.5515828" lon="11.7888524"><ele>545.0</ele><time>2026-04-12T08:02:18.033Z</time></trkpt><trkpt lat="43.5516919" lon="11.7887788"><ele>545.0</ele><time>2026-04-12T08:02:19.034Z</time></trkpt><trkpt lat="43.5517859" lon="11.788735"><ele>545.0</ele><time>2026-04-12T08:02:20.033Z</time></trkpt><trkpt lat="43.551895" lon="11.788714"><ele>545.0</ele><time>2026-04-12T08:02:21.033Z</time></trkpt><trkpt lat="43.5519884" lon="11.7886623"><ele>545.0</ele><time>2026-04-12T08:02:22.033Z</time></trkpt><trkpt lat="43.5520904" lon="11.7886201"><ele>545.0</ele><time>2026-04-12T08:02:23.034Z</time></trkpt><trkpt lat="43.5521805" lon="11.788583"><ele>545.0</ele><time>2026-04-12T08:02:24.033Z</time></trkpt><trkpt lat="43.5522593" lon="11.7885447"><ele>546.6666666666666</ele><time>2026-04-12T08:02:25.033Z</time></trkpt><trkpt lat="43.5523232" lon="11.7885154"><ele>548.3333333333333</ele><time>2026-04-12T08:02:26.033Z</time></trkpt><trkpt lat="43.5523871" lon="11.7884771"><ele>550.0</ele><time>2026-04-12T08:02:27.033Z</time></trkpt><trkpt lat="43.552451" lon="11.7884357"><ele>551.6666666666666</ele><time>2026-04-12T08:02:28.034Z</time></trkpt><trkpt lat="43.5524832" lon="11.7883445"><ele>553.3333333333334</ele><time>2026-04-12T08:02:29.033Z</time></trkpt><trkpt lat="43.5525061" lon="11.7882513"><ele>555.0</ele><time>2026-04-12T08:02:30.034Z</time></trkpt><trkpt lat="43.5525624" lon="11.7881282"><ele>555.0</ele><time>2026-04-12T08:02:32.034Z</time></trkpt><trkpt lat="43.5526604" lon="11.7880682"><ele>555.0</ele><time>2026-04-12T08:02:34.033Z</time></trkpt><trkpt lat="43.5527834" lon="11.7880782"><ele>555.0</ele><time>2026-04-12T08:02:36.033Z</time></trkpt><trkpt lat="43.5528519" lon="11.7880795"><ele>555.0</ele><time>2026-04-12T08:02:38.033Z</time></trkpt><trkpt lat="43.5529019" lon="11.7879573"><ele>555.0</ele><time>2026-04-12T08:02:40.033Z</time></trkpt><trkpt lat="43.5529716" lon="11.7878409"><ele>553.6666666666666</ele><time>2026-04-12T08:02:42.033Z</time></trkpt><trkpt lat="43.5530459" lon="11.7878212"><ele>552.3333333333334</ele><time>2026-04-12T08:02:43.033Z</time></trkpt><trkpt lat="43.5531534" lon="11.7878042"><ele>551.0</ele><time>2026-04-12T08:02:45.033Z</time></trkpt><trkpt lat="43.5532163" lon="11.7877902"><ele>549.6666666666667</ele><time>2026-04-12T08:02:46.033Z</time></trkpt><trkpt lat="43.5533" lon="11.7877471"><ele>548.3333333333334</ele><time>2026-04-12T08:02:48.033Z</time></trkpt><trkpt lat="43.5533888" lon="11.7876828"><ele>547.0</ele><time>2026-04-12T08:02:50.034Z</time></trkpt><trkpt lat="43.5535071" lon="11.7877235"><ele>547.0</ele><time>2026-04-12T08:02:52.034Z</time></trkpt><trkpt lat="43.5536142" lon="11.787773"><ele>547.0</ele><time>2026-04-12T08:02:54.033Z</time></trkpt><trkpt lat="43.553705" lon="11.7877737"><ele>547.0</ele><time>2026-04-12T08:02:56.034Z</time></trkpt><trkpt lat="43.5537965" lon="11.7876977"><ele>547.0</ele><time>2026-04-12T08:02:58.033Z</time></trkpt><trkpt lat="43.5538625" lon="11.7876437"><ele>547.0</ele><time>2026-04-12T08:02:59.033Z</time></trkpt><trkpt lat="43.5539282" lon="11.7876228"><ele>550.0</ele><time>2026-04-12T08:03:00.033Z</time></trkpt><trkpt lat="43.5539907" lon="11.7876332"><ele>553.0</ele><time>2026-04-12T08:03:01.033Z</time></trkpt><trkpt lat="43.5541218" lon="11.7876"><ele>556.0</ele><time>2026-04-12T08:03:03.033Z</time></trkpt><trkpt lat="43.5541871" lon="11.787565"><ele>559.0</ele><time>2026-04-12T08:03:04.033Z</time></trkpt><trkpt lat="43.5542611" lon="11.787522"><ele>562.0</ele><time>2026-04-12T08:03:05.033Z</time></trkpt><trkpt lat="43.5543444" lon="11.787499"><ele>565.0</ele><time>2026-04-12T08:03:06.033Z</time></trkpt><trkpt lat="43.5544277" lon="11.7875585"><ele>565.0</ele><time>2026-04-12T08:03:07.033Z</time></trkpt><trkpt lat="43.5545094" lon="11.7876451"><ele>565.0</ele><time>2026-04-12T08:03:08.033Z</time></trkpt><trkpt lat="43.5545838" lon="11.7877188"><ele>565.0</ele><time>2026-04-12T08:03:09.034Z</time></trkpt><trkpt lat="43.5546406" lon="11.787819"><ele>565.0</ele><time>2026-04-12T08:03:10.034Z</time></trkpt><trkpt lat="43.5546807" lon="11.787927"><ele>565.0</ele><time>2026-04-12T08:03:11.033Z</time></trkpt><trkpt lat="43.5547432" lon="11.7880149"><ele>563.2</ele><time>2026-04-12T08:03:13.033Z</time></trkpt><trkpt lat="43.5548498" lon="11.7879855"><ele>561.4</ele><time>2026-04-12T08:03:16.033Z</time></trkpt><trkpt lat="43.5549416" lon="11.7878813"><ele>559.6</ele><time>2026-04-12T08:03:18.033Z</time></trkpt><trkpt lat="43.5549987" lon="11.7878415"><ele>557.8</ele><time>2026-04-12T08:03:19.033Z</time></trkpt><trkpt lat="43.5550663" lon="11.7878188"><ele>556.0</ele><time>2026-04-12T08:03:20.033Z</time></trkpt><trkpt lat="43.5551701" lon="11.7878729"><ele>556.0</ele><time>2026-04-12T08:03:22.033Z</time></trkpt><trkpt lat="43.5552354" lon="11.7880042"><ele>556.0</ele><time>2026-04-12T08:03:24.033Z</time></trkpt><trkpt lat="43.5553111" lon="11.7881053"><ele>556.0</ele><time>2026-04-12T08:03:26.033Z</time></trkpt><trkpt lat="43.5554164" lon="11.7882239"><ele>556.0</ele><time>2026-04-12T08:03:28.033Z</time></trkpt><trkpt lat="43.5555011" lon="11.7882952"><ele>558.6666666666667</ele><time>2026-04-12T08:03:29.033Z</time></trkpt><trkpt lat="43.5555612" lon="11.788331"><ele>561.3333333333334</ele><time>2026-04-12T08:03:30.033Z</time></trkpt><trkpt lat="43.555627" lon="11.7883535"><ele>564.0</ele><time>2026-04-12T08:03:31.033Z</time></trkpt><trkpt lat="43.5557098" lon="11.7883725"><ele>566.6666666666666</ele><time>2026-04-12T08:03:32.033Z</time></trkpt><trkpt lat="43.5557981" lon="11.7883996"><ele>569.3333333333333</ele><time>2026-04-12T08:03:33.034Z</time></trkpt><trkpt lat="43.5558889" lon="11.7884203"><ele>572.0</ele><time>2026-04-12T08:03:34.033Z</time></trkpt><trkpt lat="43.5559863" lon="11.7884101"><ele>571.9999999999999</ele><time>2026-04-12T08:03:35.034Z</time></trkpt><trkpt lat="43.5560445" lon="11.7883692"><ele>572.0</ele><time>2026-04-12T08:03:36.034Z</time></trkpt><trkpt lat="43.5561004" lon="11.7883239"><ele>572.0</ele><time>2026-04-12T08:03:37.034Z</time></trkpt><trkpt lat="43.5561757" lon="11.7882706"><ele>572.0</ele><time>2026-04-12T08:03:38.034Z</time></trkpt><trkpt lat="43.5562625" lon="11.7882118"><ele>572.0</ele><time>2026-04-12T08:03:39.034Z</time></trkpt><trkpt lat="43.5563296" lon="11.7881947"><ele>571.9999999999999</ele><time>2026-04-12T08:03:40.033Z</time></trkpt><trkpt lat="43.5563898" lon="11.788164"><ele>572.0</ele><time>2026-04-12T08:03:41.033Z</time></trkpt><trkpt lat="43.5564542" lon="11.7881255"><ele>571.4285714285713</ele><time>2026-04-12T08:03:42.033Z</time></trkpt><trkpt lat="43.5564834" lon="11.7880457"><ele>570.8571428571429</ele><time>2026-04-12T08:03:43.034Z</time></trkpt><trkpt lat="43.5565216" lon="11.7879435"><ele>570.2857142857142</ele><time>2026-04-12T08:03:44.033Z</time></trkpt><trkpt lat="43.5565663" lon="11.7878512"><ele>569.7142857142857</ele><time>2026-04-12T08:03:45.034Z</time></trkpt><trkpt lat="43.5565192" lon="11.787773"><ele>569.1428571428571</ele><time>2026-04-12T08:03:46.033Z</time></trkpt><trkpt lat="43.5564808" lon="11.7876977"><ele>568.5714285714286</ele><time>2026-04-12T08:03:47.033Z</time></trkpt><trkpt lat="43.5564615" lon="11.7876014"><ele>568.0</ele><time>2026-04-12T08:03:48.033Z</time></trkpt><trkpt lat="43.5564317" lon="11.7873962"><ele>570.3333333333334</ele><time>2026-04-12T08:03:50.033Z</time></trkpt><trkpt lat="43.5564309" lon="11.7872837"><ele>572.6666666666667</ele><time>2026-04-12T08:03:51.034Z</time></trkpt><trkpt lat="43.5564403" lon="11.7871815"><ele>575.0</ele><time>2026-04-12T08:03:52.033Z</time></trkpt><trkpt lat="43.5564587" lon="11.7870827"><ele>577.3333333333334</ele><time>2026-04-12T08:03:53.033Z</time></trkpt><trkpt lat="43.5564873" lon="11.7869858"><ele>579.6666666666666</ele><time>2026-04-12T08:03:54.033Z</time></trkpt><trkpt lat="43.5565689" lon="11.7869688"><ele>582.0</ele><time>2026-04-12T08:03:55.033Z</time></trkpt><trkpt lat="43.5566397" lon="11.7869552"><ele>582.0</ele><time>2026-04-12T08:03:56.034Z</time></trkpt><trkpt lat="43.5567128" lon="11.7868875"><ele>582.0</ele><time>2026-04-12T08:03:58.033Z</time></trkpt><trkpt lat="43.5567069" lon="11.7867525"><ele>582.0</ele><time>2026-04-12T08:04:00.033Z</time></trkpt><trkpt lat="43.5566531" lon="11.786633"><ele>582.0</ele><time>2026-04-12T08:04:02.033Z</time></trkpt><trkpt lat="43.5565719" lon="11.7865084"><ele>582.0</ele><time>2026-04-12T08:04:04.033Z</time></trkpt><trkpt lat="43.5564931" lon="11.7864661"><ele>584.1666666666666</ele><time>2026-04-12T08:04:05.034Z</time></trkpt><trkpt lat="43.5564358" lon="11.7864211"><ele>586.3333333333334</ele><time>2026-04-12T08:04:06.033Z</time></trkpt><trkpt lat="43.5562898" lon="11.7864531"><ele>588.5</ele><time>2026-04-12T08:04:08.033Z</time></trkpt><trkpt lat="43.5562268" lon="11.7864835"><ele>590.6666666666667</ele><time>2026-04-12T08:04:09.033Z</time></trkpt><trkpt lat="43.5561467" lon="11.7865121"><ele>592.8333333333334</ele><time>2026-04-12T08:04:10.033Z</time></trkpt><trkpt lat="43.5560797" lon="11.7865277"><ele>595.0</ele><time>2026-04-12T08:04:11.033Z</time></trkpt><trkpt lat="43.5559794" lon="11.7864792"><ele>597.0</ele><time>2026-04-12T08:04:13.033Z</time></trkpt><trkpt lat="43.5559248" lon="11.7863302"><ele>599.0</ele><time>2026-04-12T08:04:15.033Z</time></trkpt><trkpt lat="43.5559257" lon="11.7862377"><ele>601.0</ele><time>2026-04-12T08:04:16.033Z</time></trkpt><trkpt lat="43.5559327" lon="11.7861259"><ele>603.0</ele><time>2026-04-12T08:04:17.033Z</time></trkpt><trkpt lat="43.5559364" lon="11.7859925"><ele>605.0</ele><time>2026-04-12T08:04:18.034Z</time></trkpt><trkpt lat="43.555953" lon="11.785863"><ele>606.8333333333333</ele><time>2026-04-12T08:04:19.034Z</time></trkpt><trkpt lat="43.5559749" lon="11.7857533"><ele>608.6666666666666</ele><time>2026-04-12T08:04:20.033Z</time></trkpt><trkpt lat="43.5560336" lon="11.7856868"><ele>610.5</ele><time>2026-04-12T08:04:21.033Z</time></trkpt><trkpt lat="43.5560895" lon="11.7855961"><ele>612.3333333333334</ele><time>2026-04-12T08:04:22.033Z</time></trkpt><trkpt lat="43.5561563" lon="11.7854979"><ele>614.1666666666667</ele><time>2026-04-12T08:04:23.033Z</time></trkpt><trkpt lat="43.5562299" lon="11.7854183"><ele>616.0</ele><time>2026-04-12T08:04:24.033Z</time></trkpt><trkpt lat="43.5562965" lon="11.7853068"><ele>616.0</ele><time>2026-04-12T08:04:25.034Z</time></trkpt><trkpt lat="43.5563661" lon="11.7852242"><ele>616.0</ele><time>2026-04-12T08:04:26.034Z</time></trkpt><trkpt lat="43.5564303" lon="11.7851297"><ele>616.0</ele><time>2026-04-12T08:04:27.033Z</time></trkpt><trkpt lat="43.556488" lon="11.7850572"><ele>616.0</ele><time>2026-04-12T08:04:28.033Z</time></trkpt><trkpt lat="43.5565535" lon="11.7849765"><ele>616.0</ele><time>2026-04-12T08:04:29.033Z</time></trkpt><trkpt lat="43.5565993" lon="11.7849129"><ele>616.0</ele><time>2026-04-12T08:04:30.034Z</time></trkpt><trkpt lat="43.5566409" lon="11.7848274"><ele>619.4</ele><time>2026-04-12T08:04:31.033Z</time></trkpt><trkpt lat="43.5566699" lon="11.7846671"><ele>622.8</ele><time>2026-04-12T08:04:33.033Z</time></trkpt><trkpt lat="43.5567237" lon="11.7845316"><ele>626.1999999999999</ele><time>2026-04-12T08:04:35.033Z</time></trkpt><trkpt lat="43.5567842" lon="11.7845062"><ele>629.6</ele><time>2026-04-12T08:04:36.033Z</time></trkpt><trkpt lat="43.5569236" lon="11.7844144"><ele>633.0</ele><time>2026-04-12T08:04:38.033Z</time></trkpt><trkpt lat="43.5570067" lon="11.7844236"><ele>632.4</ele><time>2026-04-12T08:04:39.034Z</time></trkpt><trkpt lat="43.5570731" lon="11.7844203"><ele>631.8</ele><time>2026-04-12T08:04:40.034Z</time></trkpt><trkpt lat="43.5571659" lon="11.7844382"><ele>631.2</ele><time>2026-04-12T08:04:42.034Z</time></trkpt><trkpt lat="43.5572418" lon="11.7843372"><ele>630.6</ele><time>2026-04-12T08:04:44.033Z</time></trkpt><trkpt lat="43.5573003" lon="11.7842039"><ele>630.0</ele><time>2026-04-12T08:04:46.034Z</time></trkpt><trkpt lat="43.557325" lon="11.78411"><ele>633.6</ele><time>2026-04-12T08:04:47.033Z</time></trkpt><trkpt lat="43.5573895" lon="11.7840432"><ele>637.2</ele><time>2026-04-12T08:04:48.033Z</time></trkpt><trkpt lat="43.5574954" lon="11.7839662"><ele>640.8</ele><time>2026-04-12T08:04:50.033Z</time></trkpt><trkpt lat="43.5575675" lon="11.7839565"><ele>644.4</ele><time>2026-04-12T08:04:51.033Z</time></trkpt><trkpt lat="43.557681" lon="11.7839095"><ele>648.0</ele><time>2026-04-12T08:04:53.033Z</time></trkpt><trkpt lat="43.5578049" lon="11.7838462"><ele>648.5999999999999</ele><time>2026-04-12T08:04:55.034Z</time></trkpt><trkpt lat="43.5578886" lon="11.7838132"><ele>649.1999999999999</ele><time>2026-04-12T08:04:56.034Z</time></trkpt><trkpt lat="43.5579936" lon="11.7837858"><ele>649.8</ele><time>2026-04-12T08:04:58.033Z</time></trkpt><trkpt lat="43.5580472" lon="11.7837374"><ele>650.4</ele><time>2026-04-12T08:04:59.033Z</time></trkpt><trkpt lat="43.5581017" lon="11.7835582"><ele>651.0</ele><time>2026-04-12T08:05:01.033Z</time></trkpt><trkpt lat="43.5581174" lon="11.783457"><ele>653.0</ele><time>2026-04-12T08:05:02.033Z</time></trkpt><trkpt lat="43.5581247" lon="11.7833219"><ele>655.0</ele><time>2026-04-12T08:05:04.033Z</time></trkpt><trkpt lat="43.5580829" lon="11.7832041"><ele>657.0</ele><time>2026-04-12T08:05:06.033Z</time></trkpt><trkpt lat="43.5580317" lon="11.7830938"><ele>659.0</ele><time>2026-04-12T08:05:08.034Z</time></trkpt><trkpt lat="43.5579814" lon="11.7830333"><ele>661.0</ele><time>2026-04-12T08:05:11.033Z</time></trkpt><trkpt lat="43.5579169" lon="11.7830185"><ele>663.0</ele><time>2026-04-12T08:09:12.034Z</time></trkpt><trkpt lat="43.5579622" lon="11.7829334"><ele>663.0</ele><time>2026-04-12T08:09:15.033Z</time></trkpt><trkpt lat="43.5580292" lon="11.7828676"><ele>663.0</ele><time>2026-04-12T08:09:17.033Z</time></trkpt><trkpt lat="43.5580984" lon="11.7828431"><ele>663.0</ele><time>2026-04-12T08:09:18.033Z</time></trkpt><trkpt lat="43.5581608" lon="11.7828208"><ele>663.0</ele><time>2026-04-12T08:09:19.033Z</time></trkpt><trkpt lat="43.5582651" lon="11.782807"><ele>663.0</ele><time>2026-04-12T08:09:21.033Z</time></trkpt><trkpt lat="43.5583502" lon="11.7827443"><ele>663.0</ele><time>2026-04-12T08:09:23.034Z</time></trkpt><trkpt lat="43.5584142" lon="11.7826572"><ele>664.8</ele><time>2026-04-12T08:09:25.034Z</time></trkpt><trkpt lat="43.5584937" lon="11.7825591"><ele>666.5999999999999</ele><time>2026-04-12T08:09:27.033Z</time></trkpt><trkpt lat="43.558574" lon="11.782487"><ele>668.4000000000001</ele><time>2026-04-12T08:09:29.033Z</time></trkpt><trkpt lat="43.558613" lon="11.782359"><ele>670.2</ele><time>2026-04-12T08:09:31.034Z</time></trkpt><trkpt lat="43.5586607" lon="11.7822641"><ele>672.0</ele><time>2026-04-12T08:09:33.033Z</time></trkpt><trkpt lat="43.5587024" lon="11.7821869"><ele>672.0</ele><time>2026-04-12T08:09:35.033Z</time></trkpt><trkpt lat="43.5587408" lon="11.7821173"><ele>672.0</ele><time>2026-04-12T08:09:37.034Z</time></trkpt><trkpt lat="43.5587427" lon="11.7820049"><ele>672.0</ele><time>2026-04-12T08:09:41.034Z</time></trkpt><trkpt lat="43.5585745" lon="11.7821205"><ele>672.0</ele><time>2026-04-12T08:09:44.034Z</time></trkpt><trkpt lat="43.5585" lon="11.7821772"><ele>672.0</ele><time>2026-04-12T08:09:47.033Z</time></trkpt><trkpt lat="43.5584222" lon="11.782192"><ele>672.0</ele><time>2026-04-12T08:10:07.033Z</time></trkpt><trkpt lat="43.5583403" lon="11.7821701"><ele>672.0</ele><time>2026-04-12T08:10:09.033Z</time></trkpt><trkpt lat="43.5582587" lon="11.7821417"><ele>672.0</ele><time>2026-04-12T08:10:11.033Z</time></trkpt><trkpt lat="43.5581878" lon="11.7821304"><ele>672.0</ele><time>2026-04-12T08:10:13.034Z</time></trkpt><trkpt lat="43.5581246" lon="11.782112"><ele>672.0</ele><time>2026-04-12T08:10:15.033Z</time></trkpt><trkpt lat="43.5580601" lon="11.7821196"><ele>672.0</ele><time>2026-04-12T08:10:18.033Z</time></trkpt><trkpt lat="43.5581114" lon="11.7822148"><ele>672.0</ele><time>2026-04-12T08:10:21.033Z</time></trkpt><trkpt lat="43.5582037" lon="11.7821475"><ele>672.0</ele><time>2026-04-12T08:10:24.034Z</time></trkpt><trkpt lat="43.5582708" lon="11.782122"><ele>672.0</ele><time>2026-04-12T08:10:27.033Z</time></trkpt><trkpt lat="43.5583357" lon="11.7820966"><ele>672.0</ele><time>2026-04-12T08:10:30.034Z</time></trkpt><trkpt lat="43.558418" lon="11.7820666"><ele>672.0</ele><time>2026-04-12T08:10:32.034Z</time></trkpt><trkpt lat="43.5585089" lon="11.7820243"><ele>672.0</ele><time>2026-04-12T08:10:35.033Z</time></trkpt><trkpt lat="43.5585532" lon="11.781878"><ele>674.1666666666666</ele><time>2026-04-12T08:10:37.033Z</time></trkpt><trkpt lat="43.558548" lon="11.7817025"><ele>676.3333333333334</ele><time>2026-04-12T08:10:39.034Z</time></trkpt><trkpt lat="43.5585464" lon="11.7816101"><ele>678.5</ele><time>2026-04-12T08:10:40.033Z</time></trkpt><trkpt lat="43.5585449" lon="11.7815176"><ele>680.6666666666667</ele><time>2026-04-12T08:10:41.034Z</time></trkpt><trkpt lat="43.5585151" lon="11.7814094"><ele>682.8333333333334</ele><time>2026-04-12T08:10:43.033Z</time></trkpt><trkpt lat="43.5584675" lon="11.7812964"><ele>685.0</ele><time>2026-04-12T08:10:45.033Z</time></trkpt><trkpt lat="43.5584145" lon="11.7811948"><ele>685.0</ele><time>2026-04-12T08:10:47.033Z</time></trkpt><trkpt lat="43.5584336" lon="11.7811115"><ele>685.0</ele><time>2026-04-12T08:10:48.033Z</time></trkpt><trkpt lat="43.5585131" lon="11.7810615"><ele>685.0</ele><time>2026-04-12T08:10:50.034Z</time></trkpt><trkpt lat="43.5585753" lon="11.7810021"><ele>685.0</ele><time>2026-04-12T08:10:52.033Z</time></trkpt><trkpt lat="43.5585417" lon="11.78086"><ele>685.0</ele><time>2026-04-12T08:10:55.034Z</time></trkpt><trkpt lat="43.5585029" lon="11.7807683"><ele>685.0</ele><time>2026-04-12T08:10:56.034Z</time></trkpt><trkpt lat="43.5584602" lon="11.780676"><ele>687.1666666666667</ele><time>2026-04-12T08:10:57.033Z</time></trkpt><trkpt lat="43.558444" lon="11.7805859"><ele>689.3333333333334</ele><time>2026-04-12T08:10:58.033Z</time></trkpt><trkpt lat="43.55846" lon="11.7804255"><ele>691.5</ele><time>2026-04-12T08:11:00.033Z</time></trkpt><trkpt lat="43.5584689" lon="11.7803255"><ele>693.6666666666666</ele><time>2026-04-12T08:11:02.033Z</time></trkpt><trkpt lat="43.5584326" lon="11.7802386"><ele>695.8333333333333</ele><time>2026-04-12T08:11:04.033Z</time></trkpt><trkpt lat="43.5583564" lon="11.7801784"><ele>698.0</ele><time>2026-04-12T08:11:06.033Z</time></trkpt><trkpt lat="43.5582647" lon="11.7801526"><ele>699.4</ele><time>2026-04-12T08:11:08.033Z</time></trkpt><trkpt lat="43.5581617" lon="11.7801114"><ele>700.8</ele><time>2026-04-12T08:11:10.033Z</time></trkpt><trkpt lat="43.5580842" lon="11.7800989"><ele>702.2</ele><time>2026-04-12T08:11:12.034Z</time></trkpt><trkpt lat="43.5579859" lon="11.7800531"><ele>703.6</ele><time>2026-04-12T08:11:14.033Z</time></trkpt><trkpt lat="43.5578895" lon="11.7799894"><ele>705.0</ele><time>2026-04-12T08:11:16.034Z</time></trkpt><trkpt lat="43.5577862" lon="11.7799103"><ele>705.0</ele><time>2026-04-12T08:11:18.034Z</time></trkpt><trkpt lat="43.5577199" lon="11.7798211"><ele>705.0</ele><time>2026-04-12T08:11:20.033Z</time></trkpt><trkpt lat="43.5576461" lon="11.7797561"><ele>705.0</ele><time>2026-04-12T08:11:22.034Z</time></trkpt><trkpt lat="43.5576035" lon="11.7796718"><ele>705.0</ele><time>2026-04-12T08:11:25.034Z</time></trkpt><trkpt lat="43.5576256" lon="11.7795893"><ele>705.0</ele><time>2026-04-12T08:11:27.033Z</time></trkpt><trkpt lat="43.5577011" lon="11.7794905"><ele>705.0</ele><time>2026-04-12T08:11:30.033Z</time></trkpt><trkpt lat="43.5577745" lon="11.7794233"><ele>703.6</ele><time>2026-04-12T08:11:32.033Z</time></trkpt><trkpt lat="43.5578127" lon="11.7793249"><ele>702.2</ele><time>2026-04-12T08:11:34.033Z</time></trkpt><trkpt lat="43.557847" lon="11.779206"><ele>700.8</ele><time>2026-04-12T08:11:36.033Z</time></trkpt><trkpt lat="43.557864" lon="11.7790598"><ele>699.4</ele><time>2026-04-12T08:11:38.033Z</time></trkpt><trkpt lat="43.5578482" lon="11.7788983"><ele>698.0</ele><time>2026-04-12T08:11:40.034Z</time></trkpt><trkpt lat="43.5578411" lon="11.7788055"><ele>701.2</ele><time>2026-04-12T08:11:41.033Z</time></trkpt><trkpt lat="43.5578729" lon="11.7785882"><ele>704.4</ele><time>2026-04-12T08:11:44.033Z</time></trkpt><trkpt lat="43.5579434" lon="11.7784963"><ele>707.6</ele><time>2026-04-12T08:11:46.034Z</time></trkpt><trkpt lat="43.5580068" lon="11.7783845"><ele>710.8000000000001</ele><time>2026-04-12T08:11:48.034Z</time></trkpt><trkpt lat="43.5580388" lon="11.7782991"><ele>714.0</ele><time>2026-04-12T08:11:49.033Z</time></trkpt><trkpt lat="43.5580925" lon="11.7781621"><ele>714.0</ele><time>2026-04-12T08:11:51.033Z</time></trkpt><trkpt lat="43.5581855" lon="11.7780946"><ele>714.0</ele><time>2026-04-12T08:11:53.033Z</time></trkpt><trkpt lat="43.5582984" lon="11.7780589"><ele>714.0</ele><time>2026-04-12T08:11:55.034Z</time></trkpt><trkpt lat="43.5583743" lon="11.7780295"><ele>714.0</ele><time>2026-04-12T08:11:56.033Z</time></trkpt><trkpt lat="43.5584627" lon="11.7779981"><ele>714.0</ele><time>2026-04-12T08:11:57.033Z</time></trkpt><trkpt lat="43.5585592" lon="11.7779613"><ele>714.0</ele><time>2026-04-12T08:11:58.033Z</time></trkpt><trkpt lat="43.5586479" lon="11.7779228"><ele>714.0</ele><time>2026-04-12T08:11:59.033Z</time></trkpt><trkpt lat="43.5587364" lon="11.7778799"><ele>714.0</ele><time>2026-04-12T08:12:00.034Z</time></trkpt><trkpt lat="43.5588161" lon="11.7778608"><ele>714.0</ele><time>2026-04-12T08:12:01.033Z</time></trkpt><trkpt lat="43.5588715" lon="11.7778129"><ele>714.0</ele><time>2026-04-12T08:12:02.033Z</time></trkpt><trkpt lat="43.5589401" lon="11.7777741"><ele>714.0</ele><time>2026-04-12T08:12:03.033Z</time></trkpt><trkpt lat="43.5590073" lon="11.7777399"><ele>712.6</ele><time>2026-04-12T08:12:04.033Z</time></trkpt><trkpt lat="43.5591248" lon="11.7776635"><ele>711.2</ele><time>2026-04-12T08:12:06.033Z</time></trkpt><trkpt lat="43.5591911" lon="11.7776228"><ele>709.8000000000001</ele><time>2026-04-12T08:12:07.034Z</time></trkpt><trkpt lat="43.5592629" lon="11.7775866"><ele>708.4000000000001</ele><time>2026-04-12T08:12:08.034Z</time></trkpt><trkpt lat="43.5593762" lon="11.7775682"><ele>707.0</ele><time>2026-04-12T08:12:10.034Z</time></trkpt><trkpt lat="43.5594848" lon="11.777556"><ele>709.6666666666666</ele><time>2026-04-12T08:12:12.033Z</time></trkpt><trkpt lat="43.5595868" lon="11.7775527"><ele>712.3333333333333</ele><time>2026-04-12T08:12:14.033Z</time></trkpt><trkpt lat="43.5596686" lon="11.7775165"><ele>715.0</ele><time>2026-04-12T08:12:16.033Z</time></trkpt><trkpt lat="43.5597647" lon="11.7774425"><ele>717.6666666666666</ele><time>2026-04-12T08:12:18.033Z</time></trkpt><trkpt lat="43.5598254" lon="11.7773815"><ele>720.3333333333334</ele><time>2026-04-12T08:12:19.033Z</time></trkpt><trkpt lat="43.5598815" lon="11.7773393"><ele>723.0</ele><time>2026-04-12T08:12:20.033Z</time></trkpt><trkpt lat="43.5599419" lon="11.7772884"><ele>723.0</ele><time>2026-04-12T08:12:21.033Z</time></trkpt><trkpt lat="43.5600043" lon="11.7772451"><ele>723.0</ele><time>2026-04-12T08:12:22.033Z</time></trkpt><trkpt lat="43.560081" lon="11.7772133"><ele>723.0</ele><time>2026-04-12T08:12:23.033Z</time></trkpt><trkpt lat="43.5601991" lon="11.7771883"><ele>723.0</ele><time>2026-04-12T08:12:25.033Z</time></trkpt><trkpt lat="43.5602707" lon="11.777111"><ele>723.0</ele><time>2026-04-12T08:12:27.034Z</time></trkpt><trkpt lat="43.5603286" lon="11.7769963"><ele>721.5999999999999</ele><time>2026-04-12T08:12:29.034Z</time></trkpt><trkpt lat="43.5603673" lon="11.7768351"><ele>720.1999999999999</ele><time>2026-04-12T08:12:31.033Z</time></trkpt><trkpt lat="43.5603476" lon="11.7766802"><ele>718.8</ele><time>2026-04-12T08:12:33.033Z</time></trkpt><trkpt lat="43.5602875" lon="11.7765852"><ele>717.4</ele><time>2026-04-12T08:12:34.034Z</time></trkpt><trkpt lat="43.5602457" lon="11.7765072"><ele>716.0</ele><time>2026-04-12T08:12:35.034Z</time></trkpt><trkpt lat="43.5601839" lon="11.7763845"><ele>715.8</ele><time>2026-04-12T08:12:37.034Z</time></trkpt><trkpt lat="43.5602265" lon="11.7762252"><ele>715.5999999999999</ele><time>2026-04-12T08:12:39.033Z</time></trkpt><trkpt lat="43.5602631" lon="11.7761507"><ele>715.4</ele><time>2026-04-12T08:12:40.034Z</time></trkpt><trkpt lat="43.5603333" lon="11.7760548"><ele>715.2</ele><time>2026-04-12T08:12:42.033Z</time></trkpt><trkpt lat="43.5603337" lon="11.77591"><ele>715.0</ele><time>2026-04-12T08:12:44.033Z</time></trkpt><trkpt lat="43.5603093" lon="11.775811"><ele>715.25</ele><time>2026-04-12T08:12:45.033Z</time></trkpt><trkpt lat="43.5602606" lon="11.7756799"><ele>715.5</ele><time>2026-04-12T08:12:47.033Z</time></trkpt><trkpt lat="43.5602579" lon="11.7755159"><ele>715.75</ele><time>2026-04-12T08:12:49.033Z</time></trkpt><trkpt lat="43.5602315" lon="11.7753532"><ele>716.0</ele><time>2026-04-12T08:12:51.033Z</time></trkpt><trkpt lat="43.5601992" lon="11.7751857"><ele>716.0</ele><time>2026-04-12T08:12:53.034Z</time></trkpt><trkpt lat="43.5601684" lon="11.7751011"><ele>716.0</ele><time>2026-04-12T08:12:54.033Z</time></trkpt><trkpt lat="43.5601107" lon="11.7749743"><ele>716.0</ele><time>2026-04-12T08:12:56.034Z</time></trkpt><trkpt lat="43.5600689" lon="11.7748792"><ele>716.0</ele><time>2026-04-12T08:12:58.033Z</time></trkpt><trkpt lat="43.5600527" lon="11.774765"><ele>716.0</ele><time>2026-04-12T08:14:11.034Z</time></trkpt><trkpt lat="43.5600138" lon="11.7746764"><ele>716.0</ele><time>2026-04-12T08:14:13.033Z</time></trkpt><trkpt lat="43.5599511" lon="11.7746084"><ele>716.0</ele><time>2026-04-12T08:14:15.033Z</time></trkpt><trkpt lat="43.559887" lon="11.7745379"><ele>716.0</ele><time>2026-04-12T08:14:17.033Z</time></trkpt><trkpt lat="43.5598241" lon="11.7744571"><ele>716.0</ele><time>2026-04-12T08:14:19.033Z</time></trkpt><trkpt lat="43.5597571" lon="11.7744075"><ele>716.0</ele><time>2026-04-12T08:14:21.033Z</time></trkpt><trkpt lat="43.5597047" lon="11.7743591"><ele>716.0</ele><time>2026-04-12T08:14:23.034Z</time></trkpt><trkpt lat="43.5596346" lon="11.7743127"><ele>716.0</ele><time>2026-04-12T08:14:25.033Z</time></trkpt><trkpt lat="43.5595621" lon="11.7742582"><ele>713.0</ele><time>2026-04-12T08:14:27.033Z</time></trkpt><trkpt lat="43.5595015" lon="11.7741853"><ele>710.0</ele><time>2026-04-12T08:14:29.034Z</time></trkpt><trkpt lat="43.5594496" lon="11.7740741"><ele>707.0</ele><time>2026-04-12T08:14:31.034Z</time></trkpt><trkpt lat="43.5593873" lon="11.7739884"><ele>704.0</ele><time>2026-04-12T08:14:33.033Z</time></trkpt><trkpt lat="43.5593369" lon="11.7739134"><ele>701.0</ele><time>2026-04-12T08:14:35.034Z</time></trkpt><trkpt lat="43.5592893" lon="11.7738349"><ele>698.0</ele><time>2026-04-12T08:14:37.034Z</time></trkpt><trkpt lat="43.5592362" lon="11.7737382"><ele>698.0</ele><time>2026-04-12T08:14:39.033Z</time></trkpt><trkpt lat="43.5591914" lon="11.7736117"><ele>698.0</ele><time>2026-04-12T08:14:41.033Z</time></trkpt><trkpt lat="43.5591715" lon="11.7735024"><ele>698.0</ele><time>2026-04-12T08:14:43.034Z</time></trkpt><trkpt lat="43.5591882" lon="11.7733923"><ele>698.0</ele><time>2026-04-12T08:14:45.033Z</time></trkpt><trkpt lat="43.5592476" lon="11.7733046"><ele>698.0</ele><time>2026-04-12T08:14:47.033Z</time></trkpt><trkpt lat="43.5593229" lon="11.7732306"><ele>698.0</ele><time>2026-04-12T08:14:49.033Z</time></trkpt><trkpt lat="43.5593962" lon="11.7731564"><ele>697.4</ele><time>2026-04-12T08:14:51.033Z</time></trkpt><trkpt lat="43.5594676" lon="11.773108"><ele>696.8</ele><time>2026-04-12T08:14:53.034Z</time></trkpt><trkpt lat="43.5595528" lon="11.7730357"><ele>696.2</ele><time>2026-04-12T08:14:55.034Z</time></trkpt><trkpt lat="43.5596256" lon="11.7729742"><ele>695.6</ele><time>2026-04-12T08:14:57.033Z</time></trkpt><trkpt lat="43.5597332" lon="11.7729347"><ele>695.0</ele><time>2026-04-12T08:14:59.033Z</time></trkpt><trkpt lat="43.5598092" lon="11.7728583"><ele>696.2</ele><time>2026-04-12T08:15:01.033Z</time></trkpt><trkpt lat="43.5598673" lon="11.772775"><ele>697.4</ele><time>2026-04-12T08:15:03.034Z</time></trkpt><trkpt lat="43.5598993" lon="11.7726885"><ele>698.5999999999999</ele><time>2026-04-12T08:15:05.033Z</time></trkpt><trkpt lat="43.5598781" lon="11.7725846"><ele>699.8</ele><time>2026-04-12T08:15:07.033Z</time></trkpt><trkpt lat="43.5598617" lon="11.7723453"><ele>701.0</ele><time>2026-04-12T08:15:10.033Z</time></trkpt><trkpt lat="43.5598944" lon="11.7722609"><ele>697.5</ele><time>2026-04-12T08:15:11.033Z</time></trkpt><trkpt lat="43.5599929" lon="11.7721325"><ele>694.0</ele><time>2026-04-12T08:15:13.033Z</time></trkpt><trkpt lat="43.5600626" lon="11.7720187"><ele>690.5</ele><time>2026-04-12T08:15:15.033Z</time></trkpt><trkpt lat="43.5601072" lon="11.7719151"><ele>687.0</ele><time>2026-04-12T08:15:17.033Z</time></trkpt><trkpt lat="43.5600215" lon="11.7717775"><ele>686.8</ele><time>2026-04-12T08:15:20.033Z</time></trkpt><trkpt lat="43.55998" lon="11.7716573"><ele>686.6</ele><time>2026-04-12T08:15:22.033Z</time></trkpt><trkpt lat="43.5599414" lon="11.7715749"><ele>686.4</ele><time>2026-04-12T08:15:23.033Z</time></trkpt><trkpt lat="43.5598606" lon="11.7714453"><ele>686.1999999999999</ele><time>2026-04-12T08:15:25.034Z</time></trkpt><trkpt lat="43.55979" lon="11.7713758"><ele>686.0</ele><time>2026-04-12T08:15:26.033Z</time></trkpt><trkpt lat="43.5596235" lon="11.771236"><ele>686.0</ele><time>2026-04-12T08:15:29.033Z</time></trkpt><trkpt lat="43.5595614" lon="11.7712013"><ele>686.0</ele><time>2026-04-12T08:15:30.033Z</time></trkpt><trkpt lat="43.5594751" lon="11.7711328"><ele>686.0</ele><time>2026-04-12T08:15:32.033Z</time></trkpt><trkpt lat="43.5594267" lon="11.771019"><ele>686.0</ele><time>2026-04-12T08:15:34.033Z</time></trkpt><trkpt lat="43.5594527" lon="11.7709234"><ele>686.0</ele><time>2026-04-12T08:15:36.033Z</time></trkpt><trkpt lat="43.5595214" lon="11.7708569"><ele>686.0</ele><time>2026-04-12T08:15:38.033Z</time></trkpt><trkpt lat="43.5595632" lon="11.7707546"><ele>688.0</ele><time>2026-04-12T08:15:40.034Z</time></trkpt><trkpt lat="43.5595949" lon="11.770641"><ele>690.0</ele><time>2026-04-12T08:15:42.033Z</time></trkpt><trkpt lat="43.5596568" lon="11.7705409"><ele>692.0</ele><time>2026-04-12T08:15:44.034Z</time></trkpt><trkpt lat="43.5597127" lon="11.770439"><ele>694.0</ele><time>2026-04-12T08:15:46.034Z</time></trkpt><trkpt lat="43.5597834" lon="11.7703406"><ele>696.0</ele><time>2026-04-12T08:15:48.033Z</time></trkpt><trkpt lat="43.5598686" lon="11.7702753"><ele>696.0</ele><time>2026-04-12T08:15:50.033Z</time></trkpt><trkpt lat="43.5599582" lon="11.7702031"><ele>696.0</ele><time>2026-04-12T08:15:52.033Z</time></trkpt><trkpt lat="43.560042" lon="11.7701238"><ele>696.0</ele><time>2026-04-12T08:15:54.033Z</time></trkpt><trkpt lat="43.5601302" lon="11.7700756"><ele>696.0</ele><time>2026-04-12T08:15:56.033Z</time></trkpt><trkpt lat="43.5602143" lon="11.7700539"><ele>696.0</ele><time>2026-04-12T08:15:58.033Z</time></trkpt><trkpt lat="43.5602816" lon="11.7699921"><ele>697.1999999999999</ele><time>2026-04-12T08:16:00.034Z</time></trkpt><trkpt lat="43.5603571" lon="11.7698942"><ele>698.4</ele><time>2026-04-12T08:16:02.033Z</time></trkpt><trkpt lat="43.5604468" lon="11.7698335"><ele>699.6</ele><time>2026-04-12T08:16:04.034Z</time></trkpt><trkpt lat="43.5605318" lon="11.7697783"><ele>700.8</ele><time>2026-04-12T08:16:06.033Z</time></trkpt><trkpt lat="43.5605959" lon="11.7697062"><ele>702.0</ele><time>2026-04-12T08:16:08.033Z</time></trkpt><trkpt lat="43.5606628" lon="11.769649"><ele>704.2</ele><time>2026-04-12T08:16:10.033Z</time></trkpt><trkpt lat="43.5607592" lon="11.769603"><ele>706.4000000000001</ele><time>2026-04-12T08:16:12.033Z</time></trkpt><trkpt lat="43.5608615" lon="11.7696"><ele>708.5999999999999</ele><time>2026-04-12T08:16:14.033Z</time></trkpt><trkpt lat="43.5609133" lon="11.7695155"><ele>710.8</ele><time>2026-04-12T08:16:16.034Z</time></trkpt><trkpt lat="43.5609229" lon="11.7693756"><ele>713.0</ele><time>2026-04-12T08:16:18.034Z</time></trkpt><trkpt lat="43.5609244" lon="11.7692326"><ele>714.4</ele><time>2026-04-12T08:16:20.033Z</time></trkpt><trkpt lat="43.5609314" lon="11.7690756"><ele>715.8</ele><time>2026-04-12T08:16:22.033Z</time></trkpt><trkpt lat="43.5609482" lon="11.768921"><ele>717.2</ele><time>2026-04-12T08:16:24.033Z</time></trkpt><trkpt lat="43.5609812" lon="11.7688006"><ele>718.6</ele><time>2026-04-12T08:16:26.034Z</time></trkpt><trkpt lat="43.5610354" lon="11.7686731"><ele>720.0</ele><time>2026-04-12T08:16:28.033Z</time></trkpt><trkpt lat="43.5610918" lon="11.7685293"><ele>724.6666666666666</ele><time>2026-04-12T08:16:30.034Z</time></trkpt><trkpt lat="43.5611897" lon="11.7683467"><ele>729.3333333333333</ele><time>2026-04-12T08:16:33.033Z</time></trkpt><trkpt lat="43.5611503" lon="11.7679946"><ele>734.0</ele><time>2026-04-12T08:16:38.033Z</time></trkpt><trkpt lat="43.5611813" lon="11.7678837"><ele>734.0</ele><time>2026-04-12T08:16:40.033Z</time></trkpt><trkpt lat="43.5611813" lon="11.7677612"><ele>734.0</ele><time>2026-04-12T08:16:42.033Z</time></trkpt><trkpt lat="43.5611532" lon="11.7676377"><ele>734.0</ele><time>2026-04-12T08:16:44.033Z</time></trkpt><trkpt lat="43.5611369" lon="11.7675049"><ele>734.0</ele><time>2026-04-12T08:16:46.034Z</time></trkpt><trkpt lat="43.56113" lon="11.7673871"><ele>734.0</ele><time>2026-04-12T08:16:48.033Z</time></trkpt><trkpt lat="43.5611334" lon="11.767252"><ele>734.3333333333333</ele><time>2026-04-12T08:16:50.033Z</time></trkpt><trkpt lat="43.5611536" lon="11.7671223"><ele>734.6666666666666</ele><time>2026-04-12T08:16:52.033Z</time></trkpt><trkpt lat="43.5611924" lon="11.7670231"><ele>735.0</ele><time>2026-04-12T08:16:54.034Z</time></trkpt><trkpt lat="43.5612111" lon="11.766937"><ele>735.3333333333334</ele><time>2026-04-12T08:16:57.033Z</time></trkpt><trkpt lat="43.561235" lon="11.7668409"><ele>735.6666666666667</ele><time>2026-04-12T08:17:06.033Z</time></trkpt><trkpt lat="43.5612772" lon="11.7667635"><ele>736.0</ele><time>2026-04-12T08:17:08.034Z</time></trkpt><trkpt lat="43.5613162" lon="11.7666724"><ele>734.6666666666667</ele><time>2026-04-12T08:17:10.034Z</time></trkpt><trkpt lat="43.5613316" lon="11.7665772"><ele>733.3333333333334</ele><time>2026-04-12T08:17:12.357Z</time></trkpt><trkpt lat="43.5613619" lon="11.7664662"><ele>732.0</ele><time>2026-04-12T08:17:17.033Z</time></trkpt><trkpt lat="43.5614404" lon="11.7664195"><ele>730.6666666666666</ele><time>2026-04-12T08:17:19.034Z</time></trkpt><trkpt lat="43.5615246" lon="11.7664024"><ele>729.3333333333333</ele><time>2026-04-12T08:17:21.033Z</time></trkpt><trkpt lat="43.5615966" lon="11.7663216"><ele>728.0</ele><time>2026-04-12T08:17:23.034Z</time></trkpt><trkpt lat="43.5616382" lon="11.7662467"><ele>728.0</ele><time>2026-04-12T08:17:24.957Z</time></trkpt><trkpt lat="43.5617072" lon="11.7661862"><ele>728.0</ele><time>2026-04-12T08:17:37.033Z</time></trkpt><trkpt lat="43.5617592" lon="11.766137"><ele>728.0</ele><time>2026-04-12T08:22:05.033Z</time></trkpt><trkpt lat="43.5618701" lon="11.7660941"><ele>728.0</ele><time>2026-04-12T08:22:07.033Z</time></trkpt><trkpt lat="43.5619361" lon="11.7660806"><ele>728.0</ele><time>2026-04-12T08:23:30.033Z</time></trkpt><trkpt lat="43.5620023" lon="11.7660306"><ele>728.0</ele><time>2026-04-12T08:28:32.034Z</time></trkpt><trkpt lat="43.5621566" lon="11.7659266"><ele>728.8333333333333</ele><time>2026-04-12T08:28:36.034Z</time></trkpt><trkpt lat="43.5622231" lon="11.7658868"><ele>729.6666666666666</ele><time>2026-04-12T08:28:38.034Z</time></trkpt><trkpt lat="43.562308" lon="11.7658765"><ele>730.5</ele><time>2026-04-12T08:28:41.034Z</time></trkpt><trkpt lat="43.5623716" lon="11.7658613"><ele>731.3333333333334</ele><time>2026-04-12T08:28:43.033Z</time></trkpt><trkpt lat="43.5624554" lon="11.7657985"><ele>732.1666666666667</ele><time>2026-04-12T08:28:45.033Z</time></trkpt><trkpt lat="43.5625484" lon="11.7657565"><ele>733.0</ele><time>2026-04-12T08:28:47.034Z</time></trkpt><trkpt lat="43.562648" lon="11.7657191"><ele>733.0</ele><time>2026-04-12T08:28:49.034Z</time></trkpt><trkpt lat="43.5627357" lon="11.7656838"><ele>733.0</ele><time>2026-04-12T08:28:51.034Z</time></trkpt><trkpt lat="43.5627968" lon="11.7656516"><ele>733.0</ele><time>2026-04-12T08:28:53.033Z</time></trkpt><trkpt lat="43.5629052" lon="11.7656291"><ele>733.0</ele><time>2026-04-12T08:28:56.034Z</time></trkpt><trkpt lat="43.5629818" lon="11.7655963"><ele>733.0</ele><time>2026-04-12T08:28:59.034Z</time></trkpt><trkpt lat="43.5631013" lon="11.7656016"><ele>732.2</ele><time>2026-04-12T08:38:40.033Z</time></trkpt><trkpt lat="43.5631796" lon="11.7656203"><ele>731.4</ele><time>2026-04-12T08:38:43.033Z</time></trkpt><trkpt lat="43.5632735" lon="11.765511"><ele>730.6</ele><time>2026-04-12T08:38:48.033Z</time></trkpt><trkpt lat="43.5632925" lon="11.765403"><ele>729.8000000000001</ele><time>2026-04-12T08:38:51.033Z</time></trkpt><trkpt lat="43.5632792" lon="11.7652394"><ele>729.0</ele><time>2026-04-12T08:38:55.034Z</time></trkpt><trkpt lat="43.5632318" lon="11.7651081"><ele>729.0</ele><time>2026-04-12T08:38:59.034Z</time></trkpt><trkpt lat="43.5631971" lon="11.7650215"><ele>729.0</ele><time>2026-04-12T08:39:02.033Z</time></trkpt><trkpt lat="43.5631467" lon="11.7649136"><ele>729.0</ele><time>2026-04-12T08:39:05.033Z</time></trkpt><trkpt lat="43.5631112" lon="11.7648297"><ele>729.0</ele><time>2026-04-12T08:39:07.034Z</time></trkpt><trkpt lat="43.5631069" lon="11.7646917"><ele>729.0</ele><time>2026-04-12T08:39:11.033Z</time></trkpt><trkpt lat="43.563181" lon="11.7646224"><ele>729.0</ele><time>2026-04-12T08:39:15.034Z</time></trkpt><trkpt lat="43.5633583" lon="11.7645455"><ele>729.0</ele><time>2026-04-12T08:39:51.033Z</time></trkpt><trkpt lat="43.5635473" lon="11.7646097"><ele>729.0</ele><time>2026-04-12T08:39:55.033Z</time></trkpt><trkpt lat="43.5636481" lon="11.7646301"><ele>729.0</ele><time>2026-04-12T08:39:57.033Z</time></trkpt><trkpt lat="43.5637462" lon="11.7646229"><ele>729.0</ele><time>2026-04-12T08:39:59.033Z</time></trkpt><trkpt lat="43.5639713" lon="11.7645097"><ele>729.4000000000001</ele><time>2026-04-12T08:40:04.033Z</time></trkpt><trkpt lat="43.5640481" lon="11.764468"><ele>729.8</ele><time>2026-04-12T08:40:06.034Z</time></trkpt><trkpt lat="43.5641302" lon="11.7644108"><ele>730.2</ele><time>2026-04-12T08:40:08.033Z</time></trkpt><trkpt lat="43.5642339" lon="11.7643248"><ele>730.5999999999999</ele><time>2026-04-12T08:40:11.033Z</time></trkpt><trkpt lat="43.5642884" lon="11.7642555"><ele>731.0</ele><time>2026-04-12T08:40:13.033Z</time></trkpt><trkpt lat="43.5643312" lon="11.7641263"><ele>731.0</ele><time>2026-04-12T08:40:15.033Z</time></trkpt><trkpt lat="43.5643735" lon="11.7640274"><ele>731.0</ele><time>2026-04-12T08:40:17.033Z</time></trkpt><trkpt lat="43.5644897" lon="11.7639509"><ele>731.0</ele><time>2026-04-12T08:40:20.872Z</time></trkpt><trkpt lat="43.5645843" lon="11.7638855"><ele>731.0</ele><time>2026-04-12T08:40:22.834Z</time></trkpt><trkpt lat="43.5646551" lon="11.7638085"><ele>731.0</ele><time>2026-04-12T08:40:25.033Z</time></trkpt><trkpt lat="43.5647076" lon="11.7637362"><ele>731.0</ele><time>2026-04-12T08:40:27.334Z</time></trkpt><trkpt lat="43.5647542" lon="11.7636238"><ele>731.0</ele><time>2026-04-12T08:40:35.033Z</time></trkpt><trkpt lat="43.5648349" lon="11.7635149"><ele>731.0</ele><time>2026-04-12T08:40:39.033Z</time></trkpt><trkpt lat="43.5649743" lon="11.7628918"><ele>732.5</ele><time>2026-04-12T08:43:04.033Z</time></trkpt><trkpt lat="43.5650027" lon="11.7627336"><ele>734.0</ele><time>2026-04-12T08:43:07.033Z</time></trkpt><trkpt lat="43.5650268" lon="11.7626375"><ele>735.5</ele><time>2026-04-12T08:43:09.034Z</time></trkpt><trkpt lat="43.5650866" lon="11.7624183"><ele>737.0</ele><time>2026-04-12T08:43:13.033Z</time></trkpt><trkpt lat="43.5650543" lon="11.7622624"><ele>737.3333333333333</ele><time>2026-04-12T08:43:17.033Z</time></trkpt><trkpt lat="43.565024" lon="11.7621707"><ele>737.6666666666666</ele><time>2026-04-12T08:43:20.034Z</time></trkpt><trkpt lat="43.5652563" lon="11.7618419"><ele>738.0</ele><time>2026-04-12T08:43:30.033Z</time></trkpt><trkpt lat="43.5653664" lon="11.7616473"><ele>741.0</ele><time>2026-04-12T08:43:34.033Z</time></trkpt><trkpt lat="43.5654284" lon="11.7611273"><ele>744.0</ele><time>2026-04-12T08:43:42.511Z</time></trkpt><trkpt lat="43.5655773" lon="11.7607333"><ele>749.0</ele><time>2026-04-12T08:43:49.033Z</time></trkpt><trkpt lat="43.5656447" lon="11.7605074"><ele>754.0</ele><time>2026-04-12T08:43:53.033Z</time></trkpt><trkpt lat="43.5659132" lon="11.7600871"><ele>756.75</ele><time>2026-04-12T08:44:02.033Z</time></trkpt><trkpt lat="43.5659416" lon="11.7599927"><ele>759.5</ele><time>2026-04-12T08:44:03.033Z</time></trkpt><trkpt lat="43.5660911" lon="11.7597888"><ele>762.25</ele><time>2026-04-12T08:44:07.034Z</time></trkpt><trkpt lat="43.5662129" lon="11.7597871"><ele>765.0</ele><time>2026-04-12T08:44:10.033Z</time></trkpt><trkpt lat="43.5663012" lon="11.7596351"><ele>765.5</ele><time>2026-04-12T08:44:15.034Z</time></trkpt><trkpt lat="43.5663199" lon="11.7593625"><ele>766.0</ele><time>2026-04-12T08:44:21.033Z</time></trkpt><trkpt lat="43.5663371" lon="11.7589906"><ele>766.0</ele><time>2026-04-12T08:44:27.34Z</time></trkpt><trkpt lat="43.566368" lon="11.7587612"><ele>766.0</ele><time>2026-04-12T08:44:31.122Z</time></trkpt><trkpt lat="43.5663173" lon="11.7586376"><ele>766.0</ele><time>2026-04-12T08:44:33.299Z</time></trkpt><trkpt lat="43.5662915" lon="11.7585095"><ele>766.0</ele><time>2026-04-12T08:44:35.983Z</time></trkpt><trkpt lat="43.5663242" lon="11.7586471"><ele>760.0</ele><time>2026-04-12T08:44:39.181Z</time></trkpt><trkpt lat="43.5661976" lon="11.7581747"><ele>754.0</ele><time>2026-04-12T08:44:43.033Z</time></trkpt><trkpt lat="43.5662291" lon="11.7579594"><ele>754.0</ele><time>2026-04-12T08:44:47.033Z</time></trkpt><trkpt lat="43.5663032" lon="11.7579196"><ele>754.0</ele><time>2026-04-12T08:44:50.033Z</time></trkpt><trkpt lat="43.5664472" lon="11.7579018"><ele>754.0</ele><time>2026-04-12T08:44:54.033Z</time></trkpt><trkpt lat="43.5665687" lon="11.7578755"><ele>754.0</ele><time>2026-04-12T08:44:57.034Z</time></trkpt><trkpt lat="43.56671" lon="11.757915"><ele>754.0</ele><time>2026-04-12T08:45:01.033Z</time></trkpt><trkpt lat="43.5667988" lon="11.7579371"><ele>754.0</ele><time>2026-04-12T08:45:03.034Z</time></trkpt><trkpt lat="43.5668847" lon="11.7579648"><ele>754.0</ele><time>2026-04-12T08:45:05.033Z</time></trkpt><trkpt lat="43.5670573" lon="11.7580319"><ele>754.0</ele><time>2026-04-12T08:45:10.033Z</time></trkpt><trkpt lat="43.5671852" lon="11.7580824"><ele>750.6</ele><time>2026-04-12T08:45:14.033Z</time></trkpt><trkpt lat="43.5673106" lon="11.7580838"><ele>747.2</ele><time>2026-04-12T08:45:18.033Z</time></trkpt><trkpt lat="43.567442" lon="11.758051"><ele>743.8000000000001</ele><time>2026-04-12T08:45:22.033Z</time></trkpt><trkpt lat="43.5675118" lon="11.7580286"><ele>740.4000000000001</ele><time>2026-04-12T08:45:24.033Z</time></trkpt><trkpt lat="43.5676041" lon="11.7579965"><ele>737.0</ele><time>2026-04-12T08:45:26.033Z</time></trkpt><trkpt lat="43.5677239" lon="11.7579583"><ele>734.0</ele><time>2026-04-12T08:45:29.033Z</time></trkpt><trkpt lat="43.5678943" lon="11.7578904"><ele>731.0</ele><time>2026-04-12T08:45:34.033Z</time></trkpt><trkpt lat="43.5679566" lon="11.7578437"><ele>728.0</ele><time>2026-04-12T08:45:36.034Z</time></trkpt><trkpt lat="43.5680198" lon="11.7578148"><ele>725.0</ele><time>2026-04-12T08:45:38.033Z</time></trkpt><trkpt lat="43.5680726" lon="11.7577513"><ele>722.0</ele><time>2026-04-12T08:45:41.034Z</time></trkpt><trkpt lat="43.5679751" lon="11.7576281"><ele>722.0</ele><time>2026-04-12T08:47:36.033Z</time></trkpt><trkpt lat="43.5679592" lon="11.7575238"><ele>722.0</ele><time>2026-04-12T08:47:40.033Z</time></trkpt><trkpt lat="43.567868" lon="11.7573167"><ele>722.0</ele><time>2026-04-12T08:47:46.033Z</time></trkpt><trkpt lat="43.5677744" lon="11.7573045"><ele>722.0</ele><time>2026-04-12T08:47:49.033Z</time></trkpt><trkpt lat="43.5677096" lon="11.7573444"><ele>722.0</ele><time>2026-04-12T08:47:51.033Z</time></trkpt><trkpt lat="43.5676248" lon="11.7573045"><ele>721.7142857142858</ele><time>2026-04-12T08:47:54.034Z</time></trkpt><trkpt lat="43.5675773" lon="11.7572237"><ele>721.4285714285713</ele><time>2026-04-12T08:47:56.033Z</time></trkpt><trkpt lat="43.5675198" lon="11.7571682"><ele>721.1428571428571</ele><time>2026-04-12T08:47:58.033Z</time></trkpt><trkpt lat="43.5674547" lon="11.7571116"><ele>720.8571428571429</ele><time>2026-04-12T08:48:00.033Z</time></trkpt><trkpt lat="43.5673932" lon="11.7570725"><ele>720.5714285714287</ele><time>2026-04-12T08:48:02.271Z</time></trkpt><trkpt lat="43.5673087" lon="11.7570256"><ele>720.2857142857142</ele><time>2026-04-12T08:48:06.091Z</time></trkpt><trkpt lat="43.5672437" lon="11.7570303"><ele>720.0</ele><time>2026-04-12T08:48:07.033Z</time></trkpt><trkpt lat="43.5671788" lon="11.7570223"><ele>720.0</ele><time>2026-04-12T08:48:08.612Z</time></trkpt><trkpt lat="43.5671044" lon="11.7569851"><ele>720.0</ele><time>2026-04-12T08:48:11.033Z</time></trkpt><trkpt lat="43.5669838" lon="11.7569502"><ele>720.0</ele><time>2026-04-12T08:48:13.612Z</time></trkpt><trkpt lat="43.5669086" lon="11.7568683"><ele>720.0</ele><time>2026-04-12T08:48:15.034Z</time></trkpt><trkpt lat="43.566465" lon="11.75666"><ele>720.2</ele><time>2026-04-12T08:48:25.034Z</time></trkpt><trkpt lat="43.566381" lon="11.7566088"><ele>720.4</ele><time>2026-04-12T08:48:27.034Z</time></trkpt><trkpt lat="43.5662974" lon="11.756589"><ele>720.5999999999999</ele><time>2026-04-12T08:48:29.033Z</time></trkpt><trkpt lat="43.5662094" lon="11.7565718"><ele>720.8</ele><time>2026-04-12T08:48:31.033Z</time></trkpt><trkpt lat="43.5660517" lon="11.7564998"><ele>721.0</ele><time>2026-04-12T08:48:36.041Z</time></trkpt><trkpt lat="43.5658254" lon="11.7564371"><ele>721.0</ele><time>2026-04-12T08:48:42.038Z</time></trkpt><trkpt lat="43.5655808" lon="11.7561579"><ele>721.0</ele><time>2026-04-12T08:48:48.033Z</time></trkpt><trkpt lat="43.5655036" lon="11.7561271"><ele>721.0</ele><time>2026-04-12T08:48:50.033Z</time></trkpt><trkpt lat="43.5654262" lon="11.7561182"><ele>717.8</ele><time>2026-04-12T08:48:52.033Z</time></trkpt><trkpt lat="43.5653475" lon="11.7561211"><ele>714.5999999999999</ele><time>2026-04-12T08:48:54.033Z</time></trkpt><trkpt lat="43.5652824" lon="11.7561421"><ele>711.4</ele><time>2026-04-12T08:48:57.255Z</time></trkpt><trkpt lat="43.5652495" lon="11.7562378"><ele>708.2</ele><time>2026-04-12T08:49:02.493Z</time></trkpt><trkpt lat="43.5650256" lon="11.7562097"><ele>705.0</ele><time>2026-04-12T08:49:05.033Z</time></trkpt><trkpt lat="43.564959" lon="11.756241"><ele>705.0</ele><time>2026-04-12T08:49:07.334Z</time></trkpt><trkpt lat="43.5648871" lon="11.7563969"><ele>705.0</ele><time>2026-04-12T08:49:10.414Z</time></trkpt><trkpt lat="43.5648603" lon="11.7564758"><ele>705.0</ele><time>2026-04-12T08:49:12.133Z</time></trkpt><trkpt lat="43.5648411" lon="11.7566071"><ele>705.0</ele><time>2026-04-12T08:49:15.095Z</time></trkpt><trkpt lat="43.564887" lon="11.7567595"><ele>705.0</ele><time>2026-04-12T08:49:18.033Z</time></trkpt><trkpt lat="43.5648903" lon="11.7568504"><ele>706.5</ele><time>2026-04-12T08:49:20.033Z</time></trkpt><trkpt lat="43.5648705" lon="11.7570023"><ele>708.0</ele><time>2026-04-12T08:49:24.033Z</time></trkpt><trkpt lat="43.5648898" lon="11.7571991"><ele>709.5</ele><time>2026-04-12T08:49:28.033Z</time></trkpt><trkpt lat="43.5649293" lon="11.7573872"><ele>711.0</ele><time>2026-04-12T08:49:32.034Z</time></trkpt><trkpt lat="43.5649588" lon="11.7575121"><ele>711.0</ele><time>2026-04-12T08:49:35.034Z</time></trkpt><trkpt lat="43.564873" lon="11.7575852"><ele>711.0</ele><time>2026-04-12T08:49:38.033Z</time></trkpt><trkpt lat="43.5647865" lon="11.7575671"><ele>711.0</ele><time>2026-04-12T08:49:41.033Z</time></trkpt><trkpt lat="43.5646206" lon="11.7576088"><ele>711.0</ele><time>2026-04-12T08:49:46.034Z</time></trkpt><trkpt lat="43.5644057" lon="11.7576476"><ele>707.25</ele><time>2026-04-12T08:49:55.434Z</time></trkpt><trkpt lat="43.5641598" lon="11.7576735"><ele>703.5</ele><time>2026-04-12T08:49:58.033Z</time></trkpt><trkpt lat="43.5640772" lon="11.7576426"><ele>699.75</ele><time>2026-04-12T08:50:01.133Z</time></trkpt><trkpt lat="43.5639637" lon="11.7576489"><ele>696.0</ele><time>2026-04-12T08:50:03.453Z</time></trkpt><trkpt lat="43.5638652" lon="11.7576432"><ele>696.0</ele><time>2026-04-12T08:50:05.732Z</time></trkpt><trkpt lat="43.5637416" lon="11.7576337"><ele>696.0</ele><time>2026-04-12T08:50:08.532Z</time></trkpt><trkpt lat="43.5636547" lon="11.7576629"><ele>696.0</ele><time>2026-04-12T08:50:11.271Z</time></trkpt><trkpt lat="43.5637274" lon="11.7576676"><ele>696.0</ele><time>2026-04-12T08:50:14.072Z</time></trkpt><trkpt lat="43.5634907" lon="11.7578723"><ele>699.4</ele><time>2026-04-12T08:50:17.213Z</time></trkpt><trkpt lat="43.5633999" lon="11.7578742"><ele>702.8</ele><time>2026-04-12T08:50:19.713Z</time></trkpt><trkpt lat="43.5633001" lon="11.7578488"><ele>706.1999999999999</ele><time>2026-04-12T08:50:25.033Z</time></trkpt><trkpt lat="43.5632133" lon="11.7578304"><ele>709.5999999999999</ele><time>2026-04-12T08:50:27.253Z</time></trkpt><trkpt lat="43.5631421" lon="11.7578155"><ele>713.0</ele><time>2026-04-12T08:50:29.74Z</time></trkpt><trkpt lat="43.5630139" lon="11.7577323"><ele>713.0</ele><time>2026-04-12T08:50:31.034Z</time></trkpt><trkpt lat="43.5629349" lon="11.7577384"><ele>713.0</ele><time>2026-04-12T08:50:33.155Z</time></trkpt><trkpt lat="43.5628598" lon="11.7577379"><ele>713.0</ele><time>2026-04-12T08:50:34.417Z</time></trkpt><trkpt lat="43.5627577" lon="11.7577793"><ele>713.0</ele><time>2026-04-12T08:50:38.033Z</time></trkpt><trkpt lat="43.5626554" lon="11.7578352"><ele>713.0</ele><time>2026-04-12T08:50:41.117Z</time></trkpt><trkpt lat="43.5625712" lon="11.7578166"><ele>702.5</ele><time>2026-04-12T08:50:44.478Z</time></trkpt><trkpt lat="43.5624343" lon="11.75793"><ele>692.0</ele><time>2026-04-12T08:50:51.033Z</time></trkpt><trkpt lat="43.5616536" lon="11.7582852"><ele>685.3333333333333</ele><time>2026-04-12T08:51:07.033Z</time></trkpt><trkpt lat="43.5614113" lon="11.7584939"><ele>678.6666666666666</ele><time>2026-04-12T08:52:17.034Z</time></trkpt><trkpt lat="43.5613042" lon="11.7585781"><ele>672.0</ele><time>2026-04-12T08:52:18.202Z</time></trkpt><trkpt lat="43.5605311" lon="11.7589481"><ele>667.5</ele><time>2026-04-12T08:52:32.033Z</time></trkpt><trkpt lat="43.5601247" lon="11.7590884"><ele>663.0</ele><time>2026-04-12T08:52:41.041Z</time></trkpt><trkpt lat="43.5598132" lon="11.7589703"><ele>663.0</ele><time>2026-04-12T08:52:44.033Z</time></trkpt><trkpt lat="43.5597461" lon="11.7589798"><ele>663.0</ele><time>2026-04-12T08:52:45.033Z</time></trkpt><trkpt lat="43.5595287" lon="11.7589928"><ele>663.0</ele><time>2026-04-12T08:52:48.033Z</time></trkpt><trkpt lat="43.559391" lon="11.7589474"><ele>663.0</ele><time>2026-04-12T08:52:50.034Z</time></trkpt><trkpt lat="43.55921" lon="11.7588408"><ele>661.6666666666666</ele><time>2026-04-12T08:52:53.034Z</time></trkpt><trkpt lat="43.5589796" lon="11.758748"><ele>660.3333333333333</ele><time>2026-04-12T08:52:57.033Z</time></trkpt><trkpt lat="43.5588609" lon="11.7586686"><ele>659.0</ele><time>2026-04-12T08:52:59.033Z</time></trkpt><trkpt lat="43.5586192" lon="11.7585145"><ele>659.0</ele><time>2026-04-12T08:53:03.033Z</time></trkpt><trkpt lat="43.5583798" lon="11.7583847"><ele>659.0</ele><time>2026-04-12T08:53:07.034Z</time></trkpt><trkpt lat="43.5581046" lon="11.7581302"><ele>657.0</ele><time>2026-04-12T08:53:12.033Z</time></trkpt><trkpt lat="43.5577689" lon="11.7579006"><ele>655.0</ele><time>2026-04-12T08:53:17.033Z</time></trkpt><trkpt lat="43.5575825" lon="11.7577906"><ele>655.0</ele><time>2026-04-12T08:53:20.033Z</time></trkpt><trkpt lat="43.5572668" lon="11.7577195"><ele>655.0</ele><time>2026-04-12T08:53:25.034Z</time></trkpt><trkpt lat="43.557161" lon="11.7574299"><ele>655.5</ele><time>2026-04-12T08:53:29.033Z</time></trkpt><trkpt lat="43.5571517" lon="11.7573331"><ele>656.0</ele><time>2026-04-12T08:53:30.033Z</time></trkpt><trkpt lat="43.5571457" lon="11.7572333"><ele>656.5</ele><time>2026-04-12T08:53:31.033Z</time></trkpt><trkpt lat="43.5570965" lon="11.7568338"><ele>657.0</ele><time>2026-04-12T08:53:36.033Z</time></trkpt><trkpt lat="43.5567671" lon="11.7558876"><ele>653.3333333333334</ele><time>2026-04-12T08:53:51.033Z</time></trkpt><trkpt lat="43.5567394" lon="11.7554959"><ele>649.6666666666667</ele><time>2026-04-12T08:53:57.034Z</time></trkpt><trkpt lat="43.5568453" lon="11.7553337"><ele>646.0</ele><time>2026-04-12T08:54:00.033Z</time></trkpt><trkpt lat="43.5568966" lon="11.7548852"><ele>641.5</ele><time>2026-04-12T08:54:08.034Z</time></trkpt><trkpt lat="43.5567299" lon="11.7548268"><ele>637.0</ele><time>2026-04-12T08:54:11.033Z</time></trkpt><trkpt lat="43.5559264" lon="11.7551054"><ele>614.0</ele><time>2026-04-12T08:54:25.033Z</time></trkpt><trkpt lat="43.5550924" lon="11.7548612"><ele>614.0</ele><time>2026-04-12T08:54:39.033Z</time></trkpt><trkpt lat="43.5549497" lon="11.7548101"><ele>614.0</ele><time>2026-04-12T08:54:41.033Z</time></trkpt><trkpt lat="43.5548768" lon="11.7547993"><ele>614.0</ele><time>2026-04-12T08:54:42.033Z</time></trkpt><trkpt lat="43.5546605" lon="11.7547914"><ele>614.0</ele><time>2026-04-12T08:54:46.033Z</time></trkpt><trkpt lat="43.5544186" lon="11.7546024"><ele>607.5</ele><time>2026-04-12T08:54:51.034Z</time></trkpt><trkpt lat="43.5543171" lon="11.7545565"><ele>601.0</ele><time>2026-04-12T08:54:53.034Z</time></trkpt><trkpt lat="43.5540845" lon="11.7541511"><ele>587.0</ele><time>2026-04-12T08:55:02.034Z</time></trkpt><trkpt lat="43.5530705" lon="11.7540781"><ele>587.0</ele><time>2026-04-12T08:55:21.033Z</time></trkpt><trkpt lat="43.5530065" lon="11.7540622"><ele>587.0</ele><time>2026-04-12T08:55:22.034Z</time></trkpt><trkpt lat="43.5527154" lon="11.7538027"><ele>587.0</ele><time>2026-04-12T08:55:28.033Z</time></trkpt><trkpt lat="43.5525118" lon="11.7535071"><ele>556.0</ele><time>2026-04-12T08:55:34.034Z</time></trkpt><trkpt lat="43.5518524" lon="11.7532651"><ele>548.0</ele><time>2026-04-12T08:55:46.033Z</time></trkpt><trkpt lat="43.5514339" lon="11.7524523"><ele>548.0</ele><time>2026-04-12T08:55:58.033Z</time></trkpt><trkpt lat="43.5514144" lon="11.752365"><ele>548.0</ele><time>2026-04-12T08:55:59.034Z</time></trkpt><trkpt lat="43.5513842" lon="11.7521106"><ele>548.0</ele><time>2026-04-12T08:56:02.034Z</time></trkpt><trkpt lat="43.5513574" lon="11.7519322"><ele>548.0</ele><time>2026-04-12T08:56:04.033Z</time></trkpt><trkpt lat="43.5512488" lon="11.7513729"><ele>541.5</ele><time>2026-04-12T08:56:11.033Z</time></trkpt><trkpt lat="43.5511778" lon="11.7511892"><ele>535.0</ele><time>2026-04-12T08:56:19.033Z</time></trkpt><trkpt lat="43.5510624" lon="11.7515915"><ele>535.5</ele><time>2026-04-12T08:57:00.034Z</time></trkpt><trkpt lat="43.5509732" lon="11.751929"><ele>536.0</ele><time>2026-04-12T08:57:06.033Z</time></trkpt><trkpt lat="43.5507339" lon="11.7525944"><ele>535.5</ele><time>2026-04-12T08:57:19.033Z</time></trkpt><trkpt lat="43.550529" lon="11.7528847"><ele>535.0</ele><time>2026-04-12T08:57:27.033Z</time></trkpt><trkpt lat="43.5503586" lon="11.753228"><ele>535.0</ele><time>2026-04-12T08:57:36.033Z</time></trkpt><trkpt lat="43.550353" lon="11.7533597"><ele>535.0</ele><time>2026-04-12T08:57:39.034Z</time></trkpt><trkpt lat="43.5503979" lon="11.7534381"><ele>535.0</ele><time>2026-04-12T08:57:41.033Z</time></trkpt><trkpt lat="43.5507503" lon="11.7537648"><ele>530.3333333333334</ele><time>2026-04-12T08:57:51.033Z</time></trkpt><trkpt lat="43.5509211" lon="11.7540692"><ele>525.6666666666666</ele><time>2026-04-12T08:57:57.034Z</time></trkpt><trkpt lat="43.5510219" lon="11.7542475"><ele>521.0</ele><time>2026-04-12T08:58:01.033Z</time></trkpt><trkpt lat="43.5510515" lon="11.7543449"><ele>521.5</ele><time>2026-04-12T08:58:03.033Z</time></trkpt><trkpt lat="43.5508071" lon="11.754765"><ele>522.0</ele><time>2026-04-12T08:58:19.033Z</time></trkpt><trkpt lat="43.5506665" lon="11.7547395"><ele>513.0</ele><time>2026-04-12T08:58:23.033Z</time></trkpt><trkpt lat="43.5503021" lon="11.7546871"><ele>504.0</ele><time>2026-04-12T08:58:33.033Z</time></trkpt><trkpt lat="43.5501493" lon="11.7548236"><ele>504.0</ele><time>2026-04-12T08:58:37.033Z</time></trkpt><trkpt lat="43.5499983" lon="11.7551132"><ele>504.0</ele><time>2026-04-12T08:58:42.034Z</time></trkpt><trkpt lat="43.5497823" lon="11.7554046"><ele>501.5</ele><time>2026-04-12T08:58:47.033Z</time></trkpt><trkpt lat="43.5496394" lon="11.7557011"><ele>499.0</ele><time>2026-04-12T08:58:52.034Z</time></trkpt><trkpt lat="43.5495019" lon="11.7560439"><ele>499.0</ele><time>2026-04-12T08:58:57.033Z</time></trkpt><trkpt lat="43.5495301" lon="11.7566501"><ele>499.0</ele><time>2026-04-12T08:59:05.034Z</time></trkpt><trkpt lat="43.5496663" lon="11.7570434"><ele>504.5</ele><time>2026-04-12T08:59:12.033Z</time></trkpt><trkpt lat="43.5499109" lon="11.7574303"><ele>510.0</ele><time>2026-04-12T08:59:21.041Z</time></trkpt><trkpt lat="43.5498213" lon="11.7579219"><ele>493.0</ele><time>2026-04-12T08:59:29.033Z</time></trkpt><trkpt lat="43.5491252" lon="11.7583374"><ele>493.0</ele><time>2026-04-12T08:59:45.033Z</time></trkpt><trkpt lat="43.5489007" lon="11.7583596"><ele>493.0</ele><time>2026-04-12T08:59:50.034Z</time></trkpt><trkpt lat="43.54873" lon="11.7583335"><ele>493.0</ele><time>2026-04-12T08:59:55.034Z</time></trkpt><trkpt lat="43.5486386" lon="11.7581596"><ele>483.0</ele><time>2026-04-12T08:59:59.033Z</time></trkpt><trkpt lat="43.5485655" lon="11.7580021"><ele>473.0</ele><time>2026-04-12T09:00:03.033Z</time></trkpt><trkpt lat="43.548179" lon="11.7581097"><ele>473.0</ele><time>2026-04-12T09:00:12.033Z</time></trkpt><trkpt lat="43.5480904" lon="11.7582894"><ele>473.0</ele><time>2026-04-12T09:00:16.034Z</time></trkpt><trkpt lat="43.5480297" lon="11.7583353"><ele>473.0</ele><time>2026-04-12T09:00:18.034Z</time></trkpt><trkpt lat="43.5478933" lon="11.7582713"><ele>473.0</ele><time>2026-04-12T09:00:22.033Z</time></trkpt><trkpt lat="43.5477335" lon="11.7581523"><ele>466.5</ele><time>2026-04-12T09:00:27.033Z</time></trkpt><trkpt lat="43.5475407" lon="11.7580616"><ele>460.0</ele><time>2026-04-12T09:00:32.033Z</time></trkpt><trkpt lat="43.5473195" lon="11.7578185"><ele>460.0</ele><time>2026-04-12T09:00:40.033Z</time></trkpt><trkpt lat="43.5473476" lon="11.75772"><ele>460.0</ele><time>2026-04-12T09:00:44.033Z</time></trkpt><trkpt lat="43.5473979" lon="11.756961"><ele>458.33333333333337</ele><time>2026-04-12T09:00:59.033Z</time></trkpt><trkpt lat="43.5473408" lon="11.7568884"><ele>456.66666666666663</ele><time>2026-04-12T09:01:01.033Z</time></trkpt><trkpt lat="43.5472112" lon="11.7567754"><ele>455.0</ele><time>2026-04-12T09:01:04.034Z</time></trkpt><trkpt lat="43.5469052" lon="11.7564336"><ele>423.0</ele><time>2026-04-12T09:01:15.034Z</time></trkpt><trkpt lat="43.5468771" lon="11.7557928"><ele>407.0</ele><time>2026-04-12T09:01:24.034Z</time></trkpt><trkpt lat="43.5461206" lon="11.7566275"><ele>410.0</ele><time>2026-04-12T09:01:43.033Z</time></trkpt><trkpt lat="43.5458256" lon="11.7569758"><ele>413.0</ele><time>2026-04-12T09:02:00.033Z</time></trkpt><trkpt lat="43.5457263" lon="11.7570116"><ele>413.0</ele><time>2026-04-12T09:02:17.033Z</time></trkpt><trkpt lat="43.5458368" lon="11.7569113"><ele>413.0</ele><time>2026-04-12T09:02:24.033Z</time></trkpt><trkpt lat="43.5463093" lon="11.7562236"><ele>418.0</ele><time>2026-04-12T09:02:33.033Z</time></trkpt><trkpt lat="43.5464565" lon="11.7560519"><ele>423.0</ele><time>2026-04-12T09:02:35.033Z</time></trkpt><trkpt lat="43.5468149" lon="11.7556126"><ele>427.0</ele><time>2026-04-12T09:02:40.033Z</time></trkpt><trkpt lat="43.5464341" lon="11.7547593"><ele>427.0</ele><time>2026-04-12T09:02:57.033Z</time></trkpt><trkpt lat="43.5460343" lon="11.7546386"><ele>427.0</ele><time>2026-04-12T09:03:02.033Z</time></trkpt><trkpt lat="43.5460012" lon="11.7540666"><ele>442.0</ele><time>2026-04-12T09:03:07.033Z</time></trkpt><trkpt lat="43.5455964" lon="11.7523652"><ele>447.0</ele><time>2026-04-12T09:03:31.033Z</time></trkpt><trkpt lat="43.5451801" lon="11.7505893"><ele>447.0</ele><time>2026-04-12T09:03:46.033Z</time></trkpt><trkpt lat="43.5451257" lon="11.7504811"><ele>447.0</ele><time>2026-04-12T09:03:47.034Z</time></trkpt><trkpt lat="43.5449269" lon="11.7500908"><ele>447.0</ele><time>2026-04-12T09:03:50.033Z</time></trkpt><trkpt lat="43.5444466" lon="11.7492114"><ele>449.33333333333337</ele><time>2026-04-12T09:04:00.033Z</time></trkpt><trkpt lat="43.5442172" lon="11.7490166"><ele>451.6666666666667</ele><time>2026-04-12T09:04:11.033Z</time></trkpt><trkpt lat="43.544327" lon="11.7489524"><ele>454.0</ele><time>2026-04-12T09:24:54.034Z</time></trkpt><trkpt lat="43.5443851" lon="11.7490407"><ele>455.5</ele><time>2026-04-12T09:25:44.033Z</time></trkpt><trkpt lat="43.5446305" lon="11.7494823"><ele>457.0</ele><time>2026-04-12T09:25:49.034Z</time></trkpt><trkpt lat="43.5455504" lon="11.7521968"><ele>451.5</ele><time>2026-04-12T09:26:14.033Z</time></trkpt><trkpt lat="43.5455762" lon="11.7523082"><ele>446.0</ele><time>2026-04-12T09:26:15.033Z</time></trkpt><trkpt lat="43.5462158" lon="11.7530517"><ele>441.0</ele><time>2026-04-12T09:26:24.034Z</time></trkpt><trkpt lat="43.5463284" lon="11.7537271"><ele>420.0</ele><time>2026-04-12T09:26:33.034Z</time></trkpt><trkpt lat="43.545948" lon="11.7544313"><ele>420.0</ele><time>2026-04-12T09:26:42.033Z</time></trkpt><trkpt lat="43.5460685" lon="11.7547089"><ele>420.0</ele><time>2026-04-12T09:26:45.033Z</time></trkpt><trkpt lat="43.5463693" lon="11.7561515"><ele>413.0</ele><time>2026-04-12T09:27:12.034Z</time></trkpt><trkpt lat="43.5456947" lon="11.7569607"><ele>408.0</ele><time>2026-04-12T09:27:21.042Z</time></trkpt><trkpt lat="43.5453669" lon="11.7573538"><ele>403.0</ele><time>2026-04-12T09:27:26.434Z</time></trkpt><trkpt lat="43.5444281" lon="11.7580679"><ele>378.0</ele><time>2026-04-12T09:27:36.033Z</time></trkpt><trkpt lat="43.5435186" lon="11.7582223"><ele>378.0</ele><time>2026-04-12T09:27:45.036Z</time></trkpt><trkpt lat="43.5430755" lon="11.7582979"><ele>378.0</ele><time>2026-04-12T09:27:50.407Z</time></trkpt><trkpt lat="43.5421512" lon="11.7576847"><ele>364.0</ele><time>2026-04-12T09:27:58.033Z</time></trkpt><trkpt lat="43.5412967" lon="11.7574858"><ele>323.0</ele><time>2026-04-12T09:28:07.034Z</time></trkpt><trkpt lat="43.5392692" lon="11.760338"><ele>326.0</ele><time>2026-04-12T09:28:38.276Z</time></trkpt><trkpt lat="43.538013" lon="11.7606863"><ele>326.0</ele><time>2026-04-12T09:28:43.493Z</time></trkpt><trkpt lat="43.537911" lon="11.7606773"><ele>326.0</ele><time>2026-04-12T09:28:49.056Z</time></trkpt><trkpt lat="43.5374712" lon="11.7605472"><ele>310.0</ele><time>2026-04-12T09:28:54.572Z</time></trkpt><trkpt lat="43.5363272" lon="11.7581845"><ele>310.0</ele><time>2026-04-12T09:29:11.322Z</time></trkpt><trkpt lat="43.5362388" lon="11.7581876"><ele>310.0</ele><time>2026-04-12T09:29:17.635Z</time></trkpt><trkpt lat="43.5315475" lon="11.7587956"><ele>271.0</ele><time>2026-04-12T09:29:54.106Z</time></trkpt><trkpt lat="43.530671" lon="11.7586876"><ele>274.0</ele><time>2026-04-12T09:30:00.326Z</time></trkpt><trkpt lat="43.5300889" lon="11.7593899"><ele>273.5</ele><time>2026-04-12T09:30:06.553Z</time></trkpt><trkpt lat="43.5298973" lon="11.7591242"><ele>273.0</ele><time>2026-04-12T09:30:12.721Z</time></trkpt><trkpt lat="43.5290252" lon="11.7599574"><ele>272.5</ele><time>2026-04-12T09:30:18.817Z</time></trkpt><trkpt lat="43.5289957" lon="11.76007"><ele>272.0</ele><time>2026-04-12T09:30:21.033Z</time></trkpt><trkpt lat="43.5275725" lon="11.7600979"><ele>272.0</ele><time>2026-04-12T09:30:30.19Z</time></trkpt><trkpt lat="43.5283023" lon="11.7586097"><ele>271.5</ele><time>2026-04-12T09:30:36.272Z</time></trkpt><trkpt lat="43.5283767" lon="11.7584867"><ele>271.0</ele><time>2026-04-12T09:30:42.266Z</time></trkpt><trkpt lat="43.5281035" lon="11.7581648"><ele>271.0</ele><time>2026-04-12T09:30:45.034Z</time></trkpt><trkpt lat="43.5279034" lon="11.7581873"><ele>271.0</ele><time>2026-04-12T09:30:48.033Z</time></trkpt><trkpt lat="43.5273397" lon="11.760169"><ele>272.0</ele><time>2026-04-12T09:30:57.135Z</time></trkpt><trkpt lat="43.5269416" lon="11.7605624"><ele>270.0</ele><time>2026-04-12T09:31:03.653Z</time></trkpt><trkpt lat="43.5264096" lon="11.7615778"><ele>270.0</ele><time>2026-04-12T09:31:11.033Z</time></trkpt><trkpt lat="43.525666" lon="11.7627856"><ele>267.0</ele><time>2026-04-12T09:31:20.117Z</time></trkpt><trkpt lat="43.5251487" lon="11.7637069"><ele>261.0</ele><time>2026-04-12T09:31:26.331Z</time></trkpt><trkpt lat="43.5243634" lon="11.7649005"><ele>259.0</ele><time>2026-04-12T09:31:37.135Z</time></trkpt><trkpt lat="43.5238163" lon="11.7656374"><ele>251.0</ele><time>2026-04-12T09:31:43.345Z</time></trkpt><trkpt lat="43.5234962" lon="11.7665172"><ele>250.0</ele><time>2026-04-12T09:31:47.033Z</time></trkpt><trkpt lat="43.5225133" lon="11.7677904"><ele>250.0</ele><time>2026-04-12T09:31:56.138Z</time></trkpt><trkpt lat="43.5226054" lon="11.7678247"><ele>250.0</ele><time>2026-04-12T09:32:44.033Z</time></trkpt><trkpt lat="43.5224018" lon="11.7679991"><ele>250.0</ele><time>2026-04-12T09:54:16.881Z</time></trkpt><trkpt lat="43.5224951" lon="11.7682408"><ele>250.0</ele><time>2026-04-12T09:54:20.034Z</time></trkpt><trkpt lat="43.5224322" lon="11.7683523"><ele>250.0</ele><time>2026-04-12T09:54:21.033Z</time></trkpt><trkpt lat="43.5223662" lon="11.7684718"><ele>250.0</ele><time>2026-04-12T09:54:22.034Z</time></trkpt><trkpt lat="43.5201733" lon="11.7717154"><ele>249.0</ele><time>2026-04-12T09:54:45.034Z</time></trkpt><trkpt lat="43.5165401" lon="11.7731882"><ele>246.0</ele><time>2026-04-12T09:55:12.49Z</time></trkpt><trkpt lat="43.5121878" lon="11.7796512"><ele>232.0</ele><time>2026-04-12T09:55:51.917Z</time></trkpt><trkpt lat="43.505427" lon="11.7899062"><ele>211.0</ele><time>2026-04-12T09:56:52.033Z</time></trkpt><trkpt lat="43.5070888" lon="11.7930906"><ele>208.0</ele><time>2026-04-12T09:57:11.033Z</time></trkpt><trkpt lat="43.5069615" lon="11.7948863"><ele>206.0</ele><time>2026-04-12T09:57:20.128Z</time></trkpt><trkpt lat="43.5066727" lon="11.7959435"><ele>210.0</ele><time>2026-04-12T09:57:26.041Z</time></trkpt><trkpt lat="43.5071443" lon="11.7967442"><ele>207.0</ele><time>2026-04-12T09:57:31.984Z</time></trkpt><trkpt lat="43.5069858" lon="11.7984078"><ele>207.0</ele><time>2026-04-12T09:57:38.08Z</time></trkpt><trkpt lat="43.5065481" lon="11.7983034"><ele>207.0</ele><time>2026-04-12T09:57:43.672Z</time></trkpt><trkpt lat="43.5057452" lon="11.7986765"><ele>206.0</ele><time>2026-04-12T09:57:49.57Z</time></trkpt><trkpt lat="43.5056458" lon="11.7986918"><ele>205.0</ele><time>2026-04-12T09:57:55.926Z</time></trkpt><trkpt lat="43.5070055" lon="11.7985136"><ele>207.0</ele><time>2026-04-12T09:58:01.743Z</time></trkpt><trkpt lat="43.5015081" lon="11.8027556"><ele>207.0</ele><time>2026-04-12T09:59:57.033Z</time></trkpt><trkpt lat="43.5013132" lon="11.8031018"><ele>207.0</ele><time>2026-04-12T10:00:01.034Z</time></trkpt><trkpt lat="43.4980712" lon="11.8047105"><ele>209.0</ele><time>2026-04-12T10:01:07.033Z</time></trkpt><trkpt lat="43.496519" lon="11.8038338"><ele>247.0</ele><time>2026-04-12T10:01:52.034Z</time></trkpt><trkpt lat="43.4911947" lon="11.8034236"><ele>253.0</ele><time>2026-04-12T10:03:32.033Z</time></trkpt><trkpt lat="43.4856145" lon="11.8015203"><ele>252.5</ele><time>2026-04-12T10:04:53.05Z</time></trkpt><trkpt lat="43.4853693" lon="11.8010378"><ele>252.0</ele><time>2026-04-12T10:05:13.677Z</time></trkpt><trkpt lat="43.4853991" lon="11.8011726"><ele>253.0</ele><time>2026-04-12T10:05:26.015Z</time></trkpt><trkpt lat="43.4841025" lon="11.804415"><ele>253.0</ele><time>2026-04-12T10:05:45.312Z</time></trkpt><trkpt lat="43.4840314" lon="11.8046179"><ele>253.0</ele><time>2026-04-12T10:05:58.651Z</time></trkpt><trkpt lat="43.4839778" lon="11.8046646"><ele>253.0</ele><time>2026-04-12T10:06:02.152Z</time></trkpt><trkpt lat="43.4827477" lon="11.8040979"><ele>253.33333333333331</ele><time>2026-04-12T10:06:12.034Z</time></trkpt><trkpt lat="43.4825368" lon="11.8039739"><ele>253.66666666666669</ele><time>2026-04-12T10:06:14.034Z</time></trkpt><trkpt lat="43.4824378" lon="11.8039158"><ele>254.0</ele><time>2026-04-12T10:06:15.033Z</time></trkpt><trkpt lat="43.4822466" lon="11.8038064"><ele>254.0</ele><time>2026-04-12T10:06:17.034Z</time></trkpt><trkpt lat="43.4821495" lon="11.8037535"><ele>254.0</ele><time>2026-04-12T10:06:18.034Z</time></trkpt><trkpt lat="43.4819678" lon="11.8036556"><ele>254.0</ele><time>2026-04-12T10:06:20.033Z</time></trkpt><trkpt lat="43.4818162" lon="11.8035747"><ele>255.0</ele><time>2026-04-12T10:06:22.034Z</time></trkpt><trkpt lat="43.4817507" lon="11.8035377"><ele>256.0</ele><time>2026-04-12T10:06:23.033Z</time></trkpt><trkpt lat="43.48133" lon="11.8028026"><ele>256.0</ele><time>2026-04-12T10:06:35.173Z</time></trkpt><trkpt lat="43.4815385" lon="11.8034271"><ele>254.0</ele><time>2026-04-12T10:06:37.034Z</time></trkpt><trkpt lat="43.4808104" lon="11.8057362"><ele>254.0</ele><time>2026-04-12T10:06:46.271Z</time></trkpt><trkpt lat="43.4808569" lon="11.8066965"><ele>254.0</ele><time>2026-04-12T10:06:51.801Z</time></trkpt><trkpt lat="43.4808358" lon="11.8068129"><ele>254.0</ele><time>2026-04-12T10:06:57.327Z</time></trkpt><trkpt lat="43.4806428" lon="11.8083271"><ele>254.0</ele><time>2026-04-12T10:07:13.848Z</time></trkpt><trkpt lat="43.4804899" lon="11.8088961"><ele>254.0</ele><time>2026-04-12T10:07:19.325Z</time></trkpt><trkpt lat="43.4801312" lon="11.8135855"><ele>256.0</ele><time>2026-04-12T10:07:25.242Z</time></trkpt><trkpt lat="43.4804219" lon="11.8137423"><ele>258.0</ele><time>2026-04-12T10:07:30.73Z</time></trkpt><trkpt lat="43.4798011" lon="11.8130692"><ele>259.5</ele><time>2026-04-12T10:07:36.018Z</time></trkpt><trkpt lat="43.4798545" lon="11.8135445"><ele>261.0</ele><time>2026-04-12T10:07:44.033Z</time></trkpt><trkpt lat="43.4798284" lon="11.8137156"><ele>261.0</ele><time>2026-04-12T10:07:45.034Z</time></trkpt><trkpt lat="43.4797995" lon="11.8138835"><ele>261.0</ele><time>2026-04-12T10:07:46.033Z</time></trkpt><trkpt lat="43.479741" lon="11.8142227"><ele>261.0</ele><time>2026-04-12T10:07:48.034Z</time></trkpt><trkpt lat="43.4796132" lon="11.8149167"><ele>260.0</ele><time>2026-04-12T10:07:52.033Z</time></trkpt><trkpt lat="43.4792566" lon="11.8165219"><ele>261.0</ele><time>2026-04-12T10:08:01.146Z</time></trkpt><trkpt lat="43.4790749" lon="11.817536"><ele>261.5</ele><time>2026-04-12T10:08:06.813Z</time></trkpt><trkpt lat="43.4790309" lon="11.8181166"><ele>262.0</ele><time>2026-04-12T10:08:10.033Z</time></trkpt><trkpt lat="43.4789301" lon="11.8196892"><ele>262.0</ele><time>2026-04-12T10:08:18.34Z</time></trkpt><trkpt lat="43.4785164" lon="11.8206217"><ele>262.0</ele><time>2026-04-12T10:08:24.502Z</time></trkpt><trkpt lat="43.4784214" lon="11.8218242"><ele>262.0</ele><time>2026-04-12T10:08:30.696Z</time></trkpt><trkpt lat="43.4781507" lon="11.8228539"><ele>261.0</ele><time>2026-04-12T10:08:36.736Z</time></trkpt><trkpt lat="43.4783022" lon="11.8241558"><ele>261.0</ele><time>2026-04-12T10:08:43.594Z</time></trkpt><trkpt lat="43.4779764" lon="11.824322"><ele>261.0</ele><time>2026-04-12T10:08:49.802Z</time></trkpt><trkpt lat="43.4767527" lon="11.8238111"><ele>260.0</ele><time>2026-04-12T10:08:56.03Z</time></trkpt><trkpt lat="43.4735817" lon="11.8234746"><ele>232.0</ele><time>2026-04-12T10:09:18.361Z</time></trkpt><trkpt lat="43.4680898" lon="11.82493"><ele>251.0</ele><time>2026-04-12T10:09:57.407Z</time></trkpt><trkpt lat="43.4700186" lon="11.8225684"><ele>251.0</ele><time>2026-04-12T10:10:00.033Z</time></trkpt><trkpt lat="43.4698922" lon="11.8225223"><ele>251.0</ele><time>2026-04-12T10:10:01.033Z</time></trkpt><trkpt lat="43.4680905" lon="11.8249406"><ele>247.0</ele><time>2026-04-12T10:10:10.149Z</time></trkpt><trkpt lat="43.4709916" lon="11.8173429"><ele>249.0</ele><time>2026-04-12T10:12:17.033Z</time></trkpt><trkpt lat="43.471358" lon="11.8180731"><ele>249.0</ele><time>2026-04-12T10:12:34.601Z</time></trkpt><trkpt lat="43.4713734" lon="11.8176081"><ele>249.0</ele><time>2026-04-12T10:12:48.033Z</time></trkpt><trkpt lat="43.4714307" lon="11.8176645"><ele>249.0</ele><time>2026-04-12T10:12:49.033Z</time></trkpt><trkpt lat="43.4714983" lon="11.8178606"><ele>249.0</ele><time>2026-04-12T10:12:54.033Z</time></trkpt></trkseg><trkseg><trkpt lat="43.4768185" lon="11.8307888"><ele>237.0</ele><time>2026-04-12T10:53:59.284Z</time></trkpt><trkpt lat="43.4767816" lon="11.830995"><ele>244.0</ele><time>2026-04-12T10:54:00.294Z</time></trkpt></trkseg></trk></gpx>